[[{"header":{"parameterUnit":"m.s-1","parameterCategory":1,"la1":31.0,"la2":29.5877,"lo1":-88.7671,"lo2":-86.6584,"dy":0.0162,"dx":0.0185,"nx":115,"ny":88,"refTime":"2023-06-01T06:00:00:Z","depth":0,"parameterNumber":2,"parameterNumberName":"U-component_of_WINDS"},"data":[0.0,0.0,0.0,0.0,0.0,0.0,0.0,0.0,0.0,0.0,0.0,0.0,0.0,0.0,0.0,0.0,0.0,0.0,0.0,0.0,0.0,0.0,0.0,0.0,0.0,0.0,0.0,0.0,0.0,0.0,0.0,0.0,0.0,0.0,0.0,0.0,0.0,0.0,0.0,0.0,0.0,0.0,0.0,0.0,0.0,0.0,0.0,0.0,0.0,0.0,0.0,0.0,0.0,0.0,0.0,0.0,0.0,0.0,0.0,0.0,0.0,0.0,0.0,0.0,0.0,0.0,0.0,0.0,0.0,0.0,0.0,0.0,0.0,0.0,0.0,0.0,0.0,0.0,0.0,0.0,0.0,0.0,0.0,0.0,0.0,0.0,0.0,0.0,0.0,0.0,0.0,0.0,0.0,0.0,0.0,0.0,0.0,0.0,0.0,0.0,0.0,0.0,0.0,0.0,0.0,0.0,0.0,0.0,0.0,0.0,0.0,0.0,0.0,0.0,0.0,0.0,0.0,0.0,0.0,0.0,0.0,0.0,0.0,0.0,0.0,0.0,0.0,0.0,0.0,0.0,0.0,0.0,0.0,0.0,0.0,0.0,0.0,0.0,0.0,0.0,0.0,0.0,0.0,0.0,0.0,0.0,0.0,0.0,0.0,0.0,0.0,0.0,0.0,0.0,0.0,0.0,0.0,0.0,0.0,0.0,0.0,0.0,0.0,0.0,0.0,0.0,0.0,0.0,0.0,0.0,0.0,0.0,0.0,0.0,0.0,0.0,0.0,0.0,0.0,0.0,0.0,0.0,0.0,0.0,0.0,0.0,0.0,0.0,0.0,0.0,0.0,0.0,0.0,0.0,0.0,0.0,0.0,0.0,0.0,0.0,0.0,0.0,0.0,0.0,0.0,0.0,0.0,0.0,0.0,0.0,0.0,0.0,0.0,0.0,0.0,0.0,0.0,0.0,0.0,0.0,0.0,0.0,0.0,0.0,0.0,0.0,0.0,0.0,0.0,0.0,0.0,0.0,0.0,0.0,0.0,0.0,0.0,0.0,0.0,0.0,0.0,0.0,0.0,0.0,0.0,0.0,0.0,0.0,0.0,0.0,0.0,0.0,0.0,0.0,0.0,0.0,0.0,0.0,0.0,0.0,0.0,0.0,0.0,0.0,0.0,0.0,0.0,0.0,0.0,0.0,0.0,0.0,0.0,0.0,0.0,0.0,0.0,0.0,0.0,0.0,0.0,0.0,0.0,0.0,0.0,0.0,0.0,0.0,0.0,0.0,0.0,0.0,0.0,0.0,0.0,0.0,0.0,0.0,0.0,0.0,0.0,0.0,0.0,0.0,0.0,0.0,0.0,0.0,0.0,0.0,0.0,0.0,0.0,0.0,0.0,0.0,0.0,0.0,0.0,0.0,0.0,0.0,0.0,0.0,0.0,0.0,0.0,0.0,0.0,0.0,0.0,0.0,0.0,0.0,0.0,0.0,0.0,0.0,0.0,0.0,0.0,0.0,0.0,0.0,0.0,0.0,0.0,0.0,0.0,0.0,0.0,0.0,0.0,0.0,0.0,0.0,0.0,0.0,0.0,0.0,0.0,0.0,0.0,0.0,0.0,0.0,0.0,0.0,0.0,0.0,0.0,0.0,0.0,0.0,0.0,0.0,0.0,0.0,0.0,0.0,0.0,0.0,0.0,0.0,0.0,0.0,0.0,0.0,0.0,0.0,0.0,0.0,0.0,0.0,0.0,0.0,0.0,0.0,0.0,0.0,0.0,0.0,0.0,0.0,0.0,0.0,0.0,0.0,0.0,0.0,0.0,0.0,0.0,0.0,0.0,0.0,0.0,0.0,0.0,0.0,0.0,0.0,0.0,0.0,0.0,0.0,0.0,0.0,0.0,0.0,0.0,0.0,0.0,0.0,0.0,0.0,0.0,0.0,0.0,0.0,0.0,0.0,0.0,0.0,0.0,0.0,0.0,0.0,0.0,0.0,0.0,0.0,0.0,0.0,0.0,0.0,0.0,0.0,0.0,0.0,0.0,0.0,0.0,0.0,0.0,0.0,0.0,0.0,0.0,0.0,0.0,0.0,0.0,0.0,0.0,0.0,0.0,0.0,0.0,0.0,0.0,0.0,0.0,0.0,0.0,0.0,0.0,0.0,0.0,0.0,0.0,0.0,0.0,0.0,0.0,0.0,0.0,0.0,0.0,0.0,0.0,0.0,0.0,0.0,0.0,0.0,0.0,0.0,0.0,0.0,0.0,0.0,0.0,0.0,0.0,0.0,0.0,0.0,0.0,0.0,0.0,0.0,0.0,0.0,0.0,0.0,0.0,0.0,0.0,0.0,0.0,0.0,0.0,0.0,0.0,0.0,0.0,0.0,0.0,0.0,0.0,0.0,0.0,0.0,0.0,0.0,0.0,0.0,0.0,0.0,0.0,0.0,0.0,0.0,0.0,0.0,0.0,0.0,0.0,0.0,0.0,0.0,0.0,0.0,0.0,0.0,0.0,0.0,0.0,0.0,0.0,0.0,0.0,0.0,0.0,0.0,0.0,0.0,0.0,0.0,0.0,0.0,0.0,0.0,0.0,0.0,0.0,0.0,0.0,0.0,0.0,0.0,0.0,0.0,0.0,0.0,0.0,0.0,0.0,0.0,0.0,0.0,0.0,0.0,0.0,0.0,0.0,0.0,0.0,0.0,0.0,0.0,0.0,0.0,0.0,0.0,0.0,0.0,0.0,0.0,0.0,0.0,0.0,0.0,0.0,0.0,0.0,0.0,0.0,0.0,0.0,0.0,0.0,0.0,0.0,0.0,0.0,0.0,0.0,0.0,0.0,0.0,0.0,0.0,0.0,0.0,0.0,0.0,0.0,0.0,0.0,0.0,0.0,0.0,0.0,0.0,0.0,0.0,0.0,0.0,0.0,0.0,0.0,0.0,0.0,0.0,0.0,0.0,0.0,0.0,0.0,0.0,0.0,0.0,0.0,0.0,0.0,0.0,0.0,0.0,0.0,0.0,0.0,0.0,0.0,0.0,0.0,0.0,0.0,0.0,0.0,0.0,0.0,0.0,0.0,0.0,0.0,0.0,0.0,0.0,0.0,0.0,0.0,0.0,0.0,0.0,0.0,0.0,0.0,0.0,0.0,0.0,0.0,0.0,0.0,0.0,0.0,0.0,0.0,0.0,0.0,0.0,0.0,0.0,0.0,0.0,0.0,0.0,0.0,0.0,0.0,0.0,0.0,0.0,0.0,0.0,0.0,0.0,0.0,0.0,0.0,0.0,0.0,0.0,0.0,0.0,0.0,0.0,0.0,0.0,0.0,0.0,0.0,0.0,0.0,0.0,0.0,0.0,0.0,0.0,0.0,0.0,0.0,0.0,0.0,0.0,0.0,0.0,0.0,0.0,0.0,0.0,0.0,0.0,0.0,0.0,0.0,0.0,0.0,0.0,0.0,0.0,0.0,0.0,0.0,0.0,0.0,0.0,0.0,0.0,0.0,0.0,0.0,0.0,0.0,0.0,0.0,0.0,0.0,0.0,0.0,0.0,0.0,0.0,0.0,0.0,0.0,0.0,0.0,0.0,0.0,0.0,0.0,0.0,0.0,0.0,0.0,0.0,0.0,0.0,0.0,0.0,0.0,0.0,0.0,0.0,0.0,0.0,0.0,0.0,0.0,0.0,0.0,0.0,0.0,0.0,0.0,0.0,0.0,0.0,0.0,0.0,0.0,0.0,0.0,0.0,0.0,0.0,0.0,0.0,0.0,0.0,0.0,0.0,0.0,0.0,0.0,0.0,0.0,0.0,0.0,0.0,0.0,0.0,0.0,0.0,0.0,0.0,0.0,0.0,0.0,0.0,0.0,0.0,0.0,0.0,0.0,0.0,0.0,0.0,0.0,0.0,0.0,0.0,0.0,0.0,0.0,0.0,0.0,0.0,0.0,0.0,0.0,0.0,0.0,0.0,0.0,0.0,0.0,0.0,0.0,0.0,0.0,0.0,0.0,0.0,0.0,0.0,0.0,0.0,0.0,0.0,0.0,0.0,0.0,0.0,0.0,0.0,0.0,0.0,0.0,0.0,0.0,0.0,0.0,0.0,0.0,0.0,0.0,0.0,0.0,0.0,0.0,0.0,0.0,0.0,0.0,0.0,0.0,0.0,0.0,0.0,0.0,0.0,0.0,0.0,0.0,0.0,0.0,0.0,0.0,0.0,0.0,0.0,0.0,0.0,0.0,0.0,0.0,0.0,0.0,0.0,0.0,0.0,0.0,0.0,-1.644,0.0,0.0,0.0,0.0,0.0,0.0,0.0,0.0,0.0,0.0,0.0,0.0,0.0,0.0,0.0,0.0,0.0,0.0,0.0,0.0,0.0,0.0,0.0,0.0,0.0,0.0,0.0,0.0,0.0,0.0,0.0,0.0,0.0,0.0,0.0,0.0,0.0,0.0,0.0,0.0,0.0,0.0,0.0,0.0,0.0,0.0,0.0,0.0,0.0,0.0,0.0,0.0,0.0,0.0,0.0,0.0,0.0,0.0,0.0,0.0,0.0,0.0,0.0,0.0,0.0,0.0,0.0,0.0,0.0,0.0,0.0,0.0,0.0,0.0,0.0,0.0,0.0,0.0,0.0,0.0,0.0,0.0,0.0,0.0,0.0,0.0,0.0,0.0,0.0,0.0,0.0,0.0,0.0,0.0,0.0,0.0,0.0,0.0,0.0,0.0,0.0,0.0,0.0,0.0,0.0,0.0,0.0,0.0,0.0,0.0,-1.5045,-1.5697,-1.6553,-1.7271,-1.7777,0.0,0.0,0.0,0.0,0.0,0.0,0.0,0.0,0.0,0.0,0.0,0.0,0.0,0.0,0.0,0.0,0.0,0.0,0.0,0.0,0.0,0.0,0.0,0.0,0.0,0.0,0.0,0.0,0.0,0.0,0.0,0.0,0.0,0.0,0.0,0.0,0.0,0.0,0.0,0.0,0.0,0.0,0.0,0.0,0.0,0.0,0.0,0.0,0.0,0.0,0.0,0.0,0.0,0.0,0.0,0.0,0.0,0.0,0.0,0.0,0.0,0.0,0.0,0.0,0.0,0.0,0.0,0.0,0.0,0.0,0.0,0.0,0.0,0.0,0.0,0.0,0.0,0.0,0.0,0.0,0.0,0.0,0.0,0.0,0.0,0.0,0.0,0.0,0.0,0.0,0.0,0.0,0.0,0.0,0.0,0.0,0.0,0.0,0.0,0.0,0.0,0.0,0.0,0.0,0.0,0.0,0.0,0.0,0.0,0.0,0.0,0.0,-1.787,-1.8611,-1.9384,0.0,0.0,0.0,0.0,0.0,0.0,0.0,0.0,0.0,0.0,0.0,0.0,0.0,0.0,0.0,0.0,0.0,0.0,0.0,0.0,0.0,0.0,0.0,0.0,0.0,0.0,0.0,0.0,0.0,0.0,0.0,0.0,0.0,0.0,0.0,0.0,0.0,0.0,0.0,0.0,0.0,0.0,0.0,0.0,0.0,0.0,0.0,0.0,0.0,0.0,0.0,0.0,0.0,0.0,0.0,0.0,0.0,0.0,0.0,0.0,0.0,0.0,0.0,0.0,0.0,0.0,0.0,0.0,0.0,0.0,0.0,0.0,0.0,0.0,0.0,0.0,0.0,0.0,0.0,0.0,0.0,0.0,0.0,0.0,0.0,0.0,0.0,0.0,0.0,0.0,0.0,0.0,0.0,0.0,0.0,0.0,0.0,0.0,0.0,0.0,0.0,0.0,0.0,0.0,0.0,0.0,0.0,0.0,0.0,0.0,-1.8095,-1.8603,-1.9538,0.0,-2.1132,0.0,0.0,0.0,0.0,0.0,0.0,0.0,0.0,0.0,0.0,0.0,0.0,0.0,0.0,0.0,0.0,0.0,0.0,0.0,0.0,0.0,0.0,0.0,0.0,0.0,0.0,0.0,0.0,0.0,0.0,0.0,0.0,0.0,0.0,0.0,0.0,0.0,0.0,0.0,0.0,0.0,0.0,0.0,0.0,0.0,0.0,0.0,0.0,0.0,0.0,0.0,0.0,0.0,0.0,0.0,0.0,0.0,0.0,0.0,0.0,0.0,0.0,0.0,0.0,0.0,0.0,0.0,0.0,0.0,0.0,0.0,0.0,0.0,0.0,0.0,0.0,0.0,0.0,0.0,0.0,0.0,0.0,0.0,0.0,0.0,0.0,0.0,0.0,0.0,0.0,0.0,0.0,0.0,0.0,0.0,0.0,0.0,0.0,0.0,0.0,0.0,0.0,0.0,0.0,0.0,0.0,0.0,0.0,0.0,0.0,-1.9513,-2.0286,-2.1373,-2.205,0.0,0.0,0.0,0.0,0.0,0.0,0.0,0.0,0.0,0.0,0.0,0.0,0.0,0.0,0.0,0.0,0.0,0.0,0.0,0.0,0.0,0.0,0.0,0.0,0.0,0.0,0.0,0.0,0.0,0.0,0.0,0.0,0.0,0.0,0.0,0.0,0.0,0.0,0.0,0.0,0.0,0.0,0.0,0.0,0.0,0.0,0.0,0.0,0.0,0.0,0.0,0.0,0.0,0.0,0.0,0.0,0.0,0.0,0.0,0.0,0.0,0.0,0.0,0.0,0.0,0.0,0.0,0.0,0.0,0.0,0.0,0.0,0.0,0.0,0.0,0.0,0.0,0.0,0.0,0.0,0.0,0.0,0.0,0.0,0.0,0.0,0.0,0.0,0.0,0.0,0.0,0.0,0.0,0.0,0.0,0.0,0.0,0.0,0.0,0.0,0.0,0.0,0.0,0.0,0.0,0.0,0.0,0.0,0.0,0.0,-2.0059,-2.1096,-2.212,-2.3086,-2.3541,-2.3493,0.0,0.0,0.0,0.0,0.0,0.0,0.0,0.0,0.0,0.0,0.0,0.0,0.0,0.0,0.0,0.0,0.0,0.0,0.0,0.0,0.0,0.0,0.0,0.0,0.0,0.0,0.0,0.0,0.0,0.0,0.0,0.0,0.0,0.0,0.0,0.0,0.0,0.0,0.0,0.0,0.0,0.0,0.0,0.0,0.0,0.0,0.0,0.0,0.0,0.0,0.0,0.0,0.0,0.0,0.0,0.0,0.0,0.0,0.0,0.0,0.0,0.0,0.0,0.0,0.0,0.0,0.0,0.0,0.0,0.0,0.0,0.0,0.0,0.0,0.0,0.0,0.0,0.0,0.0,0.0,0.0,0.0,0.0,0.0,0.0,0.0,0.0,0.0,0.0,0.0,0.0,0.0,0.0,0.0,0.0,0.0,0.0,0.0,0.0,0.0,0.0,0.0,0.0,0.0,0.0,0.0,0.0,0.0,-2.0494,-2.1667,-2.2965,-2.4274,-2.4616,-2.484,0.0,0.0,0.0,0.0,0.0,0.0,0.0,0.0,0.0,0.0,0.0,0.0,0.0,0.0,0.0,0.0,0.0,0.0,0.0,0.0,0.0,0.0,0.0,0.0,0.0,0.0,0.0,0.0,0.0,0.0,0.0,0.0,0.0,0.0,0.0,0.0,0.0,0.0,0.0,0.0,0.0,0.0,0.0,0.0,0.0,0.0,0.0,0.0,0.0,0.0,0.0,0.0,0.0,0.0,0.0,0.0,0.0,0.0,0.0,0.0,0.0,0.0,0.0,0.0,0.0,0.0,0.0,0.0,0.0,0.0,0.0,0.0,0.0,0.0,0.0,0.0,0.0,0.0,0.0,0.0,0.0,0.0,0.0,0.0,0.0,0.0,0.0,0.0,0.0,0.0,0.0,0.0,0.0,0.0,0.0,0.0,0.0,0.0,0.0,0.0,0.0,0.0,0.0,0.0,0.0,0.0,0.0,0.0,0.0,-2.2366,-2.3856,-2.4988,-2.5726,-2.603,-2.6124,0.0,0.0,0.0,0.0,0.0,0.0,0.0,0.0,0.0,0.0,0.0,0.0,0.0,0.0,0.0,0.0,0.0,0.0,0.0,0.0,0.0,0.0,0.0,0.0,0.0,0.0,0.0,0.0,0.0,0.0,0.0,0.0,0.0,0.0,0.0,0.0,0.0,0.0,0.0,0.0,0.0,0.0,0.0,0.0,0.0,0.0,0.0,0.0,0.0,0.0,0.0,0.0,0.0,0.0,0.0,0.0,0.0,0.0,0.0,0.0,0.0,0.0,0.0,0.0,0.0,0.0,0.0,0.0,0.0,0.0,0.0,0.0,0.0,0.0,0.0,0.0,0.0,0.0,0.0,0.0,0.0,0.0,0.0,0.0,0.0,0.0,0.0,0.0,0.0,0.0,0.0,0.0,0.0,0.0,0.0,0.0,0.0,0.0,0.0,0.0,0.0,0.0,0.0,0.0,0.0,0.0,0.0,0.0,0.0,-2.4489,0.0,-2.6599,-2.7021,-2.729,-2.733,0.0,0.0,0.0,0.0,0.0,0.0,0.0,0.0,0.0,0.0,0.0,0.0,0.0,0.0,0.0,0.0,0.0,0.0,0.0,0.0,0.0,0.0,0.0,0.0,0.0,0.0,0.0,0.0,0.0,0.0,0.0,0.0,0.0,0.0,0.0,0.0,0.0,0.0,0.0,0.0,0.0,0.0,0.0,0.0,0.0,0.0,0.0,0.0,0.0,0.0,0.0,0.0,0.0,0.0,0.0,0.0,0.0,0.0,0.0,0.0,0.0,0.0,0.0,0.0,0.0,0.0,0.0,0.0,0.0,0.0,0.0,0.0,0.0,0.0,0.0,0.0,0.0,0.0,0.0,0.0,0.0,0.0,0.0,0.0,0.0,0.0,0.0,0.0,0.0,0.0,0.0,0.0,0.0,0.0,0.0,0.0,0.0,0.0,0.0,0.0,0.0,0.0,0.0,0.0,0.0,0.0,0.0,0.0,-2.4851,-2.6689,-2.7244,-2.7765,-2.8219,-2.8379,-2.851,0.0,0.0,0.0,0.0,0.0,0.0,0.0,0.0,0.0,0.0,0.0,0.0,0.0,0.0,0.0,0.0,0.0,0.0,0.0,0.0,0.0,0.0,0.0,0.0,0.0,0.0,0.0,0.0,0.0,0.0,0.0,0.0,0.0,0.0,0.0,0.0,0.0,0.0,0.0,0.0,0.0,0.0,0.0,0.0,0.0,0.0,0.0,0.0,0.0,0.0,0.0,0.0,0.0,0.0,0.0,0.0,0.0,0.0,0.0,0.0,0.0,0.0,0.0,0.0,0.0,0.0,0.0,0.0,0.0,0.0,0.0,0.0,0.0,0.0,0.0,0.0,0.0,0.0,0.0,0.0,0.0,0.0,0.0,0.0,0.0,0.0,0.0,0.0,0.0,0.0,0.0,0.0,0.0,0.0,0.0,0.0,0.0,0.0,0.0,0.0,0.0,0.0,0.0,0.0,0.0,0.0,0.0,0.0,0.0,-2.8171,-2.8581,-2.8937,-2.925,-2.9289,-2.9328,0.0,0.0,0.0,0.0,0.0,0.0,0.0,0.0,0.0,0.0,0.0,0.0,0.0,0.0,0.0,0.0,0.0,0.0,0.0,0.0,0.0,0.0,0.0,0.0,0.0,0.0,0.0,0.0,0.0,0.0,0.0,0.0,0.0,0.0,0.0,0.0,0.0,0.0,0.0,0.0,0.0,0.0,0.0,0.0,0.0,0.0,0.0,0.0,0.0,0.0,0.0,0.0,0.0,0.0,0.0,0.0,0.0,0.0,0.0,0.0,0.0,0.0,0.0,0.0,0.0,0.0,0.0,0.0,0.0,0.0,0.0,0.0,0.0,0.0,0.0,0.0,0.0,0.0,0.0,0.0,0.0,0.0,0.0,0.0,0.0,0.0,0.0,0.0,0.0,0.0,0.0,0.0,0.0,0.0,0.0,0.0,0.0,0.0,0.0,0.0,0.0,0.0,0.0,0.0,0.0,0.0,0.0,0.0,0.0,-2.9935,-2.9871,-2.9947,-3.019,-3.0177,-3.0139,-3.0075,0.0,0.0,0.0,0.0,0.0,0.0,0.0,0.0,0.0,0.0,0.0,0.0,0.0,0.0,0.0,0.0,0.0,0.0,0.0,0.0,0.0,0.0,0.0,0.0,0.0,0.0,0.0,0.0,0.0,0.0,0.0,0.0,0.0,0.0,0.0,0.0,0.0,0.0,0.0,0.0,0.0,0.0,0.0,0.0,0.0,0.0,0.0,0.0,0.0,0.0,0.0,0.0,0.0,0.0,0.0,0.0,0.0,0.0,0.0,0.0,0.0,0.0,0.0,0.0,0.0,0.0,0.0,0.0,0.0,0.0,0.0,0.0,0.0,0.0,0.0,0.0,0.0,0.0,0.0,0.0,0.0,0.0,0.0,0.0,0.0,0.0,0.0,0.0,0.0,0.0,0.0,0.0,0.0,0.0,0.0,0.0,0.0,0.0,0.0,0.0,0.0,0.0,0.0,0.0,0.0,0.0,0.0,0.0,-3.1836,-3.1145,-3.0859,-3.1061,-3.1061,-3.0986,0.0,0.0,0.0,0.0,0.0,0.0,0.0,0.0,0.0,0.0,0.0,0.0,0.0,0.0,0.0,0.0,0.0,0.0,0.0,0.0,0.0,0.0,0.0,0.0,0.0,0.0,0.0,0.0,0.0,0.0,0.0,0.0,0.0,0.0,0.0,0.0,0.0,0.0,0.0,0.0,0.0,0.0,0.0,0.0,0.0,0.0,0.0,0.0,0.0,0.0,0.0,0.0,0.0,0.0,0.0,0.0,0.0,0.0,0.0,0.0,0.0,0.0,0.0,0.0,0.0,0.0,0.0,0.0,0.0,0.0,0.0,0.0,0.0,0.0,0.0,0.0,0.0,0.0,0.0,0.0,0.0,0.0,0.0,0.0,0.0,0.0,0.0,0.0,0.0,0.0,0.0,0.0,0.0,0.0,0.0,0.0,0.0,0.0,0.0,0.0,0.0,0.0,0.0,0.0,0.0,0.0,0.0,0.0,0.0,-3.2668,-3.2605,-3.2367,-3.185,-3.1716,-3.1633,0.0,0.0,0.0,0.0,0.0,0.0,0.0,0.0,0.0,0.0,0.0,0.0,0.0,0.0,0.0,0.0,0.0,0.0,0.0,0.0,0.0,0.0,0.0,0.0,0.0,0.0,0.0,0.0,0.0,0.0,0.0,0.0,0.0,0.0,0.0,0.0,0.0,0.0,0.0,0.0,0.0,0.0,0.0,0.0,0.0,0.0,0.0,0.0,0.0,0.0,0.0,0.0,0.0,0.0,0.0,0.0,0.0,0.0,0.0,0.0,0.0,0.0,0.0,0.0,0.0,0.0,0.0,0.0,0.0,0.0,0.0,0.0,0.0,0.0,0.0,0.0,0.0,0.0,0.0,0.0,0.0,0.0,0.0,0.0,0.0,0.0,0.0,0.0,0.0,0.0,0.0,0.0,0.0,0.0,0.0,0.0,0.0,0.0,0.0,0.0,0.0,0.0,0.0,0.0,0.0,0.0,0.0,0.0,-3.3395,-3.3597,-3.3701,-3.3479,-3.2952,-3.2574,-3.23,0.0,0.0,0.0,0.0,0.0,0.0,0.0,0.0,0.0,0.0,0.0,0.0,0.0,0.0,0.0,0.0,0.0,0.0,0.0,0.0,0.0,0.0,0.0,0.0,0.0,0.0,0.0,0.0,0.0,0.0,0.0,0.0,0.0,0.0,0.0,0.0,0.0,0.0,0.0,0.0,0.0,0.0,0.0,0.0,0.0,0.0,0.0,0.0,0.0,0.0,0.0,0.0,0.0,0.0,0.0,0.0,0.0,0.0,0.0,0.0,0.0,0.0,0.0,0.0,0.0,0.0,0.0,0.0,0.0,0.0,0.0,0.0,0.0,0.0,0.0,0.0,0.0,0.0,0.0,0.0,0.0,0.0,0.0,0.0,0.0,0.0,0.0,0.0,0.0,0.0,0.0,0.0,0.0,0.0,0.0,0.0,0.0,0.0,0.0,0.0,0.0,0.0,0.0,0.0,0.0,0.0,0.0,0.0,-3.4303,-3.4501,-3.4467,-3.4399,-3.4196,-3.3479,-3.2881,0.0,0.0,0.0,0.0,0.0,0.0,0.0,0.0,0.0,0.0,0.0,0.0,0.0,0.0,0.0,0.0,0.0,0.0,0.0,0.0,0.0,0.0,0.0,0.0,0.0,0.0,0.0,0.0,0.0,0.0,0.0,0.0,0.0,0.0,0.0,0.0,0.0,0.0,0.0,0.0,0.0,0.0,0.0,0.0,0.0,0.0,0.0,0.0,0.0,0.0,0.0,0.0,0.0,0.0,0.0,0.0,0.0,0.0,0.0,0.0,0.0,0.0,0.0,0.0,0.0,0.0,0.0,0.0,0.0,0.0,0.0,0.0,0.0,0.0,0.0,0.0,0.0,0.0,0.0,0.0,0.0,0.0,0.0,0.0,0.0,0.0,0.0,0.0,0.0,0.0,0.0,0.0,0.0,0.0,0.0,0.0,0.0,0.0,0.0,0.0,0.0,0.0,0.0,0.0,0.0,0.0,0.0,0.0,-3.5055,-3.5187,-3.51,-3.5016,-3.4949,-3.4113,-3.3472,0.0,0.0,0.0,0.0,0.0,0.0,0.0,0.0,0.0,0.0,0.0,0.0,0.0,0.0,0.0,0.0,0.0,0.0,0.0,0.0,0.0,0.0,0.0,0.0,0.0,0.0,0.0,0.0,0.0,0.0,0.0,0.0,0.0,0.0,0.0,0.0,0.0,0.0,0.0,0.0,0.0,0.0,0.0,0.0,0.0,0.0,0.0,0.0,-3.1024,0.0,0.0,0.0,0.0,0.0,0.0,0.0,0.0,0.0,0.0,0.0,0.0,0.0,0.0,0.0,0.0,0.0,0.0,0.0,0.0,0.0,0.0,0.0,0.0,0.0,0.0,0.0,0.0,0.0,0.0,0.0,0.0,0.0,0.0,0.0,0.0,0.0,0.0,0.0,0.0,0.0,0.0,0.0,0.0,0.0,0.0,0.0,0.0,0.0,0.0,0.0,0.0,0.0,0.0,0.0,0.0,0.0,0.0,0.0,-3.5591,-3.5688,-3.5621,-3.5507,-3.5326,-3.485,-3.4264,0.0,0.0,0.0,0.0,0.0,0.0,0.0,0.0,0.0,0.0,0.0,0.0,0.0,0.0,0.0,0.0,0.0,0.0,0.0,0.0,0.0,0.0,0.0,0.0,0.0,0.0,0.0,0.0,0.0,0.0,0.0,0.0,0.0,0.0,0.0,0.0,0.0,0.0,0.0,0.0,0.0,0.0,0.0,0.0,0.0,0.0,0.0,0.0,0.0,0.0,0.0,0.0,0.0,0.0,0.0,0.0,0.0,0.0,0.0,0.0,0.0,0.0,0.0,0.0,0.0,0.0,0.0,0.0,0.0,0.0,0.0,0.0,0.0,0.0,0.0,0.0,0.0,0.0,0.0,0.0,0.0,0.0,0.0,0.0,0.0,0.0,0.0,0.0,0.0,0.0,0.0,0.0,0.0,0.0,0.0,0.0,0.0,0.0,0.0,0.0,0.0,0.0,0.0,0.0,0.0,0.0,0.0,-3.6037,-3.6132,-3.6147,-3.6115,-3.5957,-3.5666,-3.5569,-3.5016,-3.4011,0.0,0.0,0.0,0.0,0.0,0.0,0.0,0.0,0.0,0.0,0.0,0.0,0.0,0.0,0.0,0.0,0.0,0.0,0.0,0.0,0.0,0.0,0.0,0.0,0.0,0.0,0.0,0.0,0.0,0.0,0.0,0.0,0.0,0.0,0.0,0.0,0.0,0.0,-3.2925,-3.2583,0.0,0.0,0.0,0.0,0.0,0.0,0.0,0.0,-3.0228,0.0,0.0,0.0,0.0,0.0,0.0,0.0,0.0,0.0,0.0,0.0,0.0,0.0,0.0,0.0,0.0,0.0,0.0,0.0,0.0,0.0,0.0,0.0,0.0,0.0,0.0,0.0,0.0,0.0,0.0,0.0,0.0,0.0,0.0,0.0,0.0,0.0,0.0,0.0,0.0,0.0,0.0,0.0,0.0,0.0,0.0,0.0,0.0,0.0,0.0,0.0,0.0,0.0,0.0,0.0,0.0,-3.6352,-3.6677,-3.6847,-3.6831,-3.6554,-3.6398,-3.6336,-3.5795,-3.5246,-3.4721,0.0,0.0,0.0,0.0,0.0,0.0,0.0,0.0,0.0,0.0,0.0,0.0,0.0,0.0,0.0,0.0,0.0,0.0,0.0,0.0,0.0,0.0,0.0,0.0,0.0,0.0,0.0,0.0,0.0,0.0,0.0,0.0,0.0,0.0,0.0,0.0,0.0,0.0,0.0,-3.2444,-3.2169,0.0,0.0,0.0,0.0,0.0,0.0,0.0,0.0,-2.9856,0.0,0.0,0.0,0.0,0.0,0.0,0.0,0.0,0.0,0.0,0.0,0.0,0.0,0.0,0.0,0.0,0.0,0.0,0.0,0.0,0.0,0.0,0.0,0.0,0.0,0.0,0.0,0.0,0.0,0.0,0.0,0.0,0.0,0.0,0.0,0.0,0.0,0.0,0.0,0.0,0.0,0.0,0.0,0.0,0.0,0.0,0.0,0.0,0.0,0.0,0.0,0.0,0.0,0.0,0.0,-3.66,-3.6877,-3.6999,-3.6969,-3.6739,-3.6569,-3.6492,-3.602,-3.5572,0.0,0.0,0.0,0.0,0.0,0.0,0.0,0.0,0.0,0.0,0.0,0.0,0.0,0.0,0.0,0.0,0.0,0.0,0.0,0.0,0.0,0.0,0.0,0.0,0.0,0.0,0.0,0.0,0.0,0.0,0.0,0.0,0.0,0.0,0.0,0.0,0.0,0.0,0.0,0.0,-3.2286,-3.1963,-3.1793,0.0,0.0,0.0,0.0,0.0,0.0,-3.0011,-2.9779,0.0,0.0,0.0,0.0,0.0,0.0,0.0,0.0,0.0,0.0,0.0,0.0,0.0,0.0,0.0,0.0,0.0,0.0,0.0,0.0,0.0,0.0,0.0,0.0,0.0,0.0,0.0,0.0,0.0,0.0,0.0,0.0,0.0,0.0,0.0,0.0,0.0,0.0,0.0,0.0,0.0,0.0,0.0,0.0,0.0,0.0,0.0,0.0,0.0,0.0,0.0,0.0,0.0,0.0,0.0,-3.677,-3.6999,-3.709,-3.709,-3.6892,-3.6708,-3.6585,-3.621,-3.5861,0.0,0.0,0.0,0.0,0.0,0.0,0.0,0.0,0.0,0.0,0.0,0.0,0.0,0.0,0.0,0.0,0.0,0.0,0.0,0.0,0.0,0.0,0.0,0.0,0.0,0.0,0.0,0.0,0.0,0.0,0.0,0.0,0.0,0.0,0.0,0.0,0.0,0.0,0.0,0.0,0.0,-3.178,-3.1559,-3.1323,0.0,0.0,0.0,0.0,-3.0152,-2.9946,0.0,0.0,0.0,0.0,0.0,0.0,0.0,0.0,0.0,0.0,0.0,0.0,0.0,0.0,0.0,0.0,0.0,0.0,0.0,0.0,0.0,0.0,0.0,0.0,0.0,0.0,0.0,0.0,0.0,0.0,0.0,0.0,0.0,0.0,0.0,0.0,0.0,0.0,0.0,0.0,0.0,0.0,0.0,0.0,0.0,0.0,0.0,0.0,0.0,0.0,0.0,0.0,0.0,0.0,0.0,0.0,-3.6969,-3.7271,-3.745,-3.7421,-3.7105,-3.6969,-3.6938,-3.6336,-3.591,0.0,0.0,0.0,0.0,0.0,0.0,0.0,0.0,0.0,0.0,0.0,0.0,0.0,0.0,0.0,0.0,0.0,0.0,0.0,0.0,0.0,0.0,0.0,0.0,0.0,0.0,0.0,0.0,0.0,0.0,0.0,0.0,0.0,0.0,0.0,0.0,0.0,0.0,0.0,0.0,0.0,-3.1559,-3.1347,-3.1037,-3.0799,0.0,0.0,-3.0164,-3.019,-2.9959,0.0,0.0,0.0,0.0,0.0,0.0,0.0,0.0,0.0,0.0,0.0,0.0,0.0,0.0,0.0,0.0,0.0,0.0,0.0,0.0,0.0,0.0,0.0,0.0,0.0,0.0,0.0,0.0,0.0,0.0,0.0,0.0,0.0,0.0,0.0,0.0,0.0,0.0,0.0,0.0,0.0,0.0,0.0,0.0,0.0,0.0,0.0,0.0,0.0,0.0,0.0,0.0,0.0,0.0,0.0,-3.6908,-3.6999,-3.7331,-3.7435,-3.7329,-3.7121,-3.6938,-3.6831,-3.6289,-3.5973,0.0,0.0,0.0,0.0,0.0,0.0,0.0,0.0,0.0,0.0,0.0,0.0,0.0,0.0,0.0,0.0,0.0,0.0,0.0,0.0,0.0,0.0,0.0,0.0,0.0,0.0,0.0,0.0,0.0,0.0,0.0,0.0,0.0,0.0,0.0,0.0,0.0,0.0,0.0,0.0,0.0,0.0,-3.1161,-3.0798,0.0,0.0,0.0,-3.0049,-2.9997,0.0,0.0,0.0,0.0,0.0,0.0,0.0,0.0,0.0,0.0,0.0,0.0,0.0,0.0,0.0,0.0,0.0,0.0,0.0,0.0,0.0,0.0,0.0,0.0,0.0,0.0,0.0,0.0,0.0,0.0,0.0,0.0,0.0,0.0,0.0,0.0,0.0,0.0,0.0,0.0,0.0,0.0,0.0,0.0,0.0,0.0,0.0,0.0,0.0,0.0,0.0,0.0,0.0,0.0,0.0,0.0,0.0,-3.6938,-3.7211,-3.727,-3.715,-3.7014,-3.6831,-3.6662,-3.6226,0.0,0.0,0.0,0.0,0.0,0.0,0.0,0.0,0.0,0.0,0.0,0.0,0.0,0.0,0.0,0.0,0.0,0.0,0.0,0.0,0.0,0.0,0.0,0.0,0.0,0.0,0.0,-3.1078,0.0,0.0,0.0,0.0,0.0,0.0,0.0,0.0,0.0,0.0,0.0,0.0,0.0,0.0,-3.1123,-3.0861,-3.0558,-3.0267,0.0,0.0,-2.9972,-2.983,-2.9779,-2.9779,0.0,0.0,0.0,0.0,0.0,0.0,0.0,0.0,0.0,0.0,0.0,0.0,0.0,0.0,0.0,0.0,0.0,0.0,0.0,0.0,0.0,0.0,0.0,0.0,0.0,0.0,0.0,0.0,0.0,0.0,0.0,0.0,0.0,0.0,0.0,0.0,0.0,0.0,0.0,0.0,0.0,0.0,0.0,0.0,0.0,0.0,0.0,0.0,0.0,0.0,0.0,0.0,0.0,0.0,-3.6723,-3.6723,-3.6938,-3.703,-3.6999,-3.6831,-3.6662,-3.6523,-3.6163,-3.5894,0.0,0.0,0.0,0.0,0.0,0.0,0.0,0.0,0.0,0.0,0.0,0.0,0.0,0.0,0.0,0.0,0.0,0.0,0.0,0.0,0.0,0.0,0.0,0.0,0.0,0.0,0.0,0.0,0.0,0.0,0.0,0.0,0.0,0.0,0.0,0.0,0.0,0.0,0.0,0.0,0.0,-3.0861,-3.0482,-3.0267,-3.0126,0.0,0.0,-2.983,-2.9792,-2.9779,-2.9779,-2.9779,0.0,0.0,0.0,0.0,0.0,0.0,0.0,0.0,0.0,0.0,0.0,0.0,0.0,0.0,0.0,0.0,0.0,0.0,0.0,0.0,0.0,0.0,0.0,0.0,0.0,0.0,0.0,0.0,0.0,0.0,0.0,0.0,0.0,0.0,0.0,0.0,0.0,0.0,0.0,0.0,0.0,0.0,0.0,0.0,0.0,0.0,0.0,0.0,0.0,0.0,0.0,0.0,0.0,-3.6723,-3.6723,-3.6892,-3.6954,-3.6831,-3.6739,-3.66,-3.6305,-3.61,-3.5878,0.0,0.0,0.0,0.0,0.0,0.0,0.0,0.0,0.0,0.0,0.0,0.0,0.0,0.0,0.0,0.0,0.0,0.0,0.0,0.0,0.0,0.0,0.0,0.0,0.0,0.0,0.0,0.0,-3.2241,-3.23,-3.2381,0.0,0.0,0.0,0.0,0.0,0.0,0.0,0.0,0.0,0.0,-3.0279,-3.0037,-2.9728,0.0,0.0,-2.965,-2.9599,-2.9753,-2.9779,-2.974,-2.956,-2.9548,0.0,0.0,0.0,0.0,0.0,0.0,0.0,0.0,0.0,0.0,0.0,0.0,0.0,0.0,0.0,0.0,0.0,0.0,0.0,0.0,0.0,0.0,0.0,0.0,0.0,0.0,0.0,0.0,0.0,0.0,0.0,0.0,0.0,0.0,0.0,0.0,0.0,0.0,0.0,0.0,0.0,0.0,0.0,0.0,0.0,0.0,0.0,0.0,0.0,0.0,0.0,0.0,-3.66,-3.6647,-3.677,-3.6785,-3.6647,-3.6569,-3.643,-3.6148,-3.5941,-3.5701,0.0,0.0,0.0,0.0,0.0,0.0,0.0,0.0,0.0,0.0,0.0,0.0,0.0,0.0,0.0,0.0,0.0,0.0,0.0,0.0,0.0,0.0,0.0,0.0,0.0,0.0,0.0,0.0,-3.2205,-3.2241,-3.2381,0.0,0.0,0.0,0.0,0.0,0.0,0.0,0.0,0.0,0.0,-2.987,-2.9624,-2.9312,-2.9131,-2.9314,-2.9302,-2.9353,-2.9585,-2.9585,-2.9546,-2.9353,0.0,0.0,0.0,0.0,0.0,0.0,0.0,0.0,0.0,0.0,0.0,0.0,0.0,0.0,0.0,0.0,0.0,0.0,0.0,0.0,0.0,0.0,0.0,0.0,0.0,0.0,0.0,0.0,0.0,0.0,-3.1609,0.0,0.0,0.0,0.0,0.0,0.0,0.0,0.0,0.0,0.0,0.0,0.0,0.0,0.0,0.0,0.0,0.0,0.0,0.0,0.0,0.0,0.0,-3.6305,-3.6492,-3.6523,-3.6523,-3.6492,-3.632,-3.6148,-3.6005,-3.5683,-3.5439,-3.5195,0.0,0.0,0.0,0.0,0.0,0.0,0.0,0.0,0.0,0.0,0.0,0.0,0.0,0.0,0.0,0.0,0.0,0.0,0.0,0.0,0.0,0.0,0.0,0.0,0.0,0.0,-3.2205,-3.2205,-3.2241,0.0,0.0,0.0,0.0,0.0,0.0,0.0,0.0,0.0,0.0,-3.0088,-2.9624,-2.9182,-2.9091,-2.9091,-2.9091,-2.9091,-2.9131,-2.9131,-2.9143,-2.9143,0.0,0.0,0.0,0.0,0.0,0.0,0.0,0.0,0.0,0.0,0.0,0.0,0.0,0.0,0.0,0.0,0.0,0.0,0.0,0.0,0.0,0.0,0.0,0.0,0.0,0.0,0.0,-3.2155,-3.1927,0.0,0.0,0.0,0.0,0.0,0.0,0.0,0.0,0.0,0.0,0.0,-3.2205,-3.2205,0.0,0.0,0.0,0.0,0.0,0.0,0.0,0.0,0.0,0.0,0.0,0.0,-3.6242,-3.6305,-3.6429,-3.6492,-3.6492,-3.6305,-3.6148,-3.6005,-3.5683,-3.5228,-3.4683,0.0,0.0,0.0,0.0,0.0,0.0,0.0,0.0,0.0,0.0,0.0,0.0,0.0,0.0,0.0,0.0,0.0,0.0,0.0,0.0,0.0,0.0,0.0,0.0,0.0,-3.2205,0.0,0.0,0.0,0.0,0.0,0.0,0.0,0.0,0.0,0.0,0.0,-3.0622,-3.0088,-2.9611,-2.9182,-2.8776,-2.8578,-2.8538,0.0,0.0,0.0,0.0,0.0,0.0,0.0,0.0,0.0,0.0,0.0,0.0,0.0,0.0,-2.6302,-2.6146,-2.577,-2.5295,-2.4743,0.0,0.0,0.0,0.0,0.0,0.0,0.0,0.0,0.0,0.0,0.0,0.0,0.0,0.0,-3.2395,0.0,-3.2191,0.0,0.0,0.0,0.0,0.0,0.0,0.0,0.0,-3.2205,-3.2205,-3.2205,-3.2205,-3.2205,0.0,-3.2205,-3.2372,0.0,0.0,0.0,0.0,0.0,0.0,0.0,0.0,-3.6085,-3.6196,-3.6305,-3.6414,-3.6383,-3.6211,-3.6053,-3.5894,-3.5507,-3.4964,-3.4244,-3.402,-3.3779,0.0,0.0,0.0,0.0,0.0,0.0,0.0,0.0,0.0,0.0,0.0,0.0,0.0,0.0,0.0,0.0,0.0,0.0,0.0,0.0,0.0,0.0,0.0,-3.2205,0.0,0.0,0.0,0.0,0.0,0.0,0.0,0.0,0.0,-3.1024,-3.0723,-3.0279,-2.9728,-2.9209,-2.8788,-2.8471,0.0,0.0,0.0,0.0,0.0,0.0,0.0,-2.8522,-2.8323,-2.8127,-2.7914,-2.7708,-2.7319,-2.7033,-2.6869,0.0,0.0,-2.5895,-2.538,-2.4828,-2.4444,-2.3937,-2.344,-2.3057,-2.2618,-2.2274,0.0,0.0,0.0,0.0,0.0,0.0,0.0,0.0,-3.3108,-3.2775,0.0,-3.2417,0.0,0.0,0.0,0.0,0.0,0.0,0.0,0.0,-3.2205,-3.2205,-3.2205,-3.2205,-3.2205,-3.2205,-3.2205,-3.2372,-3.2704,-3.2917,0.0,0.0,0.0,0.0,0.0,0.0,-3.5847,-3.6164,-3.6211,-3.6211,-3.6211,-3.6053,-3.5894,-3.5655,-3.5169,-3.4601,-3.3965,-3.3896,-3.3709,-3.3312,-3.3108,0.0,0.0,0.0,0.0,0.0,0.0,0.0,0.0,0.0,0.0,0.0,0.0,0.0,0.0,0.0,0.0,0.0,0.0,0.0,0.0,-3.2205,0.0,0.0,0.0,0.0,0.0,0.0,0.0,0.0,0.0,0.0,-3.0973,-3.0457,-2.9908,-2.9457,0.0,0.0,0.0,0.0,-2.7893,-2.7893,-2.7881,-2.7881,-2.7921,-2.8009,-2.802,-2.7893,0.0,0.0,-2.7255,-2.7003,-2.6738,-2.6271,-2.6021,-2.5864,-2.5812,-2.5094,-2.4411,-2.4163,-2.358,-2.3047,-2.2803,-2.2407,-2.2097,-3.7151,0.0,0.0,0.0,0.0,-3.4735,-3.4128,-3.3493,-3.3297,-3.3002,-3.2632,-3.2618,0.0,0.0,0.0,0.0,0.0,0.0,-3.2453,-3.2359,-3.2359,-3.23,-3.2205,-3.2205,-3.2205,-3.2205,-3.2205,-3.2372,-3.2704,-3.2775,-3.3164,-3.3951,0.0,0.0,0.0,0.0,-3.5816,-3.6022,-3.6148,-3.6211,-3.6211,-3.6068,-3.5703,-3.5136,-3.4986,-3.4568,-3.3931,-3.3896,-3.3709,-3.3312,-3.3241,0.0,0.0,0.0,0.0,0.0,0.0,0.0,0.0,0.0,0.0,0.0,0.0,0.0,0.0,0.0,0.0,0.0,0.0,0.0,-3.2205,-3.2205,-3.2205,0.0,0.0,0.0,0.0,0.0,0.0,0.0,0.0,0.0,-3.0596,-3.0305,-2.9831,0.0,0.0,-2.8299,-2.7765,-2.7644,-2.7615,-2.7615,0.0,0.0,0.0,-2.776,-2.7667,-2.7615,-2.7319,-2.7074,-2.7003,-2.6644,-2.6324,-2.6021,-2.5749,-2.5412,-2.4967,-2.4583,-2.411,-2.3537,-2.3144,-2.275,-2.2407,-2.2185,-2.2052,-3.8195,-3.781,-3.6816,-3.6101,-3.5623,-3.5118,-3.4534,-3.3908,-3.3681,-3.3368,-3.2945,-3.2931,-3.286,-3.269,-3.269,0.0,0.0,0.0,-3.2632,-3.2525,-3.2453,-3.2345,-3.2264,-3.2205,-3.2205,-3.2205,-3.2277,-3.2444,-3.2704,-3.286,-3.3262,-3.3882,0.0,0.0,-3.4902,-3.5394,-3.575,-3.5973,-3.6085,-3.6148,-3.6211,-3.599,-3.5574,-3.4935,-3.4902,-3.4601,-3.402,-3.3931,-3.3758,-3.3431,-3.3375,-3.3192,0.0,0.0,0.0,0.0,0.0,0.0,0.0,0.0,0.0,0.0,0.0,-3.1802,-3.2178,0.0,0.0,0.0,-3.2205,-3.2205,-3.2205,-3.2205,0.0,0.0,0.0,0.0,0.0,0.0,0.0,-3.131,-3.1061,-3.0761,-3.0444,-3.0062,-2.956,-2.887,-2.851,-2.807,-2.7551,0.0,-2.7371,-2.7412,-2.7371,-2.7423,-2.7598,-2.7505,-2.7319,-2.7237,-2.7003,-2.6727,-2.6603,-2.6396,-2.6104,-2.5822,-2.5581,-2.5168,-2.4497,-2.4143,-2.3787,-2.3222,-2.2838,-2.2539,-2.2141,-2.2008,-2.1874,-3.9597,-3.9188,-3.7592,-3.6645,-3.6157,-3.5627,-3.5115,-3.4593,-3.4374,-3.4011,-3.3537,-3.3501,-3.3311,-3.2913,-3.2927,0.0,0.0,-3.2878,-3.2905,-3.2891,-3.2621,-3.2521,-3.2485,-3.2327,-3.2241,-3.2241,-3.2359,-3.2525,-3.2739,-3.3122,-3.3515,-3.3896,-3.4244,-3.4568,-3.4902,-3.5326,-3.5668,-3.5973,-3.6005,-3.6053,-3.6211,-3.5879,-3.5462,-3.4968,-3.4935,-3.4668,-3.4147,-3.3985,-3.3793,-3.3605,-3.3396,-3.3206,-3.3023,0.0,0.0,0.0,0.0,0.0,0.0,0.0,0.0,0.0,0.0,0.0,0.0,0.0,0.0,-3.2205,-3.2205,0.0,-3.2205,-3.2205,0.0,0.0,0.0,-3.1817,-3.1609,-3.1397,-3.1272,-3.1272,0.0,0.0,-3.0368,0.0,-2.9223,-2.8791,-2.8271,-2.78,-2.7522,-2.733,-2.719,-2.7231,-2.719,-2.719,-2.7219,-2.7219,-2.7097,-2.6828,-2.6674,-2.6479,-2.6271,-2.6146,-2.599,-2.5644,-2.5454,-2.5115,-2.4325,-2.3854,-2.3487,-2.3135,-2.2696,-2.2353,-2.2097,-2.1874,-2.1741,-3.9659,-3.9408,-3.8905,-3.837,-3.787,-3.7313,-3.6907,-3.6492,-3.5991,-3.5653,-3.5432,-3.5275,-3.508,-3.4812,-3.4848,-3.4753,-3.4593,-3.4593,-3.4519,-3.4344,-3.3798,-3.3481,-3.3371,-3.283,-3.2574,-3.2561,-3.2596,-3.2739,-3.2917,-3.3192,-3.3515,-3.3896,-3.4395,-3.4716,-3.4935,-3.5412,-3.5767,-3.602,-3.6085,-3.6179,-3.6211,-3.5894,-3.5606,-3.5359,-3.5082,-3.4702,-3.4346,-3.4054,-3.3813,-3.3619,-3.3396,-3.3276,-3.3241,-3.3108,0.0,0.0,0.0,0.0,0.0,0.0,0.0,0.0,0.0,-3.2205,-3.2205,0.0,-3.2205,0.0,-3.2205,-3.2205,-3.2205,-3.2205,0.0,0.0,-3.1743,-3.1596,-3.1397,-3.1211,-3.1024,-3.0849,-3.0609,-3.0343,-2.9972,-2.9495,-2.8961,-2.8419,-2.807,-2.7771,-2.7342,-2.7219,-2.719,-2.719,-2.719,-2.719,-2.719,-2.7056,-2.6891,-2.6674,-2.6437,-2.6282,-2.6199,-2.5948,-2.5644,-2.538,-2.5179,-2.4807,-2.4057,-2.3724,-2.3323,-2.274,-2.2485,-2.2255,-2.1874,-2.1741,-2.1687,-4.0706,-4.0547,-4.0419,-4.0096,-3.9656,-3.8542,-3.7793,-3.7312,-3.6985,-3.6635,-3.6315,-3.6043,-3.5826,-3.5644,-3.5644,-3.5571,-3.5461,-3.5373,-3.5263,-3.5124,-3.4589,-3.4302,-3.4215,-3.3495,-3.3118,-3.314,-3.2949,-3.2917,-3.3143,-3.3417,-3.3744,-3.4122,-3.4582,-3.4916,-3.518,-3.5509,-3.5816,-3.61,-3.6242,-3.6274,-3.6196,-3.6006,-3.5799,-3.5604,-3.5311,-3.5016,-3.4635,-3.4278,-3.4034,-3.3744,-3.3536,-3.3396,-3.3276,-3.3192,-3.3157,0.0,0.0,0.0,0.0,0.0,0.0,0.0,0.0,0.0,0.0,0.0,-3.2205,-3.2205,-3.2205,-3.2205,-3.2205,-3.2205,-3.2109,-3.1817,-3.1669,-3.1485,-3.1198,-3.1061,-3.0911,-3.0736,-3.0533,-3.0254,-2.9869,-2.9378,-2.8895,-2.8299,-2.803,-2.7719,-2.7313,-2.719,-2.719,-2.719,-2.719,-2.7149,-2.7097,-2.682,-2.6561,-2.6437,-2.6229,-2.6074,-2.6074,-2.5822,-2.5517,-2.5253,-2.4956,-2.4583,-2.3927,-2.3541,-2.3129,-2.2599,-2.2397,-2.222,-2.1776,-2.1687,-2.1687,-4.2045,-4.1898,-4.167,-4.1489,-4.1162,-3.9548,-3.8473,-3.7876,-3.7822,-3.7446,-3.6925,-3.6598,-3.6324,-3.6106,-3.6106,-3.6055,-3.6047,-3.5849,-3.5762,-3.5762,-3.5307,-3.5116,-3.5064,-3.4316,-3.3951,-3.3923,-3.3455,-3.3304,-3.3494,-3.3787,-3.4088,-3.4414,-3.4735,-3.5115,-3.5537,-3.5653,-3.5879,-3.6242,-3.6414,-3.6414,-3.6242,-3.6211,-3.607,-3.5752,-3.5572,-3.5326,-3.4935,-3.4582,-3.4244,-3.3985,-3.3758,-3.3536,-3.3361,-3.3312,-3.3276,0.0,-3.3122,0.0,0.0,0.0,0.0,0.0,0.0,0.0,0.0,-3.2205,-3.2205,-3.2205,-3.2205,-3.2205,-3.2205,-3.2205,-3.2036,-3.1633,-3.1609,-3.1447,-3.1061,-3.0986,-3.0874,-3.0685,-3.0457,-3.019,-2.974,-2.9339,-2.8855,-2.8259,-2.8002,-2.7719,-2.7313,-2.719,-2.719,-2.719,-2.719,-2.7138,-2.6891,-2.652,-2.6282,-2.6199,-2.6032,-2.5906,-2.5906,-2.5686,-2.5475,-2.52,-2.4786,-2.4325,-2.3884,-2.3454,-2.2999,-2.252,-2.2397,-2.2264,-2.182,-2.1687,-2.1687,-4.2045,-4.1866,-4.1703,-4.1489,-4.1274,-4.0908,-4.0479,-3.9914,-3.9496,-3.902,-3.861,-3.8406,-3.8084,-3.7779,-3.7728,-3.7555,-3.7268,-3.723,-3.7192,-3.7163,-3.6641,-3.6287,-3.608,-3.5464,-3.5167,-3.5125,-3.4532,-3.4342,-3.4526,-3.42,-3.4176,-3.4414,-3.4735,-3.5151,-3.5638,0.0,0.0,0.0,-3.646,-3.6492,-3.646,-3.6274,-3.6116,-3.5941,-3.5651,0.0,-3.5148,-3.4683,-3.438,-3.4293,-3.3848,0.0,0.0,0.0,0.0,0.0,0.0,0.0,0.0,0.0,0.0,0.0,-3.2277,-3.2205,-3.2205,-3.2205,-3.2205,-3.2205,-3.2205,-3.2205,-3.2205,-3.2205,-3.2036,-3.1633,-3.1609,-3.1447,-3.1061,-3.0849,-3.0698,-3.0482,-3.0113,-2.974,-2.9339,-2.9,-2.8657,-2.807,-2.7921,-2.7719,-2.7283,-2.719,-2.719,-2.719,-2.719,-2.7056,-2.6685,-2.6573,-2.6354,-2.6063,-2.5937,-2.5895,-2.5895,-2.5549,-2.5285,-2.52,-2.47,-2.4153,-2.3841,-2.3614,-2.3169,-2.253,-2.2397,-2.2264,-2.182,-2.1687,-2.1687,-4.2158,0.0,-4.1817,-4.1637,0.0,-4.1341,-4.1156,-4.0851,-4.0316,-3.9824,-3.9394,-3.9177,-3.8943,-3.8664,-3.8523,-3.8389,-3.8202,-3.7991,-3.7901,-3.7863,-3.7372,-3.7101,-3.6973,-3.6399,-3.61,-3.6086,-3.5437,-3.5096,-3.5099,-3.4851,-3.4753,-3.4783,-3.5049,-3.5394,-3.5831,-3.6132,-3.6336,-3.6492,-3.6492,-3.6492,-3.6492,-3.6414,-3.632,-3.6226,0.0,0.0,0.0,0.0,0.0,0.0,0.0,0.0,0.0,0.0,0.0,-3.3276,-3.3206,-3.3108,-3.2988,-3.2739,-3.2525,-3.2417,-3.2264,-3.2205,-3.2205,-3.2205,-3.2205,-3.2205,-3.2205,-3.2205,-3.2205,-3.2205,-3.205,-3.1646,-3.1609,-3.1447,-3.1061,-3.0811,-3.0609,-3.0406,-3.0037,-2.9624,-2.9131,-2.8803,-2.8471,-2.7973,-2.7788,-2.7586,-2.7272,-2.719,-2.719,-2.719,-2.7108,-2.6933,-2.6685,-2.6479,-2.6313,-2.599,-2.5895,-2.5895,-2.5895,-2.5506,-2.52,-2.5158,-2.4572,-2.398,-2.3797,-2.3547,-2.3101,-2.2564,-2.2334,-2.2157,-2.1776,-2.1687,-2.1687,-4.2286,-4.2077,-4.1963,-4.1784,-4.1588,-4.1423,-4.1307,-4.1241,0.0,0.0,0.0,-3.9589,-3.9409,-3.9213,-3.898,-3.8907,-3.8819,-3.8449,-3.8315,-3.83,-3.7991,-3.7801,-3.7734,-3.7247,-3.6989,-3.7011,-3.6394,-3.6014,-3.5811,-3.5627,-3.5439,-3.5388,-3.5451,-3.5683,-3.6037,-3.6367,-3.6492,-3.6492,-3.6492,-3.6492,-3.6492,-3.6492,-3.646,-3.6429,-3.6132,-3.5863,-3.5606,-3.5151,-3.4735,-3.4414,-3.4088,-3.3779,-3.3605,-3.3396,-3.3276,-3.3276,-3.3276,-3.3241,-3.3072,-3.2846,-3.2596,-3.2381,-3.2277,-3.2205,-3.2205,-3.2205,-3.2205,-3.2205,-3.2205,-3.2205,-3.2205,-3.2205,-3.2036,-3.1633,-3.1609,-3.1447,-3.1061,-3.0798,-3.0571,-3.0368,-2.996,-2.9546,-2.9131,-2.8709,-2.8311,-2.7962,-2.7708,-2.74,-2.726,-2.719,-2.719,-2.719,-2.7067,-2.6903,-2.6685,-2.649,-2.6188,-2.6021,-2.5948,-2.5895,-2.5853,-2.5506,-2.5242,-2.52,-2.4433,-2.3927,-2.3754,-2.3406,-2.296,-2.2476,-2.228,-2.2094,-2.1811,-2.1687,-2.1687,-4.227,-4.2077,-4.1947,-4.1784,-4.1588,-4.1588,-4.144,-4.1256,-4.073,-4.0455,-4.0351,-4.0066,-3.9818,-3.961,-3.9409,-3.9213,-3.9053,-3.8819,-3.8723,0.0,-3.8686,-3.8538,-3.8366,-3.8279,-3.8235,-3.8192,-3.7631,-3.7425,-3.7414,-3.6384,-3.5917,-3.6,-3.5675,-3.5733,-3.6148,-3.6383,-3.6492,-3.6492,-3.6492,-3.6492,-3.6492,-3.6492,-3.6367,-3.6068,-3.6037,-3.575,-3.5279,-3.5049,-3.4735,-3.4414,-3.4088,-3.3813,-3.3605,-3.3431,-3.3276,-3.3276,-3.3276,-3.329,-3.3241,-3.2931,-3.2561,-3.2277,-3.2205,-3.2205,-3.2205,-3.2205,-3.2205,-3.2205,-3.2205,-3.2205,-3.2205,-3.2205,-3.2036,-3.1669,-3.1609,-3.1447,-3.1024,-3.0685,-3.0444,-3.0406,-2.9677,-2.9221,-2.9104,-2.8618,-2.8151,-2.7921,-2.7667,-2.74,-2.726,-2.719,-2.719,-2.719,-2.719,-2.7067,-2.685,-2.6685,-2.6437,-2.6199,-2.6021,-2.5937,-2.5895,-2.5506,-2.5242,-2.52,-2.4433,-2.3884,-2.3797,-2.3396,-2.296,-2.252,-2.228,-2.2104,-2.1776,-2.1687,-2.1687,-4.2413,-4.2254,-4.2093,-4.1915,-4.1736,-4.1637,-4.1555,-4.1423,-4.1088,-4.0817,-4.0627,-4.0401,-4.0191,-4.0016,-3.9818,-3.9676,-3.9553,-3.925,-3.9104,-3.9104,-3.8907,-3.8745,-3.8649,-3.8664,-3.8649,-3.8634,-3.8392,-3.8156,-3.7967,-3.7465,-3.6965,-3.6495,-3.6082,-3.6037,-3.6352,-3.646,-3.6492,-3.6492,-3.6492,-3.6492,-3.6492,-3.6383,-3.6242,-3.6116,-3.5926,-3.5686,-3.5359,-3.5067,-3.4735,-3.4399,-3.4054,-3.3813,-3.3605,-3.3431,-3.3276,-3.3276,-3.3276,-3.3276,-3.3276,-3.2931,-3.2538,-3.2228,-3.2205,-3.2205,-3.2205,-3.2205,-3.2205,-3.2205,-3.2205,-3.2205,-3.2205,-3.2205,-3.2036,-3.1646,-3.1609,-3.1447,-3.1061,-3.0634,-3.0406,-3.033,-2.9625,-2.9143,-2.9219,-2.8522,-2.7978,-2.7753,-2.7522,-2.7301,-2.7231,-2.719,-2.719,-2.719,-2.719,-2.7108,-2.6933,-2.6809,-2.6603,-2.6282,-2.6104,-2.6021,-2.5895,-2.5506,-2.5242,-2.5158,-2.4572,-2.4013,-2.3841,-2.342,-2.2984,-2.252,-2.228,-2.205,-2.1811,-2.1687,-2.1687,-4.2539,-4.2381,-4.219,-4.1996,-4.1833,-4.167,-4.1588,-4.1588,-4.1407,-4.1189,-4.0885,-4.0677,-4.0505,-4.0401,-4.0172,-4.0066,-3.9996,-3.9711,-3.9532,-3.9481,-3.9199,-3.9053,-3.9068,-3.9053,-3.909,-3.9053,-3.909,-3.8873,-3.857,-3.8552,-3.7925,-3.692,-3.6572,-3.6473,-3.6492,-3.6492,-3.6492,-3.6492,-3.6492,-3.6492,-3.6492,-3.632,-3.6211,-3.6148,-3.5831,-3.5557,-3.5359,-3.5049,-3.4683,-3.4312,-3.402,-3.3779,-3.355,-3.3396,-3.3276,-3.3276,-3.3276,-3.3255,-3.3157,-3.2881,-3.2525,-3.2241,-3.2205,-3.2205,-3.2205,-3.2205,-3.2205,-3.2205,-3.2205,-3.2205,-3.2205,-3.2205,-3.2073,-3.1706,-3.1609,-3.1447,-3.1099,-3.0672,-3.0406,-3.033,-2.9625,-2.9155,-2.9062,-2.8455,-2.7829,-2.7539,-2.7319,-2.719,-2.719,-2.719,-2.719,-2.719,-2.719,-2.7149,-2.6974,-2.6891,-2.6727,-2.6365,-2.6282,-2.6146,-2.5937,-2.5591,-2.5285,-2.5158,-2.469,-2.4186,-2.3831,-2.3444,-2.2999,-2.2599,-2.2369,-2.2094,-2.1776,-2.1687,-2.1687,-4.2539,-4.2381,-4.2206,-4.1916,-4.1654,-4.1621,-4.1588,-4.1588,-4.1588,-4.1456,-4.1223,-4.0919,-4.0765,-4.0696,-4.0401,-4.0277,-4.0242,-4.0016,-3.994,-3.9925,-3.9889,-3.9889,-3.9854,-3.9869,-3.9889,-3.9854,-3.9854,-3.9788,-3.9672,-3.9202,-3.8363,-3.7292,-3.7111,-3.6903,-3.6584,-3.6507,-3.6492,-3.6492,-3.6492,-3.6492,-3.6476,-3.6305,-3.6148,-3.6037,-3.5716,-3.5344,-3.5001,-3.4831,-3.4477,-3.4,-3.3931,-3.3709,-3.3396,-3.3276,-3.3276,-3.3276,-3.3276,-3.3122,-3.281,-3.2739,-3.2525,-3.2241,-3.2205,-3.2205,-3.2205,-3.2205,-3.2205,-3.2205,-3.2205,-3.2205,-3.2205,-3.2205,-3.2109,-3.1867,-3.1706,-3.1522,-3.1248,-3.0735,-3.0406,-3.0406,-2.9638,-2.9104,-2.9025,-2.8391,-2.7748,-2.7371,-2.726,-2.719,-2.719,-2.719,-2.719,-2.719,-2.719,-2.719,-2.7149,-2.7026,-2.6891,-2.6768,-2.6479,-2.6282,-2.6104,-2.5812,-2.5475,-2.5285,-2.4828,-2.4358,-2.3917,-2.3444,-2.3076,-2.2775,-2.2457,-2.2094,-2.1811,-2.1687,-2.1687,-4.2571,-4.2524,-4.2349,-4.2093,-4.1784,-4.167,-4.1588,-4.1588,-4.1588,-4.1555,-4.1456,-4.1223,-4.1003,-4.0799,-4.0627,-4.0539,-4.0401,-4.0277,-4.0172,-4.0172,-4.0066,-4.0011,-4.0011,-4.0011,-4.0011,-4.0011,-4.0011,-4.0011,-3.9889,-3.9401,-3.8932,-3.8499,-3.7778,-3.729,-3.7061,-3.6692,-3.6492,-3.6492,-3.6383,-3.632,-3.632,-3.6163,-3.599,-3.5799,-3.5507,-3.518,-3.4916,-3.465,-3.4327,-3.3931,-3.3779,-3.3619,-3.3326,-3.3276,-3.3276,-3.3276,-3.3276,-3.3122,-3.2725,-3.269,-3.2538,-3.2205,-3.2205,-3.2205,-3.2205,-3.2205,-3.2205,-3.2205,-3.2205,-3.2205,-3.2205,-3.2205,-3.2109,-3.194,-3.172,-3.1522,-3.131,-3.0772,-3.0406,-3.033,-2.9638,-2.9079,-2.8897,-2.8251,-2.7661,-2.74,-2.726,-2.719,-2.719,-2.719,-2.719,-2.719,-2.719,-2.719,-2.719,-2.7149,-2.7015,-2.6903,-2.6738,-2.6573,-2.6229,-2.5979,-2.5686,-2.5464,-2.5041,-2.4668,-2.4282,-2.3831,-2.342,-2.3047,-2.2485,-2.2033,-2.1731,-2.1687,-2.1687,-4.2602,-4.2571,-4.2413,-4.2158,-4.1866,-4.167,-4.1588,-4.1588,-4.1588,-4.1588,-4.1588,-4.1456,-4.1223,-4.0969,-4.0901,-4.0765,-4.0608,-4.0455,-4.0401,-4.0331,-4.0207,-4.0121,-4.0137,-4.0121,-4.0137,-4.0137,-4.0137,-4.0121,-4.0111,-3.9772,-3.9557,-3.9367,-3.8523,-3.7861,-3.7492,-3.6984,-3.6676,-3.6507,-3.632,-3.6179,-3.6116,-3.5973,-3.5797,-3.5638,-3.5297,-3.5001,-3.4754,-3.4467,-3.4142,-3.3813,-3.3689,-3.3501,-3.3312,-3.3276,-3.3276,-3.3276,-3.3276,-3.3122,-3.2725,-3.269,-3.2538,-3.2241,-3.2205,-3.2205,-3.2205,-3.2205,-3.2205,-3.2205,-3.2205,-3.2205,-3.2205,-3.2205,-3.2146,-3.2,-3.1793,-3.1522,-3.1373,-3.0823,-3.0406,-3.033,-2.9638,-2.9013,-2.8688,-2.8131,-2.7661,-2.7482,-2.7342,-2.719,-2.719,-2.719,-2.719,-2.719,-2.719,-2.719,-2.719,-2.719,-2.7108,-2.7026,-2.6944,-2.6738,-2.6396,-2.6188,-2.5937,-2.5686,-2.5253,-2.4871,-2.4454,-2.4057,-2.3614,-2.3101,-2.2574,-2.2141,-2.1919,-2.1776,-2.1687,-4.2602,-4.2539,-4.2238,-4.2045,-4.1881,-4.1703,-4.1588,-4.1588,-4.1588,-4.1588,-4.1588,-4.1573,-4.1456,-4.1256,-4.1153,-4.0984,-4.0799,-4.0765,-4.0677,-4.0489,-4.047,-4.047,-4.0505,-4.0489,-4.0455,-4.042,-4.042,-4.0436,-4.0455,-4.0409,-4.012,-3.9505,-3.937,-3.8706,-3.7754,-3.7477,-3.7123,-3.6583,-3.6304,-3.6116,-3.5973,-3.5683,-3.5537,-3.5457,-3.51,-3.4769,-3.4448,-3.423,-3.3971,-3.3654,-3.3605,-3.3501,-3.3312,-3.3276,-3.3276,-3.3276,-3.3276,-3.3136,-3.2775,-3.269,-3.2574,-3.2277,-3.2205,-3.2205,-3.2205,-3.2205,-3.2205,-3.2205,-3.2205,-3.2205,-3.2205,-3.2205,-3.2182,-3.2146,-3.1817,-3.1609,-3.1572,-3.0874,-3.0444,-3.0292,-2.9638,-2.8973,-2.8379,-2.8042,-2.7777,-2.7574,-2.733,-2.719,-2.719,-2.719,-2.719,-2.719,-2.719,-2.719,-2.719,-2.719,-2.719,-2.7149,-2.7026,-2.6903,-2.6727,-2.652,-2.6188,-2.5895,-2.5506,-2.5084,-2.4625,-2.411,-2.358,-2.3101,-2.2706,-2.2362,-2.2052,-2.182,-2.1731,-4.2602,-4.2571,-4.2238,-4.2061,-4.1996,-4.172,-4.1588,-4.1588,-4.1588,-4.1588,-4.1588,-4.1588,-4.1555,-4.1489,-4.1439,-4.1205,-4.0833,-4.0799,-4.0696,-4.0489,-4.0489,-4.0489,-4.0489,-4.0489,-4.0489,-4.0489,-4.0489,-4.0489,-4.0489,-4.0489,-4.0382,-4.0105,-3.969,-3.9213,-3.8723,-3.7923,-3.729,-3.6933,-3.6407,-3.599,-3.5799,-3.5459,-3.5261,-3.5115,-3.4898,-3.465,-3.4414,-3.4108,-3.3848,-3.3605,-3.3501,-3.3396,-3.3312,-3.3276,-3.3276,-3.3276,-3.3276,-3.3136,-3.2775,-3.269,-3.2574,-3.2241,-3.2205,-3.2205,-3.2205,-3.2205,-3.2205,-3.2205,-3.2205,-3.2205,-3.2205,-3.2205,-3.2205,-3.2146,-3.1853,-3.1609,-3.1485,-3.1037,-3.0533,-3.033,-2.9638,-2.8973,-2.8605,-2.8299,-2.803,-2.7788,-2.7534,-2.7371,-2.7231,-2.719,-2.7231,-2.719,-2.719,-2.719,-2.719,-2.719,-2.719,-2.719,-2.7108,-2.7026,-2.685,-2.6809,-2.652,-2.6188,-2.5812,-2.538,-2.4882,-2.4229,-2.3711,-2.3188,-2.2794,-2.253,-2.2176,-2.2008,-2.1874,-4.2602,-4.2539,-4.2238,-4.2077,-4.2045,-4.1753,-4.1588,-4.1588,-4.1588,-4.1588,-4.1588,-4.1588,-4.1588,-4.1588,-4.1588,-4.139,-4.1003,-4.0916,-4.078,-4.0593,-4.0524,-4.0489,-4.0489,-4.0489,-4.0489,-4.0489,-4.0489,-4.0489,-4.0489,-4.0489,-4.0489,-4.0443,-4.0013,-3.9674,-3.9367,-3.8504,-3.7807,-3.7203,-3.6552,-3.6041,-3.5666,-3.5264,-3.5016,-3.485,-3.4616,-3.4414,-3.4244,-3.3951,-3.3709,-3.3501,-3.3361,-3.3276,-3.3276,-3.3276,-3.3276,-3.3276,-3.3276,-3.3136,-3.2775,-3.269,-3.2574,-3.2241,-3.2205,-3.2205,-3.2205,-3.2205,-3.2205,-3.2205,-3.2205,-3.2205,-3.2205,-3.2205,-3.2205,-3.2182,-3.189,-3.1683,-3.1596,-3.1112,-3.0647,-3.019,-2.956,-2.9052,-2.8803,-2.8447,-2.8179,-2.8002,-2.7777,-2.7586,-2.7476,-2.7435,-2.7383,-2.7371,-2.7423,-2.7423,-2.7412,-2.7452,-2.7313,-2.7272,-2.7231,-2.7097,-2.7015,-2.6974,-2.6809,-2.6479,-2.6063,-2.5644,-2.5084,-2.4444,-2.3874,-2.3363,-2.3013,-2.2794,-2.2441,-2.2185,-2.1998,-4.2602,-4.2571,-4.2238,-4.2077,-4.2045,-4.1753,-4.1588,-4.1588,-4.1588,-4.1588,-4.1588,-4.1588,-4.1588,-4.1588,-4.1588,-4.1489,-4.129,-4.112,-4.095,-4.0765,-4.0593,-4.0489,-4.0489,-4.0489,-4.0489,-4.0489,-4.0489,-4.0489,-4.0489,-4.0489,-4.0489,-4.0489,-4.0459,-4.0105,-3.9536,-3.9186,-3.8488,-3.7504,-3.6907,-3.6298,-3.5561,-3.5129,-3.4835,-3.4664,-3.4346,-3.4074,-3.3931,-3.3724,-3.3536,-3.3347,-3.3326,-3.3276,-3.3276,-3.3276,-3.3276,-3.3276,-3.3276,-3.3086,-3.2761,-3.269,-3.2574,-3.2277,-3.2205,-3.2205,-3.2205,-3.2205,-3.2205,-3.2205,-3.2205,-3.2205,-3.2205,-3.2205,-3.2205,-3.2169,-3.2,-3.1817,-3.1559,-3.1211,-3.0723,-2.9998,-2.9456,-2.9052,-2.8803,-2.8514,-2.8299,-2.8179,-2.803,-2.7841,-2.78,-2.776,-2.7777,-2.7701,-2.7684,-2.7667,-2.7725,-2.7713,-2.7534,-2.7394,-2.7301,-2.7219,-2.7138,-2.7056,-2.6974,-2.6644,-2.6146,-2.5728,-2.5221,-2.4615,-2.4239,-2.3754,-2.3406,-2.3047,-2.275,-2.2441,-2.2113,-4.2602,-4.2571,-4.2238,-4.2077,-4.2045,-4.1753,-4.1588,-4.1588,-4.1588,-4.1588,-4.1588,-4.1588,-4.1588,-4.1588,-4.1588,-4.1555,-4.1489,-4.1236,-4.1,-4.0799,-4.0593,-4.0489,-4.0489,-4.0489,-4.0489,-4.0489,-4.0489,-4.0489,-4.0489,-4.0489,-4.0489,-4.0489,-4.0489,-4.0382,-4.0136,-3.9535,-3.8864,-3.8363,-3.7149,-3.6294,-3.5919,-3.5171,-3.4683,-3.4481,-3.4142,-3.3882,-3.3675,-3.364,-3.3501,-3.3312,-3.3276,-3.3276,-3.3276,-3.3276,-3.3276,-3.3276,-3.3276,-3.3136,-3.2775,-3.269,-3.2538,-3.2277,-3.2205,-3.2205,-3.2205,-3.2205,-3.2205,-3.2205,-3.2205,-3.2205,-3.2205,-3.2205,-3.2205,-3.2205,-3.2036,-3.1817,-3.1559,-3.1024,-3.052,-3.0216,-2.9664,-2.9275,-2.904,-2.8724,-2.8486,-2.8259,-2.8151,-2.807,-2.7962,-2.7921,-2.7881,-2.7817,-2.7881,-2.7962,-2.7938,-2.7926,-2.7817,-2.7638,-2.7545,-2.7383,-2.726,-2.7179,-2.7056,-2.6768,-2.6271,-2.5812,-2.5306,-2.4882,-2.454,-2.4153,-2.3807,-2.345,-2.3057,-2.274,-2.2422,-4.2602,-4.2571,-4.2238,-4.2077,-4.2045,-4.1753,-4.1588,-4.1588,-4.1588,-4.1588,-4.1588,-4.1588,-4.1588,-4.1588,-4.1588,-4.1588,-4.1571,-4.127,-4.1034,-4.0882,-4.0593,-4.0505,-4.0489,-4.0489,-4.0489,-4.0489,-4.0489,-4.0489,-4.0489,-4.0489,-4.0489,-4.0489,-4.0489,-4.0455,-4.0405,-3.9814,-3.9356,-3.8754,-3.7462,-3.6533,-3.5969,-3.5087,-3.4481,-3.4278,-3.3951,-3.3758,-3.3605,-3.3536,-3.3431,-3.3326,-3.3276,-3.3276,-3.3276,-3.3276,-3.3276,-3.3276,-3.3276,-3.3136,-3.2775,-3.269,-3.2538,-3.2277,-3.2205,-3.2205,-3.2205,-3.2205,-3.2205,-3.2205,-3.2205,-3.2205,-3.2205,-3.2205,-3.2205,-3.2205,-3.2109,-3.189,-3.1596,-3.1024,-3.0596,-3.0317,-2.9896,-2.947,-2.917,-2.8922,-2.8685,-2.8379,-2.8299,-2.8311,-2.8163,-2.8111,-2.8111,-2.8122,-2.8163,-2.8203,-2.8163,-2.8111,-2.8111,-2.795,-2.7788,-2.7574,-2.7412,-2.733,-2.7249,-2.6933,-2.6479,-2.6157,-2.5654,-2.5317,-2.4935,-2.4583,-2.4153,-2.3744,-2.3387,-2.3047,-2.274,-4.2602,-4.2571,-4.2238,-4.2077,-4.2045,-4.1737,-4.1588,-4.1588,-4.1588,-4.1588,-4.1588,-4.1588,-4.1588,-4.1588,-4.1588,-4.1588,-4.1538,-4.127,-4.1083,-4.0966,-4.0712,-4.0489,-4.0489,-4.0489,-4.0489,-4.0489,-4.0489,-4.0489,-4.0489,-4.0489,-4.0489,-4.0489,-4.047,-4.0436,-4.0281,-4.0086,-3.9541,-3.8787,-3.7769,-3.6852,-3.6026,-3.5005,-3.4356,-3.4122,-3.3799,-3.3605,-3.3536,-3.3431,-3.3312,-3.3276,-3.3276,-3.3276,-3.3276,-3.3276,-3.3276,-3.3276,-3.3276,-3.31,-3.281,-3.269,-3.2538,-3.2241,-3.2205,-3.2205,-3.2205,-3.2205,-3.2205,-3.2205,-3.2205,-3.2205,-3.2205,-3.2205,-3.2205,-3.2205,-3.2146,-3.1963,-3.1633,-3.1211,-3.0823,-3.0444,-3.0037,-2.9663,-2.9221,-2.8961,-2.8764,-2.8578,-2.8498,-2.8431,-2.8443,-2.8391,-2.8471,-2.8431,-2.8351,-2.8351,-2.8311,-2.8311,-2.8271,-2.8191,-2.807,-2.7869,-2.7574,-2.7493,-2.733,-2.6974,-2.6727,-2.6407,-2.6032,-2.5654,-2.5317,-2.4935,-2.4487,-2.4026,-2.3681,-2.3396,-2.3057,-4.2602,-4.2571,-4.2238,-4.2077,-4.2045,-4.1753,-4.1588,-4.1588,-4.1588,-4.1588,-4.1588,-4.1588,-4.1588,-4.1588,-4.1588,-4.1588,-4.1505,-4.127,-4.1117,-4.1049,-4.0677,-4.0505,-4.0489,-4.0489,-4.0489,-4.0489,-4.0489,-4.0489,-4.0489,-4.0489,-4.0505,-4.0489,-4.0401,-4.0331,-4.0277,-3.9945,-3.9621,-3.9131,-3.8213,-3.7278,-3.6371,-3.5415,-3.4603,-3.398,-3.3709,-3.3536,-3.3396,-3.3326,-3.3276,-3.3276,-3.3276,-3.3276,-3.3276,-3.3276,-3.3276,-3.3276,-3.3276,-3.3136,-3.281,-3.269,-3.2525,-3.2241,-3.2205,-3.2205,-3.2205,-3.2205,-3.2205,-3.2205,-3.2205,-3.2205,-3.2205,-3.2205,-3.2205,-3.2169,-3.2109,-3.189,-3.1596,-3.1261,-3.0874,-3.0457,-3.0177,-2.9831,-2.9443,-2.9118,-2.8922,-2.8724,-2.8578,-2.851,-2.851,-2.851,-2.851,-2.851,-2.8471,-2.8471,-2.8471,-2.8471,-2.8471,-2.8431,-2.8311,-2.8203,-2.7869,-2.7615,-2.7342,-2.6974,-2.685,-2.6603,-2.6271,-2.5895,-2.5559,-2.5232,-2.4828,-2.4423,-2.4133,-2.3851,-2.3406,-4.2602,-4.2555,-4.2238,-4.2077,-4.2045,-4.1753,-4.1588,-4.1588,-4.1588,-4.1588,-4.1588,-4.1588,-4.1588,-4.1588,-4.1588,-4.1588,-4.1555,-4.1254,-4.1117,-4.1049,-4.0677,-4.0524,-4.0489,-4.0489,-4.0489,-4.0489,-4.0489,-4.0489,-4.0489,-4.0489,-4.047,-4.0401,-4.0331,-4.0242,-4.0016,-3.9839,-3.9553,-3.9182,-3.8373,-3.7451,-3.6508,-3.5501,-3.4601,-3.3907,-3.357,-3.3431,-3.3312,-3.3276,-3.3276,-3.3276,-3.3276,-3.3276,-3.3276,-3.3276,-3.3276,-3.3276,-3.3276,-3.3136,-3.281,-3.269,-3.2538,-3.2277,-3.2205,-3.2205,-3.2205,-3.2205,-3.2205,-3.2205,-3.2205,-3.2205,-3.2205,-3.2205,-3.2205,-3.2169,-3.2109,-3.1904,-3.1633,-3.141,-3.1024,-3.0647,-3.0343,-3.0062,-2.9638,-2.9326,-2.904,-2.8803,-2.8618,-2.855,-2.851,-2.851,-2.851,-2.851,-2.851,-2.851,-2.851,-2.851,-2.851,-2.8471,-2.8471,-2.8363,-2.8111,-2.7777,-2.7493,-2.7208,-2.7003,-2.6798,-2.652,-2.6229,-2.5906,-2.557,-2.5179,-2.4839,-2.454,-2.4239,-2.3764,-4.2602,-4.2571,-4.2238,-4.2077,-4.2045,-4.1753,-4.1588,-4.1588,-4.1588,-4.1588,-4.1588,-4.1588,-4.1588,-4.1588,-4.1588,-4.1588,-4.1588,-4.127,-4.1068,-4.0898,-4.0677,-4.0489,-4.0489,-4.0489,-4.0489,-4.0489,-4.0489,-4.0489,-4.047,-4.047,-4.0401,-4.0277,-4.0242,-4.0051,-3.9803,-3.9646,-3.943,-3.9015,-3.8427,-3.7513,-3.6548,-3.554,-3.4675,-3.3938,-3.3494,-3.3361,-3.3312,-3.3276,-3.3276,-3.3276,-3.3276,-3.3276,-3.3276,-3.3276,-3.3276,-3.3276,-3.3276,-3.3136,-3.2775,-3.269,-3.2574,-3.2277,-3.2205,-3.2205,-3.2205,-3.2205,-3.2205,-3.2205,-3.2205,-3.2205,-3.2205,-3.2205,-3.2205,-3.2205,-3.2169,-3.2,-3.1743,-3.1609,-3.1373,-3.0811,-3.0571,-3.0216,-2.9844,-2.9456,-2.9091,-2.8922,-2.8736,-2.8618,-2.855,-2.851,-2.851,-2.851,-2.851,-2.851,-2.851,-2.851,-2.851,-2.851,-2.851,-2.8431,-2.8271,-2.7978,-2.7684,-2.7441,-2.7249,-2.7044,-2.6809,-2.6531,-2.624,-2.5948,-2.5559,-2.5179,-2.4839,-2.4497,-2.411,-4.2602,-4.2571,-4.2238,-4.2077,-4.2045,-4.1737,-4.1588,-4.1588,-4.1588,-4.1588,-4.1588,-4.1588,-4.1588,-4.1588,-4.1588,-4.1588,-4.1571,-4.127,-4.0932,-4.0627,-4.0574,-4.0489,-4.0489,-4.0489,-4.0489,-4.0505,-4.0489,-4.0436,-4.0381,-4.0312,-4.0277,-4.0066,-3.9945,-3.9788,-3.9696,-3.9394,-3.9126,-3.8841,-3.8524,-3.7813,-3.6844,-3.5956,-3.5096,-3.4236,-3.3607,-3.3326,-3.3276,-3.3276,-3.3276,-3.3276,-3.3276,-3.3276,-3.3276,-3.3276,-3.3276,-3.3276,-3.3276,-3.3136,-3.281,-3.2654,-3.2561,-3.2241,-3.2205,-3.2205,-3.2205,-3.2205,-3.2205,-3.2205,-3.2205,-3.2205,-3.2205,-3.2205,-3.2205,-3.2205,-3.2169,-3.2109,-3.1904,-3.1669,-3.141,-3.1024,-3.0634,-3.0292,-3.0049,-2.9638,-2.9314,-2.9079,-2.8895,-2.8697,-2.8618,-2.855,-2.851,-2.851,-2.851,-2.851,-2.851,-2.851,-2.851,-2.851,-2.851,-2.851,-2.8339,-2.8219,-2.7938,-2.7684,-2.7441,-2.7249,-2.7015,-2.685,-2.6561,-2.6271,-2.599,-2.5644,-2.5264,-2.4882,-2.4497,-4.2602,-4.2571,-4.2254,-4.2077,-4.2029,-4.1753,-4.1588,-4.1588,-4.1588,-4.1588,-4.1588,-4.1588,-4.1588,-4.1588,-4.1588,-4.1588,-4.1538,-4.127,-4.0898,-4.0558,-4.0489,-4.0489,-4.0489,-4.0489,-4.0489,-4.0436,-4.0401,-4.0296,-4.0207,-4.0137,-4.0051,-3.9874,-3.9732,-3.9574,-3.9445,-3.9199,-3.8943,-3.8686,-3.8449,-3.7875,-3.6919,-3.6068,-3.5074,-3.415,-3.3529,-3.3276,-3.3276,-3.3276,-3.3276,-3.3276,-3.3276,-3.3276,-3.3276,-3.3276,-3.3276,-3.3276,-3.3276,-3.3086,-3.281,-3.2654,-3.2574,-3.2205,-3.2205,-3.2205,-3.2205,-3.2205,-3.2205,-3.2205,-3.2205,-3.2205,-3.2205,-3.2205,-3.2205,-3.2205,-3.2205,-3.2132,-3.2036,-3.1853,-3.1596,-3.1211,-3.0911,-3.0558,-3.0254,-2.9831,-2.9548,-2.9275,-2.8922,-2.8764,-2.8697,-2.8618,-2.851,-2.851,-2.851,-2.851,-2.851,-2.851,-2.851,-2.851,-2.851,-2.851,-2.8431,-2.8311,-2.8191,-2.7898,-2.7615,-2.7371,-2.7126,-2.7003,-2.685,-2.6603,-2.6313,-2.6021,-2.5728,-2.5359,-2.4882,-4.2602,-4.2571,-4.2238,-4.2077,-4.2045,-4.1753,-4.1588,-4.1588,-4.1588,-4.1588,-4.1588,-4.1588,-4.1588,-4.1588,-4.1588,-4.1588,-4.1439,-4.1187,-4.0814,-4.0539,-4.0489,-4.0489,-4.0505,-4.047,-4.0366,-4.0261,-4.0296,-4.0172,-3.9996,-3.9925,-3.9839,-3.9681,-3.961,-3.943,-3.9177,-3.8995,-3.8811,-3.8464,-3.824,-3.7803,-3.6862,-3.5969,-3.4844,-3.3642,-3.3354,-3.3276,-3.3276,-3.3276,-3.3276,-3.3276,-3.3276,-3.3276,-3.3276,-3.3276,-3.3276,-3.3276,-3.3276,-3.3086,-3.2775,-3.2654,-3.2561,-3.2241,-3.2205,-3.2205,-3.2205,-3.2205,-3.2205,-3.2205,-3.2205,-3.2205,-3.2205,-3.2205,-3.2205,-3.2205,-3.2205,-3.2205,-3.2182,-3.2036,-3.1767,-3.1397,-3.1061,-3.0761,-3.0457,-3.0075,-2.9793,-2.947,-2.9118,-2.8831,-2.8803,-2.8724,-2.8618,-2.855,-2.855,-2.851,-2.851,-2.851,-2.851,-2.851,-2.851,-2.851,-2.851,-2.8431,-2.8311,-2.803,-2.7788,-2.7493,-2.729,-2.7138,-2.7026,-2.6862,-2.6644,-2.6354,-2.6063,-2.5822,-2.5348,-4.2602,-4.2571,-4.2238,-4.2077,-4.2045,-4.1753,-4.1588,-4.1588,-4.1588,-4.1588,-4.1588,-4.1588,-4.1588,-4.1588,-4.1588,-4.1472,-4.1205,-4.0984,-4.0746,-4.0539,-4.0489,-4.0489,-4.0455,-4.0401,-4.0242,-4.0152,-4.0172,-4.0066,-3.9803,-3.9717,-3.9625,-3.9445,-3.9286,-3.9141,-3.8995,-3.8811,-3.8516,-3.824,-3.8028,-3.7625,-3.7044,-3.6023,-3.478,-3.348,-3.3276,-3.3276,-3.3276,-3.3276,-3.3276,-3.3276,-3.3276,-3.3276,-3.3276,-3.3276,-3.3276,-3.3276,-3.3276,-3.3122,-3.2775,-3.269,-3.2538,-3.2314,-3.2205,-3.2205,-3.2205,-3.2205,-3.2205,-3.2205,-3.2205,-3.2205,-3.2205,-3.2205,-3.2205,-3.2205,-3.2205,-3.2205,-3.2182,-3.2146,-3.1963,-3.1596,-3.1248,-3.0911,-3.0647,-3.0356,-3.0037,-2.9754,-2.9443,-2.9157,-2.904,-2.8922,-2.8764,-2.8697,-2.8618,-2.855,-2.851,-2.851,-2.851,-2.851,-2.851,-2.851,-2.851,-2.851,-2.8351,-2.8191,-2.795,-2.7748,-2.7505,-2.726,-2.7108,-2.6974,-2.6809,-2.6644,-2.6354,-2.6063,-2.577,-4.2602,-4.2587,-4.2222,-4.2077,-4.2045,-4.1753,-4.1588,-4.1588,-4.1588,-4.1588,-4.1588,-4.1588,-4.1588,-4.1588,-4.1588,-4.1406,-4.112,-4.0882,-4.0696,-4.0524,-4.0489,-4.0455,-4.0385,-4.0312,-4.0101,-3.996,-3.991,-3.9854,-3.9553,-3.943,-3.9358,-3.9228,-3.9068,-3.8907,-3.8775,-3.8516,-3.8254,-3.8028,-3.7763,-3.7481,-3.7175,-3.6033,-3.4671,-3.3698,-3.3276,-3.3276,-3.3276,-3.3276,-3.3276,-3.3276,-3.3276,-3.3276,-3.3276,-3.3276,-3.3276,-3.3276,-3.3276,-3.3122,-3.2775,-3.269,-3.2538,-3.2241,-3.2205,-3.2205,-3.2205,-3.2205,-3.2205,-3.2205,-3.2205,-3.2205,-3.2205,-3.2205,-3.2205,-3.2205,-3.2205,-3.2205,-3.2205,-3.2205,-3.2036,-3.178,-3.1522,-3.1224,-3.0874,-3.0622,-3.0318,-3.0049,-2.9767,-2.9521,-2.9314,-2.9157,-2.9,-2.8843,-2.8776,-2.8605,-2.8578,-2.8538,-2.851,-2.851,-2.851,-2.851,-2.851,-2.851,-2.8471,-2.8391,-2.8139,-2.7938,-2.7603,-2.7307,-2.7196,-2.7056,-2.6933,-2.6768,-2.6561,-2.6313,-2.6063,-4.2263,-4.2329,-4.2029,-4.1949,-4.2013,-4.172,-4.1588,-4.1588,-4.1588,-4.1588,-4.1588,-4.1588,-4.1588,-4.1555,-4.1505,-4.1321,-4.1068,-4.0848,-4.0627,-4.0524,-4.0489,-4.0436,-4.0331,-4.0191,-4.0051,-3.9768,-3.9574,-3.9517,-3.9337,-3.9213,-3.909,-3.898,-3.8819,-3.8686,-3.8516,-3.8292,-3.8028,-3.7801,-3.7495,-3.7246,-3.6646,-3.577,-3.4598,-3.3466,-3.3276,-3.3276,-3.3276,-3.3276,-3.3276,-3.3276,-3.3276,-3.3276,-3.3276,-3.3276,-3.3276,-3.3227,-3.3241,-3.3051,-3.281,-3.2618,-3.2467,-3.2241,-3.2205,-3.2205,-3.2205,-3.2205,-3.2205,-3.2205,-3.2205,-3.2205,-3.2205,-3.2205,-3.2205,-3.2205,-3.2205,-3.2205,-3.2205,-3.2169,-3.2146,-3.1927,-3.1743,-3.1485,-3.1136,-3.0874,-3.0584,-3.0356,-3.0113,-2.9921,-2.9677,-2.9443,-2.9287,-2.9091,-2.8934,-2.8752,-2.8633,-2.8605,-2.8538,-2.851,-2.851,-2.851,-2.851,-2.851,-2.8471,-2.8471,-2.8379,-2.8127,-2.7742,-2.7406,-2.7214,-2.7103,-2.7003,-2.6891,-2.6727,-2.6573,-2.6335,-4.1005,-4.1432,-4.1276,-4.1486,-4.1803,-4.164,-4.1573,-4.1557,-4.1573,-4.1588,-4.1588,-4.1588,-4.1588,-4.1538,-4.1303,-4.1135,-4.1,-4.073,-4.0524,-4.0489,-4.0505,-4.0401,-4.0277,-4.0117,-3.9874,-3.961,-3.9322,-3.9177,-3.9119,-3.9068,-3.898,-3.8833,-3.8612,-3.8516,-3.8418,-3.8066,-3.7853,-3.761,-3.7419,-3.6717,-3.5728,-3.5325,-3.4528,-3.3663,-3.3276,-3.3276,-3.3276,-3.3276,-3.3276,-3.3276,-3.3276,-3.3276,-3.3276,-3.3276,-3.3192,-3.3108,-3.3023,-3.2966,-3.2704,-3.2561,-3.2395,-3.2228,-3.2205,-3.2205,-3.2205,-3.2205,-3.2205,-3.2205,-3.2205,-3.2205,-3.2205,-3.2205,-3.2205,-3.2205,-3.2205,-3.2205,-3.2205,-3.2205,-3.2146,-3.2109,-3.1927,-3.1656,-3.136,-3.1099,-3.0874,-3.0647,-3.0457,-3.0228,-3.0037,-2.9767,-2.9534,-2.9339,-2.917,-2.8949,-2.8803,-2.8724,-2.8657,-2.855,-2.851,-2.851,-2.851,-2.851,-2.851,-2.8471,-2.8419,-2.8287,-2.7914,-2.758,-2.7325,-2.7185,-2.7085,-2.7015,-2.6891,-2.6738,-2.6554,-3.9874,-4.0709,-4.0539,-4.0576,-4.0753,-4.0926,-4.1035,-4.1114,-4.143,-4.1588,-4.1588,-4.1588,-4.1588,-4.1522,-4.127,-4.1117,-4.1,-4.0662,-4.0489,-4.047,-4.0436,-4.0312,-4.0101,-3.9925,-3.9681,-3.9379,-3.9162,-3.8958,-3.8848,-3.8775,-3.8701,-3.859,-3.8344,-3.8156,-3.8156,-3.7777,-3.7534,-3.738,-3.7165,-3.6461,-3.5513,-3.5105,-3.4598,-3.3375,-3.329,-3.3276,-3.3276,-3.3276,-3.3276,-3.3276,-3.3276,-3.3276,-3.3227,-3.3115,-3.2918,-3.3023,-3.2775,-3.2632,-3.2525,-3.2453,-3.2322,-3.2241,-3.2205,-3.2205,-3.2205,-3.2205,-3.2205,-3.2205,-3.2205,-3.2205,-3.2205,-3.2205,-3.2205,-3.2205,-3.2205,-3.2205,-3.2205,-3.2205,-3.2169,-3.2169,-3.2109,-3.184,-3.1619,-3.136,-3.1136,-3.0911,-3.0685,-3.0495,-3.0267,-3.0075,-2.9805,-2.9585,-2.9404,-2.9197,-2.9052,-2.8946,-2.8816,-2.8709,-2.855,-2.855,-2.851,-2.851,-2.851,-2.851,-2.8471,-2.8299,-2.8059,-2.7753,-2.7435,-2.7307,-2.719,-2.7108,-2.7026,-2.6891,-2.6655,-3.8908,-3.9698,-3.9754,-3.9715,-3.9769,-4.0167,-4.0324,-4.0403,-4.1035,-4.1336,-4.1399,-4.1494,-4.1588,-4.1538,-4.1288,-4.1117,-4.1083,-4.0677,-4.0524,-4.047,-4.0366,-4.0207,-4.0031,-3.9803,-3.9502,-3.909,-3.9053,-3.8848,-3.859,-3.8404,-3.8329,-3.8344,-3.8081,-3.7891,-3.7777,-3.7548,-3.7303,-3.7226,-3.7095,-3.637,-3.5442,-3.5189,-3.4421,-3.3705,-3.3276,-3.3276,-3.3276,-3.3276,-3.3276,-3.3276,-3.3276,-3.3276,-3.3178,-3.2918,-3.2763,-3.2783,-3.2561,-3.2417,-3.2395,-3.2336,-3.23,-3.2241,-3.2205,-3.2205,-3.2205,-3.2205,-3.2205,-3.2205,-3.2205,-3.2205,-3.2205,-3.2205,-3.2205,-3.2205,-3.2205,-3.2205,-3.2205,-3.2205,-3.2205,-3.2169,-3.2146,-3.2146,-3.189,-3.1619,-3.1397,-3.1174,-3.0949,-3.0761,-3.0533,-3.0305,-3.0152,-2.9921,-2.9728,-2.9548,-2.9378,-2.9194,-2.9064,-2.8855,-2.8657,-2.855,-2.855,-2.851,-2.851,-2.851,-2.851,-2.8339,-2.8139,-2.7822,-2.7545,-2.7429,-2.7301,-2.7231,-2.7108,-2.7026,-2.6809,-3.8241,-3.8097,-3.8798,-3.9208,-3.9471,-3.9534,-3.9582,-3.9645,-4.0356,-4.0688,-4.0846,-4.1288,-4.1588,-4.1505,-4.1254,-4.1068,-4.1068,-4.0677,-4.0524,-4.0436,-4.0366,-4.0172,-3.9945,-3.9681,-3.9466,-3.909,-3.8907,-3.8701,-3.8456,-3.8156,-3.8005,-3.7944,-3.7815,-3.7739,-3.761,-3.738,-3.7187,-3.7095,-3.7017,-3.636,-3.5555,-3.5091,-3.457,-3.3607,-3.3276,-3.3276,-3.3276,-3.3276,-3.3276,-3.3276,-3.3276,-3.3206,-3.3058,-3.2784,-3.2629,-3.2533,-3.2453,-3.2322,-3.2264,-3.2241,-3.2205,-3.2205,-3.2205,-3.2205,-3.2205,-3.2205,-3.2205,-3.2205,-3.2205,-3.2205,-3.2205,-3.2205,-3.2205,-3.2205,-3.2205,-3.2205,-3.2205,-3.2205,-3.2205,-3.2205,-3.2182,-3.2146,-3.2146,-3.1877,-3.1693,-3.1485,-3.1299,-3.1061,-3.0798,-3.0571,-3.0444,-3.0254,-3.0139,-2.9947,-2.974,-2.9546,-2.93,-2.9052,-2.8803,-2.8657,-2.855,-2.855,-2.851,-2.851,-2.851,-2.8339,-2.8219,-2.7966,-2.7725,-2.7522,-2.7371,-2.726,-2.7149,-2.7026,-2.685,-3.8135,-3.7921,-3.812,-3.8227,-3.8302,-3.8713,-3.8902,-3.9013,-3.9629,-4.0214,-4.0625,-4.1257,-4.1522,-4.1357,-4.1236,-4.1034,-4.0882,-4.0627,-4.0505,-4.0331,-4.0207,-3.9996,-3.9768,-3.9502,-3.9177,-3.8907,-3.8701,-3.8441,-3.8118,-3.7929,-3.7739,-3.7625,-3.7572,-3.7495,-3.7341,-3.7226,-3.7095,-3.7017,-3.6894,-3.6374,-3.547,-3.5133,-3.4598,-3.3452,-3.329,-3.3276,-3.3276,-3.3276,-3.3276,-3.3276,-3.3276,-3.3157,-3.2938,-3.2615,-3.2451,-3.2367,-3.2322,-3.2264,-3.2205,-3.2205,-3.2205,-3.2205,-3.2205,-3.2205,-3.2205,-3.2205,-3.2205,-3.2205,-3.2205,-3.2205,-3.2205,-3.2205,-3.2205,-3.2205,-3.2205,-3.2205,-3.2205,-3.2205,-3.2205,-3.2205,-3.2205,-3.2182,-3.2182,-3.2096,-3.1963,-3.1817,-3.1596,-3.1373,-3.1099,-3.0874,-3.0748,-3.0596,-3.0444,-3.0267,-3.0049,-2.9805,-2.9534,-2.9287,-2.9,-2.8803,-2.8657,-2.855,-2.851,-2.851,-2.851,-2.8431,-2.8311,-2.8094,-2.7881,-2.7615,-2.7412,-2.7231,-2.7108,-2.7026,-2.6933,-3.8094,-3.7905,-3.7759,-3.7628,-3.7573,-3.8002,-3.8207,-3.8318,-3.8918,-3.9613,-4.0324,-4.0956,-4.119,-4.1056,-4.1107,-4.1,-4.0814,-4.0593,-4.042,-4.0261,-4.0101,-3.9854,-3.9589,-3.9301,-3.898,-3.8723,-3.8501,-3.8217,-3.7967,-3.7777,-3.7572,-3.738,-3.7264,-3.7226,-3.7187,-3.7095,-3.6978,-3.6978,-3.6894,-3.6413,-3.5386,-3.5161,-3.4562,-3.3501,-3.329,-3.3276,-3.3276,-3.3276,-3.3276,-3.3276,-3.3192,-3.3072,-3.2804,-3.2536,-3.2307,-3.2282,-3.2264,-3.2205,-3.2205,-3.2205,-3.2205,-3.2205,-3.2205,-3.2205,-3.2205,-3.2205,-3.2205,-3.2205,-3.2205,-3.2205,-3.2205,-3.2205,-3.2205,-3.2205,-3.2205,-3.2205,-3.2205,-3.2205,-3.2205,-3.2205,-3.2205,-3.2205,-3.2169,-3.2132,-3.2036,-3.1927,-3.178,-3.1596,-3.1397,-3.1211,-3.1136,-3.0949,-3.0748,-3.0533,-3.0343,-3.0075,-2.9805,-2.9573,-2.9287,-2.8988,-2.8803,-2.8657,-2.851,-2.851,-2.851,-2.851,-2.8363,-2.8186,-2.7933,-2.7696,-2.7464,-2.719,-2.719,-2.7108,-2.7056,-3.8078,-3.7905,-3.7759,-3.7612,-3.751,-3.7526,-3.7573,-3.7747,-3.8333,-3.895,-3.9598,-4.0293,-4.0559,-4.049,-4.0761,-4.0826,-4.073,-4.0558,-4.0385,-4.0226,-4.0031,-3.9747,-3.9445,-3.9156,-3.8833,-3.8516,-3.8292,-3.8066,-3.7853,-3.7572,-3.7341,-3.7226,-3.7109,-3.707,-3.7017,-3.7017,-3.6978,-3.6978,-3.6964,-3.6192,-3.5447,-3.511,-3.4351,-3.3585,-3.3276,-3.3276,-3.3276,-3.3276,-3.3276,-3.3227,-3.308,-3.2903,-3.269,-3.2371,-3.2218,-3.2191,-3.2205,-3.2205,-3.2205,-3.2205,-3.2205,-3.2205,-3.2205,-3.2205,-3.2205,-3.2205,-3.2205,-3.2205,-3.2205,-3.2205,-3.2205,-3.2205,-3.2205,-3.2205,-3.2205,-3.2205,-3.2205,-3.2205,-3.2205,-3.2205,-3.2205,-3.2205,-3.2205,-3.2169,-3.2073,-3.2,-3.1927,-3.178,-3.1633,-3.1522,-3.1434,-3.1248,-3.1024,-3.0836,-3.0609,-3.0305,-3.0037,-2.9818,-2.9573,-2.9275,-2.8988,-2.8803,-2.8697,-2.855,-2.851,-2.851,-2.8415,-2.8279,-2.7933,-2.7586,-2.7383,-2.719,-2.719,-2.719,-2.7138,-3.7963,-3.7876,-3.7642,-3.7539,-3.751,-3.751,-3.751,-3.7636,-3.8191,-3.8634,-3.895,-3.9582,-3.999,-4.0141,-4.0259,-4.045,-4.0531,-4.0436,-4.0261,-4.0101,-3.9889,-3.9538,-3.925,-3.8958,-3.8686,-3.8366,-3.8104,-3.7815,-3.751,-3.7341,-3.7226,-3.7095,-3.7017,-3.6978,-3.6978,-3.6978,-3.6978,-3.6894,-3.6585,-3.6005,-3.5259,-3.4773,-3.4161,-3.3333,-3.3276,-3.3276,-3.3276,-3.3276,-3.3241,-3.3143,-3.296,-3.2783,-3.2547,-3.229,-3.2196,-3.2191,-3.2205,-3.2205,-3.2205,-3.2205,-3.2205,-3.2205,-3.2205,-3.2205,-3.2205,-3.2205,-3.2205,-3.2205,-3.2205,-3.2205,-3.2205,-3.2205,-3.2205,-3.2205,-3.2205,-3.2205,-3.2205,-3.2205,-3.2205,-3.2205,-3.2205,-3.2205,-3.2205,-3.2205,-3.2146,-3.2109,-3.2036,-3.1963,-3.1817,-3.178,-3.1706,-3.1485,-3.1286,-3.1136,-3.0911,-3.0609,-3.0305,-3.0088,-2.9844,-2.956,-2.9275,-2.9,-2.8803,-2.8697,-2.8578,-2.851,-2.8375,-2.8238,-2.7824,-2.7487,-2.7313,-2.719,-2.719,-2.719,-2.719,-3.7876,-3.7817,-3.7599,-3.751,-3.751,-3.751,-3.751,-3.7589,-3.7954,-3.816,-3.8286,-3.8793,-3.9109,-3.9309,-3.9537,-3.984,-4.009,-3.9964,-4.008,-3.9915,-3.9696,-3.9358,-3.9053,-3.876,-3.8464,-3.8142,-3.7877,-3.7625,-3.7341,-3.7226,-3.7148,-3.7031,-3.6978,-3.6978,-3.6978,-3.6978,-3.6978,-3.6824,-3.6483,-3.5864,-3.5217,-3.4604,-3.3936,-3.3459,-3.3276,-3.3276,-3.3276,-3.3276,-3.3192,-3.3023,-3.2868,-3.2676,-3.2426,-3.2295,-3.2209,-3.2191,-3.2205,-3.2205,-3.2205,-3.2205,-3.2205,-3.2205,-3.2205,-3.2205,-3.2205,-3.2205,-3.2205,-3.2205,-3.2205,-3.2205,-3.2205,-3.2205,-3.2205,-3.2205,-3.2205,-3.2205,-3.2205,-3.2205,-3.2205,-3.2205,-3.2205,-3.2205,-3.2205,-3.2205,-3.2169,-3.2169,-3.2169,-3.2109,-3.2,-3.1963,-3.1927,-3.1743,-3.1559,-3.1397,-3.1174,-3.0911,-3.0609,-3.0356,-3.0075,-2.9805,-2.9534,-2.9248,-2.9,-2.8803,-2.8618,-2.8471,-2.8415,-2.8186,-2.7812,-2.7528,-2.7313,-2.7231,-2.719,-2.719,-2.719,-3.7817,-3.7671,-3.7553,-3.751,-3.751,-3.751,-3.751,-3.751,-3.7541,-3.7573,-3.7589,-3.8087,-3.8294,-3.8216,-3.8586,-3.9011,-3.9318,-3.9225,-3.9432,-3.9582,-3.9343,-3.9058,-3.8804,-3.8575,-3.8254,-3.7953,-3.7701,-3.7457,-3.7264,-3.7134,-3.7031,-3.6993,-3.6978,-3.6908,-3.6866,-3.6796,-3.6796,-3.6638,-3.6202,-3.5583,-3.4941,-3.4393,-3.381,-3.3417,-3.3276,-3.3276,-3.3276,-3.3241,-3.3157,-3.2952,-3.2775,-3.2596,-3.2431,-3.2264,-3.2205,-3.2205,-3.2205,-3.2205,-3.2205,-3.2205,-3.2205,-3.2205,-3.2205,-3.2205,-3.2205,-3.2205,-3.2205,-3.2205,-3.2205,-3.2205,-3.2205,-3.2205,-3.2205,-3.2205,-3.2205,-3.2205,-3.2205,-3.2205,-3.2205,-3.2205,-3.2205,-3.2205,-3.2205,-3.2205,-3.2205,-3.2205,-3.2205,-3.2169,-3.2109,-3.2132,-3.2073,-3.1977,-3.1817,-3.1656,-3.1434,-3.1174,-3.0911,-3.0647,-3.0305,-3.0037,-2.9728,-2.9456,-2.9157,-2.8882,-2.8657,-2.8471,-2.8363,-2.8134,-2.7852,-2.7609,-2.7353,-2.7231,-2.719,-2.719,-2.719,-3.7817,-3.7671,-3.7539,-3.751,-3.751,-3.751,-3.751,-3.751,-3.751,-3.751,-3.7496,-3.7504,-3.7684,-3.7997,-3.8042,-3.8265,-3.842,-3.8491,-3.8568,-3.8642,-3.865,-3.8574,-3.8421,-3.8235,-3.8023,-3.7734,-3.7453,-3.7246,-3.7134,-3.6978,-3.6978,-3.6978,-3.6894,-3.6726,-3.6497,-3.6356,-3.6342,-3.6174,-3.5709,-3.5166,-3.4576,-3.3986,-3.3543,-3.3347,-3.3276,-3.3276,-3.3276,-3.3157,-3.3037,-3.281,-3.2596,-3.2431,-3.2277,-3.2205,-3.2205,-3.2205,-3.2205,-3.2205,-3.2205,-3.2205,-3.2205,-3.2205,-3.2205,-3.2205,-3.2205,-3.2205,-3.2205,-3.2205,-3.2205,-3.2205,-3.2205,-3.2205,-3.2205,-3.2205,-3.2205,-3.2205,-3.2205,-3.2205,-3.2205,-3.2205,-3.2205,-3.2205,-3.2205,-3.2205,-3.2205,-3.2205,-3.2205,-3.2205,-3.2205,-3.2205,-3.2182,-3.2073,-3.2,-3.184,-3.1656,-3.1434,-3.1174,-3.0911,-3.0571,-3.0267,-2.9998,-2.9677,-2.9314,-2.9,-2.8697,-2.8471,-2.8311,-2.8082,-2.7921,-2.7598,-2.7383,-2.7272,-2.719,-2.719,-2.719,-3.773,-3.7612,-3.7524,-3.751,-3.751,-3.751,-3.751,-3.751,-3.751,-3.748,-3.7359,-3.7195,-3.7279,-3.7359,-3.7233,-3.7382,-3.78,-3.7628,-3.7677,-3.7967,-3.7753,-3.759,-3.758,-3.7498,-3.723,-3.7073,-3.7068,-3.6929,-3.6877,-3.6936,-3.6936,-3.6624,-3.6666,-3.6286,-3.592,-3.5709,-3.5569,-3.5293,-3.4955,-3.459,-3.414,-3.3613,-3.3375,-3.3276,-3.3276,-3.3276,-3.3276,-3.3108,-3.2917,-3.2704,-3.2525,-3.2322,-3.2241,-3.2205,-3.2205,-3.2205,-3.2205,-3.2205,-3.2205,-3.2205,-3.2205,-3.2205,-3.2205,-3.2205,-3.2205,-3.2205,-3.2205,-3.2205,-3.2205,-3.2205,-3.2205,-3.2205,-3.2205,-3.2205,-3.2205,-3.2205,-3.2205,-3.2205,-3.2205,-3.2205,-3.2205,-3.2205,-3.2205,-3.2205,-3.2205,-3.2205,-3.2205,-3.2205,-3.2205,-3.2205,-3.2205,-3.2146,-3.2073,-3.2,-3.1803,-3.1656,-3.1397,-3.1099,-3.0773,-3.0457,-3.0228,-2.9844,-2.9443,-2.9052,-2.8709,-2.851,-2.8351,-2.8191,-2.8002,-2.7708,-2.7464,-2.7342,-2.726,-2.719,-2.719,-3.7612,-3.751,-3.751,-3.751,-3.751,-3.751,-3.751,-3.748,-3.7464,-3.7359,-3.7194,-3.7044,-3.6893,-3.6863,-3.6614,-3.6687,-3.6875,-3.6799,-3.6847,-3.7325,-3.6961,-3.6708,-3.6504,-3.6158,-3.6341,-3.6347,-3.6302,-3.6316,-3.6652,-3.6585,-3.6314,-3.6047,-3.6033,-3.5723,-3.5217,-3.5119,-3.4843,-3.4379,-3.4231,-3.4048,-3.395,-3.3599,-3.3276,-3.3276,-3.3276,-3.3276,-3.3206,-3.3072,-3.2881,-3.2704,-3.2503,-3.23,-3.2241,-3.2205,-3.2205,-3.2205,-3.2205,-3.2205,-3.2205,-3.2205,-3.2205,-3.2205,-3.2205,-3.2205,-3.2205,-3.2205,-3.2205,-3.2205,-3.2205,-3.2205,-3.2205,-3.2205,-3.2205,-3.2205,-3.2205,-3.2205,-3.2205,-3.2205,-3.2205,-3.2205,-3.2205,-3.2205,-3.2205,-3.2205,-3.2205,-3.2205,-3.2205,-3.2205,-3.2205,-3.2205,-3.2205,-3.2205,-3.2132,-3.2073,-3.1963,-3.178,-3.1596,-3.1299,-3.0962,-3.0609,-3.033,-2.996,-2.9546,-2.9143,-2.8776,-2.863,-2.8471,-2.8271,-2.807,-2.7869,-2.7626,-2.7412,-2.7342,-2.7231,-2.719,-3.7612,-3.751,-3.751,-3.751,-3.751,-3.751,-3.7405,-3.7284,-3.7254,-3.7254,-3.7164,-3.6892,-3.6754,-3.6631,-3.6336,-3.6331,-3.6216,-3.609,-3.6063,-3.6137,-3.604,-3.5918,-3.5963,-3.564,-3.5681,-3.5625,-3.5591,-3.5643,-3.578,-3.5738,-3.5625,-3.5428,-3.54,-3.5068,-3.4506,-3.445,-3.4169,-3.3669,-3.3627,-3.3613,-3.3543,-3.3473,-3.3276,-3.3276,-3.3276,-3.3192,-3.3072,-3.2881,-3.2704,-3.2489,-3.2336,-3.2241,-3.2205,-3.2205,-3.2205,-3.2205,-3.2205,-3.2205,-3.2205,-3.2205,-3.2205,-3.2205,-3.2205,-3.2205,-3.2205,-3.2205,-3.2205,-3.2205,-3.2205,-3.2205,-3.2205,-3.2205,-3.2205,-3.2205,-3.2205,-3.2205,-3.2205,-3.2205,-3.2205,-3.2205,-3.2205,-3.2205,-3.2205,-3.2205,-3.2205,-3.2205,-3.2205,-3.2205,-3.2205,-3.2205,-3.2205,-3.2205,-3.2205,-3.2146,-3.2073,-3.1927,-3.1706,-3.1471,-3.1136,-3.0836,-3.0444,-2.9985,-2.9534,-2.9209,-2.8882,-2.8736,-2.8538,-2.8299,-2.8139,-2.795,-2.7748,-2.7534,-2.7342,-2.7231,-2.719,-3.7569,-3.751,-3.751,-3.751,-3.748,-3.7405,-3.73,-3.7194,-3.7043,-3.6983,-3.6968,-3.6769,-3.6631,-3.6492,-3.6211,-3.5973,-3.5765,-3.5489,-3.5433,-3.5305,-3.5215,-3.5042,-3.5022,-3.4975,-3.4874,-3.4842,-3.515,-3.5217,-3.5105,-3.5189,-3.5203,-3.4815,-3.4702,-3.4464,-3.3908,-3.3768,-3.3655,-3.3333,-3.329,-3.3276,-3.3276,-3.3276,-3.3276,-3.3276,-3.3206,-3.3108,-3.2952,-3.2739,-3.2561,-3.2395,-3.23,-3.2205,-3.2205,-3.2205,-3.2205,-3.2205,-3.2205,-3.2205,-3.2205,-3.2205,-3.2205,-3.2205,-3.2205,-3.2205,-3.2205,-3.2205,-3.2205,-3.2205,-3.2205,-3.2205,-3.2205,-3.2205,-3.2205,-3.2205,-3.2205,-3.2205,-3.2205,-3.2205,-3.2205,-3.2205,-3.2205,-3.2205,-3.2205,-3.2205,-3.2205,-3.2205,-3.2205,-3.2205,-3.2205,-3.2205,-3.2205,-3.2205,-3.2205,-3.2205,-3.2132,-3.2,-3.178,-3.1559,-3.1323,-3.0936,-3.052,-2.9985,-2.9521,-2.9275,-2.904,-2.8791,-2.8593,-2.8407,-2.8259,-2.8099,-2.7869,-2.7626,-2.7435,-2.7272,-2.7231,-3.751,-3.751,-3.751,-3.748,-3.7435,-3.7284,-3.7194,-3.7074,-3.6831,-3.6693,-3.6616,-3.6631,-3.643,-3.6242,-3.5973,-3.5748,-3.5504,-3.5228,-3.4975,-3.4742,-3.452,-3.4387,-3.4131,-3.3866,-3.4016,-3.4248,-3.4528,-3.4697,-3.4725,-3.4697,-3.445,-3.4147,-3.3978,-3.381,-3.3431,-3.329,-3.329,-3.329,-3.3276,-3.3276,-3.3276,-3.3276,-3.3276,-3.3192,-3.3108,-3.2974,-3.2797,-3.2632,-3.2417,-3.2322,-3.2277,-3.2205,-3.2205,-3.2205,-3.2205,-3.2205,-3.2205,-3.2205,-3.2205,-3.2205,-3.2205,-3.2205,-3.2205,-3.2205,-3.2205,-3.2205,-3.2205,-3.2205,-3.2205,-3.2205,-3.2205,-3.2205,-3.2205,-3.2205,-3.2205,-3.2205,-3.2205,-3.2205,-3.2205,-3.2205,-3.2205,-3.2205,-3.2205,-3.2205,-3.2205,-3.2205,-3.2205,-3.2205,-3.2205,-3.2205,-3.2205,-3.2205,-3.2205,-3.2205,-3.2205,-3.2109,-3.1927,-3.1706,-3.1485,-3.1011,-3.0596,-3.0101,-2.9754,-2.9482,-2.9236,-2.891,-2.8724,-2.8578,-2.8419,-2.8219,-2.8059,-2.7829,-2.7545,-2.7383,-2.726,-3.751,-3.751,-3.751,-3.7405,-3.7254,-3.7194,-3.7043,-3.68,-3.6723,-3.6554,-3.6367,-3.6305,-3.6242,-3.6179,-3.5748,-3.5504,-3.5341,-3.4997,-3.4683,-3.4462,-3.423,-3.3937,-3.3744,-3.3605,-3.3571,-3.3677,-3.3775,-3.3691,-3.4014,-3.3874,-3.3677,-3.3529,-3.3501,-3.3431,-3.3375,-3.3276,-3.3276,-3.3276,-3.3241,-3.3206,-3.3157,-3.3157,-3.3143,-3.3108,-3.3023,-3.2775,-3.2596,-3.2453,-3.2359,-3.2277,-3.2205,-3.2205,-3.2205,-3.2205,-3.2205,-3.2205,-3.2205,-3.2205,-3.2205,-3.2205,-3.2205,-3.2205,-3.2205,-3.2205,-3.2205,-3.2205,-3.2205,-3.2205,-3.2205,-3.2205,-3.2205,-3.2205,-3.2205,-3.2205,-3.2205,-3.2205,-3.2205,-3.2205,-3.2205,-3.2205,-3.2205,-3.2205,-3.2205,-3.2205,-3.2205,-3.2205,-3.2205,-3.2205,-3.2205,-3.2205,-3.2205,-3.2205,-3.2205,-3.2205,-3.2205,-3.2205,-3.2073,-3.1853,-3.1596,-3.1136,-3.0723,-3.0356,-2.9998,-2.9728,-2.9365,-2.904,-2.8843,-2.8697,-2.8498,-2.8299,-2.8219,-2.8018,-2.7736,-2.7493,-2.7371]},{"header":{"parameterUnit":"m.s-1","parameterCategory":1,"la1":31.0,"la2":29.5877,"lo1":-88.7671,"lo2":-86.6584,"dy":0.0162,"dx":0.0185,"nx":115,"ny":88,"refTime":"2023-06-01T06:00:00:Z","depth":0,"parameterNumber":3,"parameterNumberName":"V-component_of_WINDS"},"data":[0.0,0.0,0.0,0.0,0.0,0.0,0.0,0.0,0.0,0.0,0.0,0.0,0.0,0.0,0.0,0.0,0.0,0.0,0.0,0.0,0.0,0.0,0.0,0.0,0.0,0.0,0.0,0.0,0.0,0.0,0.0,0.0,0.0,0.0,0.0,0.0,0.0,0.0,0.0,0.0,0.0,0.0,0.0,0.0,0.0,0.0,0.0,0.0,0.0,0.0,0.0,0.0,0.0,0.0,0.0,0.0,0.0,0.0,0.0,0.0,0.0,0.0,0.0,0.0,0.0,0.0,0.0,0.0,0.0,0.0,0.0,0.0,0.0,0.0,0.0,0.0,0.0,0.0,0.0,0.0,0.0,0.0,0.0,0.0,0.0,0.0,0.0,0.0,0.0,0.0,0.0,0.0,0.0,0.0,0.0,0.0,0.0,0.0,0.0,0.0,0.0,0.0,0.0,0.0,0.0,0.0,0.0,0.0,0.0,0.0,0.0,0.0,0.0,0.0,0.0,0.0,0.0,0.0,0.0,0.0,0.0,0.0,0.0,0.0,0.0,0.0,0.0,0.0,0.0,0.0,0.0,0.0,0.0,0.0,0.0,0.0,0.0,0.0,0.0,0.0,0.0,0.0,0.0,0.0,0.0,0.0,0.0,0.0,0.0,0.0,0.0,0.0,0.0,0.0,0.0,0.0,0.0,0.0,0.0,0.0,0.0,0.0,0.0,0.0,0.0,0.0,0.0,0.0,0.0,0.0,0.0,0.0,0.0,0.0,0.0,0.0,0.0,0.0,0.0,0.0,0.0,0.0,0.0,0.0,0.0,0.0,0.0,0.0,0.0,0.0,0.0,0.0,0.0,0.0,0.0,0.0,0.0,0.0,0.0,0.0,0.0,0.0,0.0,0.0,0.0,0.0,0.0,0.0,0.0,0.0,0.0,0.0,0.0,0.0,0.0,0.0,0.0,0.0,0.0,0.0,0.0,0.0,0.0,0.0,0.0,0.0,0.0,0.0,0.0,0.0,0.0,0.0,0.0,0.0,0.0,0.0,0.0,0.0,0.0,0.0,0.0,0.0,0.0,0.0,0.0,0.0,0.0,0.0,0.0,0.0,0.0,0.0,0.0,0.0,0.0,0.0,0.0,0.0,0.0,0.0,0.0,0.0,0.0,0.0,0.0,0.0,0.0,0.0,0.0,0.0,0.0,0.0,0.0,0.0,0.0,0.0,0.0,0.0,0.0,0.0,0.0,0.0,0.0,0.0,0.0,0.0,0.0,0.0,0.0,0.0,0.0,0.0,0.0,0.0,0.0,0.0,0.0,0.0,0.0,0.0,0.0,0.0,0.0,0.0,0.0,0.0,0.0,0.0,0.0,0.0,0.0,0.0,0.0,0.0,0.0,0.0,0.0,0.0,0.0,0.0,0.0,0.0,0.0,0.0,0.0,0.0,0.0,0.0,0.0,0.0,0.0,0.0,0.0,0.0,0.0,0.0,0.0,0.0,0.0,0.0,0.0,0.0,0.0,0.0,0.0,0.0,0.0,0.0,0.0,0.0,0.0,0.0,0.0,0.0,0.0,0.0,0.0,0.0,0.0,0.0,0.0,0.0,0.0,0.0,0.0,0.0,0.0,0.0,0.0,0.0,0.0,0.0,0.0,0.0,0.0,0.0,0.0,0.0,0.0,0.0,0.0,0.0,0.0,0.0,0.0,0.0,0.0,0.0,0.0,0.0,0.0,0.0,0.0,0.0,0.0,0.0,0.0,0.0,0.0,0.0,0.0,0.0,0.0,0.0,0.0,0.0,0.0,0.0,0.0,0.0,0.0,0.0,0.0,0.0,0.0,0.0,0.0,0.0,0.0,0.0,0.0,0.0,0.0,0.0,0.0,0.0,0.0,0.0,0.0,0.0,0.0,0.0,0.0,0.0,0.0,0.0,0.0,0.0,0.0,0.0,0.0,0.0,0.0,0.0,0.0,0.0,0.0,0.0,0.0,0.0,0.0,0.0,0.0,0.0,0.0,0.0,0.0,0.0,0.0,0.0,0.0,0.0,0.0,0.0,0.0,0.0,0.0,0.0,0.0,0.0,0.0,0.0,0.0,0.0,0.0,0.0,0.0,0.0,0.0,0.0,0.0,0.0,0.0,0.0,0.0,0.0,0.0,0.0,0.0,0.0,0.0,0.0,0.0,0.0,0.0,0.0,0.0,0.0,0.0,0.0,0.0,0.0,0.0,0.0,0.0,0.0,0.0,0.0,0.0,0.0,0.0,0.0,0.0,0.0,0.0,0.0,0.0,0.0,0.0,0.0,0.0,0.0,0.0,0.0,0.0,0.0,0.0,0.0,0.0,0.0,0.0,0.0,0.0,0.0,0.0,0.0,0.0,0.0,0.0,0.0,0.0,0.0,0.0,0.0,0.0,0.0,0.0,0.0,0.0,0.0,0.0,0.0,0.0,0.0,0.0,0.0,0.0,0.0,0.0,0.0,0.0,0.0,0.0,0.0,0.0,0.0,0.0,0.0,0.0,0.0,0.0,0.0,0.0,0.0,0.0,0.0,0.0,0.0,0.0,0.0,0.0,0.0,0.0,0.0,0.0,0.0,0.0,0.0,0.0,0.0,0.0,0.0,0.0,0.0,0.0,0.0,0.0,0.0,0.0,0.0,0.0,0.0,0.0,0.0,0.0,0.0,0.0,0.0,0.0,0.0,0.0,0.0,0.0,0.0,0.0,0.0,0.0,0.0,0.0,0.0,0.0,0.0,0.0,0.0,0.0,0.0,0.0,0.0,0.0,0.0,0.0,0.0,0.0,0.0,0.0,0.0,0.0,0.0,0.0,0.0,0.0,0.0,0.0,0.0,0.0,0.0,0.0,0.0,0.0,0.0,0.0,0.0,0.0,0.0,0.0,0.0,0.0,0.0,0.0,0.0,0.0,0.0,0.0,0.0,0.0,0.0,0.0,0.0,0.0,0.0,0.0,0.0,0.0,0.0,0.0,0.0,0.0,0.0,0.0,0.0,0.0,0.0,0.0,0.0,0.0,0.0,0.0,0.0,0.0,0.0,0.0,0.0,0.0,0.0,0.0,0.0,0.0,0.0,0.0,0.0,0.0,0.0,0.0,0.0,0.0,0.0,0.0,0.0,0.0,0.0,0.0,0.0,0.0,0.0,0.0,0.0,0.0,0.0,0.0,0.0,0.0,0.0,0.0,0.0,0.0,0.0,0.0,0.0,0.0,0.0,0.0,0.0,0.0,0.0,0.0,0.0,0.0,0.0,0.0,0.0,0.0,0.0,0.0,0.0,0.0,0.0,0.0,0.0,0.0,0.0,0.0,0.0,0.0,0.0,0.0,0.0,0.0,0.0,0.0,0.0,0.0,0.0,0.0,0.0,0.0,0.0,0.0,0.0,0.0,0.0,0.0,0.0,0.0,0.0,0.0,0.0,0.0,0.0,0.0,0.0,0.0,0.0,0.0,0.0,0.0,0.0,0.0,0.0,0.0,0.0,0.0,0.0,0.0,0.0,0.0,0.0,0.0,0.0,0.0,0.0,0.0,0.0,0.0,0.0,0.0,0.0,0.0,0.0,0.0,0.0,0.0,0.0,0.0,0.0,0.0,0.0,0.0,0.0,0.0,0.0,0.0,0.0,0.0,0.0,0.0,0.0,0.0,0.0,0.0,0.0,0.0,0.0,0.0,0.0,0.0,0.0,0.0,0.0,0.0,0.0,0.0,0.0,0.0,0.0,0.0,0.0,0.0,0.0,0.0,0.0,0.0,0.0,0.0,0.0,0.0,0.0,0.0,0.0,0.0,0.0,0.0,0.0,0.0,0.0,0.0,0.0,0.0,0.0,0.0,0.0,0.0,0.0,0.0,0.0,0.0,0.0,0.0,0.0,0.0,0.0,0.0,0.0,0.0,0.0,0.0,0.0,0.0,0.0,0.0,0.0,0.0,0.0,0.0,0.0,0.0,0.0,0.0,0.0,0.0,0.0,0.0,0.0,0.0,0.0,0.0,0.0,0.0,0.0,0.0,0.0,0.0,0.0,0.0,0.0,0.0,0.0,0.0,0.0,0.0,0.0,0.0,0.0,0.0,0.0,0.0,0.0,0.0,0.0,0.0,0.0,0.0,0.0,0.0,0.0,0.0,0.0,0.0,0.0,0.0,0.0,0.0,0.0,0.0,0.0,0.0,0.0,0.0,0.0,0.0,0.0,0.0,0.0,0.0,0.0,0.0,0.0,0.0,0.0,0.0,0.0,0.0,0.0,0.0,0.0,0.0,0.0,-4.325,0.0,0.0,0.0,0.0,0.0,0.0,0.0,0.0,0.0,0.0,0.0,0.0,0.0,0.0,0.0,0.0,0.0,0.0,0.0,0.0,0.0,0.0,0.0,0.0,0.0,0.0,0.0,0.0,0.0,0.0,0.0,0.0,0.0,0.0,0.0,0.0,0.0,0.0,0.0,0.0,0.0,0.0,0.0,0.0,0.0,0.0,0.0,0.0,0.0,0.0,0.0,0.0,0.0,0.0,0.0,0.0,0.0,0.0,0.0,0.0,0.0,0.0,0.0,0.0,0.0,0.0,0.0,0.0,0.0,0.0,0.0,0.0,0.0,0.0,0.0,0.0,0.0,0.0,0.0,0.0,0.0,0.0,0.0,0.0,0.0,0.0,0.0,0.0,0.0,0.0,0.0,0.0,0.0,0.0,0.0,0.0,0.0,0.0,0.0,0.0,0.0,0.0,0.0,0.0,0.0,0.0,0.0,0.0,0.0,0.0,-4.3693,-4.3422,-4.3123,-4.2883,-4.2655,0.0,0.0,0.0,0.0,0.0,0.0,0.0,0.0,0.0,0.0,0.0,0.0,0.0,0.0,0.0,0.0,0.0,0.0,0.0,0.0,0.0,0.0,0.0,0.0,0.0,0.0,0.0,0.0,0.0,0.0,0.0,0.0,0.0,0.0,0.0,0.0,0.0,0.0,0.0,0.0,0.0,0.0,0.0,0.0,0.0,0.0,0.0,0.0,0.0,0.0,0.0,0.0,0.0,0.0,0.0,0.0,0.0,0.0,0.0,0.0,0.0,0.0,0.0,0.0,0.0,0.0,0.0,0.0,0.0,0.0,0.0,0.0,0.0,0.0,0.0,0.0,0.0,0.0,0.0,0.0,0.0,0.0,0.0,0.0,0.0,0.0,0.0,0.0,0.0,0.0,0.0,0.0,0.0,0.0,0.0,0.0,0.0,0.0,0.0,0.0,0.0,0.0,0.0,0.0,0.0,0.0,0.0,0.0,0.0,0.0,0.0,0.0,-4.2616,-4.2297,-4.1927,0.0,0.0,0.0,0.0,0.0,0.0,0.0,0.0,0.0,0.0,0.0,0.0,0.0,0.0,0.0,0.0,0.0,0.0,0.0,0.0,0.0,0.0,0.0,0.0,0.0,0.0,0.0,0.0,0.0,0.0,0.0,0.0,0.0,0.0,0.0,0.0,0.0,0.0,0.0,0.0,0.0,0.0,0.0,0.0,0.0,0.0,0.0,0.0,0.0,0.0,0.0,0.0,0.0,0.0,0.0,0.0,0.0,0.0,0.0,0.0,0.0,0.0,0.0,0.0,0.0,0.0,0.0,0.0,0.0,0.0,0.0,0.0,0.0,0.0,0.0,0.0,0.0,0.0,0.0,0.0,0.0,0.0,0.0,0.0,0.0,0.0,0.0,0.0,0.0,0.0,0.0,0.0,0.0,0.0,0.0,0.0,0.0,0.0,0.0,0.0,0.0,0.0,0.0,0.0,0.0,0.0,0.0,0.0,0.0,0.0,-4.25,-4.2279,-4.1899,0.0,-4.114,0.0,0.0,0.0,0.0,0.0,0.0,0.0,0.0,0.0,0.0,0.0,0.0,0.0,0.0,0.0,0.0,0.0,0.0,0.0,0.0,0.0,0.0,0.0,0.0,0.0,0.0,0.0,0.0,0.0,0.0,0.0,0.0,0.0,0.0,0.0,0.0,0.0,0.0,0.0,0.0,0.0,0.0,0.0,0.0,0.0,0.0,0.0,0.0,0.0,0.0,0.0,0.0,0.0,0.0,0.0,0.0,0.0,0.0,0.0,0.0,0.0,0.0,0.0,0.0,0.0,0.0,0.0,0.0,0.0,0.0,0.0,0.0,0.0,0.0,0.0,0.0,0.0,0.0,0.0,0.0,0.0,0.0,0.0,0.0,0.0,0.0,0.0,0.0,0.0,0.0,0.0,0.0,0.0,0.0,0.0,0.0,0.0,0.0,0.0,0.0,0.0,0.0,0.0,0.0,0.0,0.0,0.0,0.0,0.0,0.0,-4.1846,-4.1477,-4.0949,-4.0611,0.0,0.0,0.0,0.0,0.0,0.0,0.0,0.0,0.0,0.0,0.0,0.0,0.0,0.0,0.0,0.0,0.0,0.0,0.0,0.0,0.0,0.0,0.0,0.0,0.0,0.0,0.0,0.0,0.0,0.0,0.0,0.0,0.0,0.0,0.0,0.0,0.0,0.0,0.0,0.0,0.0,0.0,0.0,0.0,0.0,0.0,0.0,0.0,0.0,0.0,0.0,0.0,0.0,0.0,0.0,0.0,0.0,0.0,0.0,0.0,0.0,0.0,0.0,0.0,0.0,0.0,0.0,0.0,0.0,0.0,0.0,0.0,0.0,0.0,0.0,0.0,0.0,0.0,0.0,0.0,0.0,0.0,0.0,0.0,0.0,0.0,0.0,0.0,0.0,0.0,0.0,0.0,0.0,0.0,0.0,0.0,0.0,0.0,0.0,0.0,0.0,0.0,0.0,0.0,0.0,0.0,0.0,0.0,0.0,0.0,-4.1587,-4.1071,-4.0528,-3.9986,-3.9765,-3.9884,0.0,0.0,0.0,0.0,0.0,0.0,0.0,0.0,0.0,0.0,0.0,0.0,0.0,0.0,0.0,0.0,0.0,0.0,0.0,0.0,0.0,0.0,0.0,0.0,0.0,0.0,0.0,0.0,0.0,0.0,0.0,0.0,0.0,0.0,0.0,0.0,0.0,0.0,0.0,0.0,0.0,0.0,0.0,0.0,0.0,0.0,0.0,0.0,0.0,0.0,0.0,0.0,0.0,0.0,0.0,0.0,0.0,0.0,0.0,0.0,0.0,0.0,0.0,0.0,0.0,0.0,0.0,0.0,0.0,0.0,0.0,0.0,0.0,0.0,0.0,0.0,0.0,0.0,0.0,0.0,0.0,0.0,0.0,0.0,0.0,0.0,0.0,0.0,0.0,0.0,0.0,0.0,0.0,0.0,0.0,0.0,0.0,0.0,0.0,0.0,0.0,0.0,0.0,0.0,0.0,0.0,0.0,0.0,-4.1331,-4.075,-4.0078,-3.9322,-3.9109,-3.899,0.0,0.0,0.0,0.0,0.0,0.0,0.0,0.0,0.0,0.0,0.0,0.0,0.0,0.0,0.0,0.0,0.0,0.0,0.0,0.0,0.0,0.0,0.0,0.0,0.0,0.0,0.0,0.0,0.0,0.0,0.0,0.0,0.0,0.0,0.0,0.0,0.0,0.0,0.0,0.0,0.0,0.0,0.0,0.0,0.0,0.0,0.0,0.0,0.0,0.0,0.0,0.0,0.0,0.0,0.0,0.0,0.0,0.0,0.0,0.0,0.0,0.0,0.0,0.0,0.0,0.0,0.0,0.0,0.0,0.0,0.0,0.0,0.0,0.0,0.0,0.0,0.0,0.0,0.0,0.0,0.0,0.0,0.0,0.0,0.0,0.0,0.0,0.0,0.0,0.0,0.0,0.0,0.0,0.0,0.0,0.0,0.0,0.0,0.0,0.0,0.0,0.0,0.0,0.0,0.0,0.0,0.0,0.0,0.0,-4.0349,-3.9508,-3.8849,-3.8411,-3.823,-3.8189,0.0,0.0,0.0,0.0,0.0,0.0,0.0,0.0,0.0,0.0,0.0,0.0,0.0,0.0,0.0,0.0,0.0,0.0,0.0,0.0,0.0,0.0,0.0,0.0,0.0,0.0,0.0,0.0,0.0,0.0,0.0,0.0,0.0,0.0,0.0,0.0,0.0,0.0,0.0,0.0,0.0,0.0,0.0,0.0,0.0,0.0,0.0,0.0,0.0,0.0,0.0,0.0,0.0,0.0,0.0,0.0,0.0,0.0,0.0,0.0,0.0,0.0,0.0,0.0,0.0,0.0,0.0,0.0,0.0,0.0,0.0,0.0,0.0,0.0,0.0,0.0,0.0,0.0,0.0,0.0,0.0,0.0,0.0,0.0,0.0,0.0,0.0,0.0,0.0,0.0,0.0,0.0,0.0,0.0,0.0,0.0,0.0,0.0,0.0,0.0,0.0,0.0,0.0,0.0,0.0,0.0,0.0,0.0,0.0,-3.9096,0.0,-3.7812,-3.7535,-3.7389,-3.7359,0.0,0.0,0.0,0.0,0.0,0.0,0.0,0.0,0.0,0.0,0.0,0.0,0.0,0.0,0.0,0.0,0.0,0.0,0.0,0.0,0.0,0.0,0.0,0.0,0.0,0.0,0.0,0.0,0.0,0.0,0.0,0.0,0.0,0.0,0.0,0.0,0.0,0.0,0.0,0.0,0.0,0.0,0.0,0.0,0.0,0.0,0.0,0.0,0.0,0.0,0.0,0.0,0.0,0.0,0.0,0.0,0.0,0.0,0.0,0.0,0.0,0.0,0.0,0.0,0.0,0.0,0.0,0.0,0.0,0.0,0.0,0.0,0.0,0.0,0.0,0.0,0.0,0.0,0.0,0.0,0.0,0.0,0.0,0.0,0.0,0.0,0.0,0.0,0.0,0.0,0.0,0.0,0.0,0.0,0.0,0.0,0.0,0.0,0.0,0.0,0.0,0.0,0.0,0.0,0.0,0.0,0.0,0.0,-3.8821,-3.7677,-3.7326,-3.7013,-3.6693,-3.6569,-3.6492,0.0,0.0,0.0,0.0,0.0,0.0,0.0,0.0,0.0,0.0,0.0,0.0,0.0,0.0,0.0,0.0,0.0,0.0,0.0,0.0,0.0,0.0,0.0,0.0,0.0,0.0,0.0,0.0,0.0,0.0,0.0,0.0,0.0,0.0,0.0,0.0,0.0,0.0,0.0,0.0,0.0,0.0,0.0,0.0,0.0,0.0,0.0,0.0,0.0,0.0,0.0,0.0,0.0,0.0,0.0,0.0,0.0,0.0,0.0,0.0,0.0,0.0,0.0,0.0,0.0,0.0,0.0,0.0,0.0,0.0,0.0,0.0,0.0,0.0,0.0,0.0,0.0,0.0,0.0,0.0,0.0,0.0,0.0,0.0,0.0,0.0,0.0,0.0,0.0,0.0,0.0,0.0,0.0,0.0,0.0,0.0,0.0,0.0,0.0,0.0,0.0,0.0,0.0,0.0,0.0,0.0,0.0,0.0,0.0,-3.6631,-3.6337,-3.6054,-3.58,-3.5769,-3.5737,0.0,0.0,0.0,0.0,0.0,0.0,0.0,0.0,0.0,0.0,0.0,0.0,0.0,0.0,0.0,0.0,0.0,0.0,0.0,0.0,0.0,0.0,0.0,0.0,0.0,0.0,0.0,0.0,0.0,0.0,0.0,0.0,0.0,0.0,0.0,0.0,0.0,0.0,0.0,0.0,0.0,0.0,0.0,0.0,0.0,0.0,0.0,0.0,0.0,0.0,0.0,0.0,0.0,0.0,0.0,0.0,0.0,0.0,0.0,0.0,0.0,0.0,0.0,0.0,0.0,0.0,0.0,0.0,0.0,0.0,0.0,0.0,0.0,0.0,0.0,0.0,0.0,0.0,0.0,0.0,0.0,0.0,0.0,0.0,0.0,0.0,0.0,0.0,0.0,0.0,0.0,0.0,0.0,0.0,0.0,0.0,0.0,0.0,0.0,0.0,0.0,0.0,0.0,0.0,0.0,0.0,0.0,0.0,0.0,-3.5204,-3.5285,-3.5219,-3.5037,-3.5023,-3.5055,-3.5136,0.0,0.0,0.0,0.0,0.0,0.0,0.0,0.0,0.0,0.0,0.0,0.0,0.0,0.0,0.0,0.0,0.0,0.0,0.0,0.0,0.0,0.0,0.0,0.0,0.0,0.0,0.0,0.0,0.0,0.0,0.0,0.0,0.0,0.0,0.0,0.0,0.0,0.0,0.0,0.0,0.0,0.0,0.0,0.0,0.0,0.0,0.0,0.0,0.0,0.0,0.0,0.0,0.0,0.0,0.0,0.0,0.0,0.0,0.0,0.0,0.0,0.0,0.0,0.0,0.0,0.0,0.0,0.0,0.0,0.0,0.0,0.0,0.0,0.0,0.0,0.0,0.0,0.0,0.0,0.0,0.0,0.0,0.0,0.0,0.0,0.0,0.0,0.0,0.0,0.0,0.0,0.0,0.0,0.0,0.0,0.0,0.0,0.0,0.0,0.0,0.0,0.0,0.0,0.0,0.0,0.0,0.0,0.0,-3.3548,-3.4138,-3.4423,-3.4346,-3.4346,-3.4414,0.0,0.0,0.0,0.0,0.0,0.0,0.0,0.0,0.0,0.0,0.0,0.0,0.0,0.0,0.0,0.0,0.0,0.0,0.0,0.0,0.0,0.0,0.0,0.0,0.0,0.0,0.0,0.0,0.0,0.0,0.0,0.0,0.0,0.0,0.0,0.0,0.0,0.0,0.0,0.0,0.0,0.0,0.0,0.0,0.0,0.0,0.0,0.0,0.0,0.0,0.0,0.0,0.0,0.0,0.0,0.0,0.0,0.0,0.0,0.0,0.0,0.0,0.0,0.0,0.0,0.0,0.0,0.0,0.0,0.0,0.0,0.0,0.0,0.0,0.0,0.0,0.0,0.0,0.0,0.0,0.0,0.0,0.0,0.0,0.0,0.0,0.0,0.0,0.0,0.0,0.0,0.0,0.0,0.0,0.0,0.0,0.0,0.0,0.0,0.0,0.0,0.0,0.0,0.0,0.0,0.0,0.0,0.0,0.0,-3.2739,-3.2747,-3.3009,-3.3563,-3.3716,-3.3848,0.0,0.0,0.0,0.0,0.0,0.0,0.0,0.0,0.0,0.0,0.0,0.0,0.0,0.0,0.0,0.0,0.0,0.0,0.0,0.0,0.0,0.0,0.0,0.0,0.0,0.0,0.0,0.0,0.0,0.0,0.0,0.0,0.0,0.0,0.0,0.0,0.0,0.0,0.0,0.0,0.0,0.0,0.0,0.0,0.0,0.0,0.0,0.0,0.0,0.0,0.0,0.0,0.0,0.0,0.0,0.0,0.0,0.0,0.0,0.0,0.0,0.0,0.0,0.0,0.0,0.0,0.0,0.0,0.0,0.0,0.0,0.0,0.0,0.0,0.0,0.0,0.0,0.0,0.0,0.0,0.0,0.0,0.0,0.0,0.0,0.0,0.0,0.0,0.0,0.0,0.0,0.0,0.0,0.0,0.0,0.0,0.0,0.0,0.0,0.0,0.0,0.0,0.0,0.0,0.0,0.0,0.0,0.0,-3.1969,-3.1813,-3.1703,-3.1909,-3.2453,-3.286,-3.3157,0.0,0.0,0.0,0.0,0.0,0.0,0.0,0.0,0.0,0.0,0.0,0.0,0.0,0.0,0.0,0.0,0.0,0.0,0.0,0.0,0.0,0.0,0.0,0.0,0.0,0.0,0.0,0.0,0.0,0.0,0.0,0.0,0.0,0.0,0.0,0.0,0.0,0.0,0.0,0.0,0.0,0.0,0.0,0.0,0.0,0.0,0.0,0.0,0.0,0.0,0.0,0.0,0.0,0.0,0.0,0.0,0.0,0.0,0.0,0.0,0.0,0.0,0.0,0.0,0.0,0.0,0.0,0.0,0.0,0.0,0.0,0.0,0.0,0.0,0.0,0.0,0.0,0.0,0.0,0.0,0.0,0.0,0.0,0.0,0.0,0.0,0.0,0.0,0.0,0.0,0.0,0.0,0.0,0.0,0.0,0.0,0.0,0.0,0.0,0.0,0.0,0.0,0.0,0.0,0.0,0.0,0.0,0.0,-3.1022,-3.0861,-3.0898,-3.0973,-3.1198,-3.1909,-3.2525,0.0,0.0,0.0,0.0,0.0,0.0,0.0,0.0,0.0,0.0,0.0,0.0,0.0,0.0,0.0,0.0,0.0,0.0,0.0,0.0,0.0,0.0,0.0,0.0,0.0,0.0,0.0,0.0,0.0,0.0,0.0,0.0,0.0,0.0,0.0,0.0,0.0,0.0,0.0,0.0,0.0,0.0,0.0,0.0,0.0,0.0,0.0,0.0,0.0,0.0,0.0,0.0,0.0,0.0,0.0,0.0,0.0,0.0,0.0,0.0,0.0,0.0,0.0,0.0,0.0,0.0,0.0,0.0,0.0,0.0,0.0,0.0,0.0,0.0,0.0,0.0,0.0,0.0,0.0,0.0,0.0,0.0,0.0,0.0,0.0,0.0,0.0,0.0,0.0,0.0,0.0,0.0,0.0,0.0,0.0,0.0,0.0,0.0,0.0,0.0,0.0,0.0,0.0,0.0,0.0,0.0,0.0,0.0,-3.0139,-2.9986,-3.0177,-3.0305,-3.0381,-3.1259,-3.1973,0.0,0.0,0.0,0.0,0.0,0.0,0.0,0.0,0.0,0.0,0.0,0.0,0.0,0.0,0.0,0.0,0.0,0.0,0.0,0.0,0.0,0.0,0.0,0.0,0.0,0.0,0.0,0.0,0.0,0.0,0.0,0.0,0.0,0.0,0.0,0.0,0.0,0.0,0.0,0.0,0.0,0.0,0.0,0.0,0.0,0.0,0.0,0.0,-3.438,0.0,0.0,0.0,0.0,0.0,0.0,0.0,0.0,0.0,0.0,0.0,0.0,0.0,0.0,0.0,0.0,0.0,0.0,0.0,0.0,0.0,0.0,0.0,0.0,0.0,0.0,0.0,0.0,0.0,0.0,0.0,0.0,0.0,0.0,0.0,0.0,0.0,0.0,0.0,0.0,0.0,0.0,0.0,0.0,0.0,0.0,0.0,0.0,0.0,0.0,0.0,0.0,0.0,0.0,0.0,0.0,0.0,0.0,0.0,-2.9535,-2.9419,-2.956,-2.9728,-2.9972,-3.0495,-3.1123,0.0,0.0,0.0,0.0,0.0,0.0,0.0,0.0,0.0,0.0,0.0,0.0,0.0,0.0,0.0,0.0,0.0,0.0,0.0,0.0,0.0,0.0,0.0,0.0,0.0,0.0,0.0,0.0,0.0,0.0,0.0,0.0,0.0,0.0,0.0,0.0,0.0,0.0,0.0,0.0,0.0,0.0,0.0,0.0,0.0,0.0,0.0,0.0,0.0,0.0,0.0,0.0,0.0,0.0,0.0,0.0,0.0,0.0,0.0,0.0,0.0,0.0,0.0,0.0,0.0,0.0,0.0,0.0,0.0,0.0,0.0,0.0,0.0,0.0,0.0,0.0,0.0,0.0,0.0,0.0,0.0,0.0,0.0,0.0,0.0,0.0,0.0,0.0,0.0,0.0,0.0,0.0,0.0,0.0,0.0,0.0,0.0,0.0,0.0,0.0,0.0,0.0,0.0,0.0,0.0,0.0,0.0,-2.9052,-2.8934,-2.8946,-2.8986,-2.9182,-2.9598,-2.9714,-3.0305,-3.1371,0.0,0.0,0.0,0.0,0.0,0.0,0.0,0.0,0.0,0.0,0.0,0.0,0.0,0.0,0.0,0.0,0.0,0.0,0.0,0.0,0.0,0.0,0.0,0.0,0.0,0.0,0.0,0.0,0.0,0.0,0.0,0.0,0.0,0.0,0.0,0.0,0.0,0.0,-3.2426,-3.2797,0.0,0.0,0.0,0.0,0.0,0.0,0.0,0.0,-3.5082,0.0,0.0,0.0,0.0,0.0,0.0,0.0,0.0,0.0,0.0,0.0,0.0,0.0,0.0,0.0,0.0,0.0,0.0,0.0,0.0,0.0,0.0,0.0,0.0,0.0,0.0,0.0,0.0,0.0,0.0,0.0,0.0,0.0,0.0,0.0,0.0,0.0,0.0,0.0,0.0,0.0,0.0,0.0,0.0,0.0,0.0,0.0,0.0,0.0,0.0,0.0,0.0,0.0,0.0,0.0,0.0,-2.8657,-2.8271,-2.8082,-2.8134,-2.8431,-2.863,-2.8709,-2.9442,-3.0037,-3.0583,0.0,0.0,0.0,0.0,0.0,0.0,0.0,0.0,0.0,0.0,0.0,0.0,0.0,0.0,0.0,0.0,0.0,0.0,0.0,0.0,0.0,0.0,0.0,0.0,0.0,0.0,0.0,0.0,0.0,0.0,0.0,0.0,0.0,0.0,0.0,0.0,0.0,0.0,0.0,-3.3016,-3.3312,0.0,0.0,0.0,0.0,0.0,0.0,0.0,0.0,-3.5424,0.0,0.0,0.0,0.0,0.0,0.0,0.0,0.0,0.0,0.0,0.0,0.0,0.0,0.0,0.0,0.0,0.0,0.0,0.0,0.0,0.0,0.0,0.0,0.0,0.0,0.0,0.0,0.0,0.0,0.0,0.0,0.0,0.0,0.0,0.0,0.0,0.0,0.0,0.0,0.0,0.0,0.0,0.0,0.0,0.0,0.0,0.0,0.0,0.0,0.0,0.0,0.0,0.0,0.0,0.0,-2.8339,-2.8042,-2.7881,-2.7921,-2.8191,-2.8379,-2.851,-2.9104,-2.965,0.0,0.0,0.0,0.0,0.0,0.0,0.0,0.0,0.0,0.0,0.0,0.0,0.0,0.0,0.0,0.0,0.0,0.0,0.0,0.0,0.0,0.0,0.0,0.0,0.0,0.0,0.0,0.0,0.0,0.0,0.0,0.0,0.0,0.0,0.0,0.0,0.0,0.0,0.0,0.0,-3.3143,-3.3536,-3.3724,0.0,0.0,0.0,0.0,0.0,0.0,-3.5294,-3.5489,0.0,0.0,0.0,0.0,0.0,0.0,0.0,0.0,0.0,0.0,0.0,0.0,0.0,0.0,0.0,0.0,0.0,0.0,0.0,0.0,0.0,0.0,0.0,0.0,0.0,0.0,0.0,0.0,0.0,0.0,0.0,0.0,0.0,0.0,0.0,0.0,0.0,0.0,0.0,0.0,0.0,0.0,0.0,0.0,0.0,0.0,0.0,0.0,0.0,0.0,0.0,0.0,0.0,0.0,0.0,-2.8151,-2.7881,-2.776,-2.776,-2.799,-2.8231,-2.8391,-2.8867,-2.93,0.0,0.0,0.0,0.0,0.0,0.0,0.0,0.0,0.0,0.0,0.0,0.0,0.0,0.0,0.0,0.0,0.0,0.0,0.0,0.0,0.0,0.0,0.0,0.0,0.0,0.0,0.0,0.0,0.0,0.0,0.0,0.0,0.0,0.0,0.0,0.0,0.0,0.0,0.0,0.0,0.0,-3.3709,-3.3917,-3.4108,0.0,0.0,0.0,0.0,-3.5148,-3.5374,0.0,0.0,0.0,0.0,0.0,0.0,0.0,0.0,0.0,0.0,0.0,0.0,0.0,0.0,0.0,0.0,0.0,0.0,0.0,0.0,0.0,0.0,0.0,0.0,0.0,0.0,0.0,0.0,0.0,0.0,0.0,0.0,0.0,0.0,0.0,0.0,0.0,0.0,0.0,0.0,0.0,0.0,0.0,0.0,0.0,0.0,0.0,0.0,0.0,0.0,0.0,0.0,0.0,0.0,0.0,0.0,-2.7921,-2.7516,-2.7272,-2.7313,-2.7708,-2.7921,-2.7962,-2.8709,-2.9209,0.0,0.0,0.0,0.0,0.0,0.0,0.0,0.0,0.0,0.0,0.0,0.0,0.0,0.0,0.0,0.0,0.0,0.0,0.0,0.0,0.0,0.0,0.0,0.0,0.0,0.0,0.0,0.0,0.0,0.0,0.0,0.0,0.0,0.0,0.0,0.0,0.0,0.0,0.0,0.0,0.0,-3.3917,-3.4059,-3.4395,-3.466,0.0,0.0,-3.5162,-3.5192,-3.5389,0.0,0.0,0.0,0.0,0.0,0.0,0.0,0.0,0.0,0.0,0.0,0.0,0.0,0.0,0.0,0.0,0.0,0.0,0.0,0.0,0.0,0.0,0.0,0.0,0.0,0.0,0.0,0.0,0.0,0.0,0.0,0.0,0.0,0.0,0.0,0.0,0.0,0.0,0.0,0.0,0.0,0.0,0.0,0.0,0.0,0.0,0.0,0.0,0.0,0.0,0.0,0.0,0.0,0.0,0.0,-2.8002,-2.7881,-2.7435,-2.726,-2.7371,-2.7719,-2.7962,-2.807,-2.8736,-2.9131,0.0,0.0,0.0,0.0,0.0,0.0,0.0,0.0,0.0,0.0,0.0,0.0,0.0,0.0,0.0,0.0,0.0,0.0,0.0,0.0,0.0,0.0,0.0,0.0,0.0,0.0,0.0,0.0,0.0,0.0,0.0,0.0,0.0,0.0,0.0,0.0,0.0,0.0,0.0,0.0,0.0,0.0,-3.423,-3.4582,0.0,0.0,0.0,-3.5261,-3.5356,0.0,0.0,0.0,0.0,0.0,0.0,0.0,0.0,0.0,0.0,0.0,0.0,0.0,0.0,0.0,0.0,0.0,0.0,0.0,0.0,0.0,0.0,0.0,0.0,0.0,0.0,0.0,0.0,0.0,0.0,0.0,0.0,0.0,0.0,0.0,0.0,0.0,0.0,0.0,0.0,0.0,0.0,0.0,0.0,0.0,0.0,0.0,0.0,0.0,0.0,0.0,0.0,0.0,0.0,0.0,0.0,0.0,-2.7962,-2.7598,-2.7452,-2.7615,-2.7829,-2.807,-2.8259,-2.8816,0.0,0.0,0.0,0.0,0.0,0.0,0.0,0.0,0.0,0.0,0.0,0.0,0.0,0.0,0.0,0.0,0.0,0.0,0.0,0.0,0.0,0.0,0.0,0.0,0.0,0.0,0.0,-3.2112,0.0,0.0,0.0,0.0,0.0,0.0,0.0,0.0,0.0,0.0,0.0,0.0,0.0,0.0,-3.4264,-3.4501,-3.4769,-3.5049,0.0,0.0,-3.5326,-3.5472,-3.5489,-3.5489,0.0,0.0,0.0,0.0,0.0,0.0,0.0,0.0,0.0,0.0,0.0,0.0,0.0,0.0,0.0,0.0,0.0,0.0,0.0,0.0,0.0,0.0,0.0,0.0,0.0,0.0,0.0,0.0,0.0,0.0,0.0,0.0,0.0,0.0,0.0,0.0,0.0,0.0,0.0,0.0,0.0,0.0,0.0,0.0,0.0,0.0,0.0,0.0,0.0,0.0,0.0,0.0,0.0,0.0,-2.8179,-2.8179,-2.7962,-2.7841,-2.7881,-2.807,-2.8259,-2.8471,-2.8895,-2.9197,0.0,0.0,0.0,0.0,0.0,0.0,0.0,0.0,0.0,0.0,0.0,0.0,0.0,0.0,0.0,0.0,0.0,0.0,0.0,0.0,0.0,0.0,0.0,0.0,0.0,0.0,0.0,0.0,0.0,0.0,0.0,0.0,0.0,0.0,0.0,0.0,0.0,0.0,0.0,0.0,0.0,-3.4501,-3.4835,-3.5049,-3.5195,0.0,0.0,-3.5472,-3.5504,-3.5489,-3.5489,-3.5489,0.0,0.0,0.0,0.0,0.0,0.0,0.0,0.0,0.0,0.0,0.0,0.0,0.0,0.0,0.0,0.0,0.0,0.0,0.0,0.0,0.0,0.0,0.0,0.0,0.0,0.0,0.0,0.0,0.0,0.0,0.0,0.0,0.0,0.0,0.0,0.0,0.0,0.0,0.0,0.0,0.0,0.0,0.0,0.0,0.0,0.0,0.0,0.0,0.0,0.0,0.0,0.0,0.0,-2.8179,-2.8179,-2.799,-2.7973,-2.807,-2.8191,-2.8339,-2.8685,-2.8973,-2.9248,0.0,0.0,0.0,0.0,0.0,0.0,0.0,0.0,0.0,0.0,0.0,0.0,0.0,0.0,0.0,0.0,0.0,0.0,0.0,0.0,0.0,0.0,0.0,0.0,0.0,0.0,0.0,0.0,-3.3241,-3.3157,-3.3023,0.0,0.0,0.0,0.0,0.0,0.0,0.0,0.0,0.0,0.0,-3.4986,-3.5246,-3.5507,0.0,0.0,-3.5572,-3.5589,-3.5537,-3.5489,-3.5522,-3.5621,-3.5606,0.0,0.0,0.0,0.0,0.0,0.0,0.0,0.0,0.0,0.0,0.0,0.0,0.0,0.0,0.0,0.0,0.0,0.0,0.0,0.0,0.0,0.0,0.0,0.0,0.0,0.0,0.0,0.0,0.0,0.0,0.0,0.0,0.0,0.0,0.0,0.0,0.0,0.0,0.0,0.0,0.0,0.0,0.0,0.0,0.0,0.0,0.0,0.0,0.0,0.0,0.0,0.0,-2.8339,-2.8311,-2.8151,-2.8163,-2.8311,-2.8379,-2.8526,-2.8882,-2.917,-2.9495,0.0,0.0,0.0,0.0,0.0,0.0,0.0,0.0,0.0,0.0,0.0,0.0,0.0,0.0,0.0,0.0,0.0,0.0,0.0,0.0,0.0,0.0,0.0,0.0,0.0,0.0,0.0,0.0,-3.3276,-3.3241,-3.3023,0.0,0.0,0.0,0.0,0.0,0.0,0.0,0.0,0.0,0.0,-3.5362,-3.5619,-3.5876,-3.5973,-3.5799,-3.5784,-3.5767,-3.5651,-3.5651,-3.5683,-3.5767,0.0,0.0,0.0,0.0,0.0,0.0,0.0,0.0,0.0,0.0,0.0,0.0,0.0,0.0,0.0,0.0,0.0,0.0,0.0,0.0,0.0,0.0,0.0,0.0,0.0,0.0,0.0,0.0,0.0,0.0,-3.3896,0.0,0.0,0.0,0.0,0.0,0.0,0.0,0.0,0.0,0.0,0.0,0.0,0.0,0.0,0.0,0.0,0.0,0.0,0.0,0.0,0.0,0.0,-2.8685,-2.851,-2.8471,-2.8471,-2.851,-2.8697,-2.8882,-2.9091,-2.9546,-2.9869,-3.0126,0.0,0.0,0.0,0.0,0.0,0.0,0.0,0.0,0.0,0.0,0.0,0.0,0.0,0.0,0.0,0.0,0.0,0.0,0.0,0.0,0.0,0.0,0.0,0.0,0.0,0.0,-3.3276,-3.3276,-3.3241,0.0,0.0,0.0,0.0,0.0,0.0,0.0,0.0,0.0,0.0,-3.5228,-3.5619,-3.5957,-3.6005,-3.6005,-3.6005,-3.6005,-3.5973,-3.5973,-3.5988,-3.5988,0.0,0.0,0.0,0.0,0.0,0.0,0.0,0.0,0.0,0.0,0.0,0.0,0.0,0.0,0.0,0.0,0.0,0.0,0.0,0.0,0.0,0.0,0.0,0.0,0.0,0.0,0.0,-3.3297,-3.357,0.0,0.0,0.0,0.0,0.0,0.0,0.0,0.0,0.0,0.0,0.0,-3.3276,-3.3276,0.0,0.0,0.0,0.0,0.0,0.0,0.0,0.0,0.0,0.0,0.0,0.0,-2.8764,-2.8685,-2.859,-2.851,-2.851,-2.8685,-2.8882,-2.9091,-2.9546,-3.0088,-3.0685,0.0,0.0,0.0,0.0,0.0,0.0,0.0,0.0,0.0,0.0,0.0,0.0,0.0,0.0,0.0,0.0,0.0,0.0,0.0,0.0,0.0,0.0,0.0,0.0,0.0,-3.3276,0.0,0.0,0.0,0.0,0.0,0.0,0.0,0.0,0.0,0.0,0.0,-3.4765,-3.5228,-3.5604,-3.5957,-3.6258,-3.6414,-3.6445,0.0,0.0,0.0,0.0,0.0,0.0,0.0,0.0,0.0,0.0,0.0,0.0,0.0,0.0,-3.8091,-3.8221,-3.8476,-3.8766,-3.9121,0.0,0.0,0.0,0.0,0.0,0.0,0.0,0.0,0.0,0.0,0.0,0.0,0.0,0.0,-3.3037,0.0,-3.3262,0.0,0.0,0.0,0.0,0.0,0.0,0.0,0.0,-3.3276,-3.3276,-3.3276,-3.3276,-3.3276,0.0,-3.3276,-3.3086,0.0,0.0,0.0,0.0,0.0,0.0,0.0,0.0,-2.8961,-2.8791,-2.8685,-2.8578,-2.8618,-2.8803,-2.9,-2.9197,-2.9728,-3.0394,-3.1174,-3.1447,-3.1706,0.0,0.0,0.0,0.0,0.0,0.0,0.0,0.0,0.0,0.0,0.0,0.0,0.0,0.0,0.0,0.0,0.0,0.0,0.0,0.0,0.0,0.0,0.0,-3.3276,0.0,0.0,0.0,0.0,0.0,0.0,0.0,0.0,0.0,-3.438,-3.465,-3.5063,-3.5507,-3.591,-3.6273,-3.6523,0.0,0.0,0.0,0.0,0.0,0.0,0.0,-3.6507,-3.6662,-3.6739,-3.6876,-3.7105,-3.7344,-3.7551,-3.7669,0.0,0.0,-3.8391,-3.8711,-3.9067,-3.9309,-3.9642,-3.9893,-4.0138,-4.0387,-4.06,0.0,0.0,0.0,0.0,0.0,0.0,0.0,0.0,-3.2322,-3.2632,0.0,-3.2988,0.0,0.0,0.0,0.0,0.0,0.0,0.0,0.0,-3.3276,-3.3276,-3.3276,-3.3276,-3.3276,-3.3276,-3.3276,-3.3086,-3.2704,-3.2489,0.0,0.0,0.0,0.0,0.0,0.0,-2.9223,-2.8831,-2.8803,-2.8803,-2.8803,-2.9,-2.9197,-2.9457,-3.0037,-3.0748,-3.1535,-3.1609,-3.178,-3.2169,-3.2322,0.0,0.0,0.0,0.0,0.0,0.0,0.0,0.0,0.0,0.0,0.0,0.0,0.0,0.0,0.0,0.0,0.0,0.0,0.0,0.0,-3.3276,0.0,0.0,0.0,0.0,0.0,0.0,0.0,0.0,0.0,0.0,-3.4399,-3.4883,-3.5329,-3.5655,0.0,0.0,0.0,0.0,-3.7015,-3.7015,-3.6999,-3.6999,-3.6969,-3.7001,-3.7016,-3.7015,0.0,0.0,-3.7342,-3.7596,-3.7833,-3.8135,-3.8307,-3.8436,-3.8448,-3.892,-3.9352,-3.9528,-3.9833,-4.0121,-4.0305,-4.0527,-4.0697,-2.7679,0.0,0.0,0.0,0.0,-3.0596,-3.1272,-3.1923,-3.2155,-3.2431,-3.2775,-3.2761,0.0,0.0,0.0,0.0,0.0,0.0,-3.2952,-3.3072,-3.3072,-3.3157,-3.3276,-3.3276,-3.3276,-3.3276,-3.3276,-3.3086,-3.2704,-3.2632,-3.2237,-3.1522,0.0,0.0,0.0,0.0,-2.9263,-2.904,-2.8882,-2.8803,-2.8803,-2.9013,-2.9431,-3.0075,-3.0279,-3.0785,-3.1572,-3.1609,-3.178,-3.2169,-3.2241,0.0,0.0,0.0,0.0,0.0,0.0,0.0,0.0,0.0,0.0,0.0,0.0,0.0,0.0,0.0,0.0,0.0,0.0,0.0,-3.3276,-3.3276,-3.3276,0.0,0.0,0.0,0.0,0.0,0.0,0.0,0.0,0.0,-3.4735,-3.5016,-3.5394,0.0,0.0,-3.6631,-3.7013,-3.7104,-3.715,-3.715,0.0,0.0,0.0,-3.709,-3.7135,-3.715,-3.7344,-3.7522,-3.7596,-3.7876,-3.8123,-3.8307,-3.8537,-3.876,-3.9002,-3.9245,-3.9537,-3.9858,-4.0087,-4.0313,-4.0527,-4.0648,-4.0721,-2.7942,-2.8363,-2.8506,-2.891,-2.9496,-3.0126,-3.0823,-3.1482,-3.1753,-3.2082,-3.2516,-3.2503,-3.2574,-3.269,-3.269,0.0,0.0,0.0,-3.2775,-3.2881,-3.2952,-3.3058,-3.3192,-3.3276,-3.3276,-3.3276,-3.3206,-3.3016,-3.2704,-3.2574,-3.2191,-3.1596,0.0,0.0,-3.0406,-2.9831,-2.9404,-2.9131,-2.8961,-2.8882,-2.8803,-2.9079,-2.9586,-3.0368,-3.0406,-3.0748,-3.1447,-3.1572,-3.1757,-3.2073,-3.2159,-3.2264,0.0,0.0,0.0,0.0,0.0,0.0,0.0,0.0,0.0,0.0,0.0,-3.2932,-3.3248,0.0,0.0,0.0,-3.3276,-3.3276,-3.3276,-3.3276,0.0,0.0,0.0,0.0,0.0,0.0,0.0,-3.4094,-3.4346,-3.4616,-3.4868,-3.5198,-3.5621,-3.6133,-3.6492,-3.6831,-3.7148,0.0,-3.7329,-3.73,-3.7329,-3.7315,-3.7211,-3.7255,-3.7344,-3.7403,-3.7596,-3.7817,-3.7905,-3.8049,-3.825,-3.8464,-3.8649,-3.8942,-3.9299,-3.9494,-3.9687,-4.002,-4.0263,-4.0453,-4.0673,-4.0745,-4.0817,-2.8637,-2.8932,-2.8457,-2.8631,-2.9214,-2.9828,-3.0458,-3.1079,-3.1292,-3.1716,-3.2245,-3.2281,-3.245,-3.277,-3.2784,0.0,0.0,-3.2806,-3.2833,-3.282,-3.2979,-3.3022,-3.3057,-3.3185,-3.3241,-3.3241,-3.3072,-3.2881,-3.2668,-3.2336,-3.2013,-3.1609,-3.1174,-3.0785,-3.0406,-2.9972,-2.9534,-2.9131,-2.9091,-2.9,-2.8803,-2.9184,-2.969,-3.033,-3.0368,-3.0672,-3.1222,-3.1485,-3.172,-3.189,-3.2109,-3.2277,-3.2381,0.0,0.0,0.0,0.0,0.0,0.0,0.0,0.0,0.0,0.0,0.0,0.0,0.0,0.0,-3.3276,-3.3276,0.0,-3.3276,-3.3276,0.0,0.0,0.0,-3.3675,-3.3896,-3.404,-3.4128,-3.4128,0.0,0.0,-3.4935,0.0,-3.5847,-3.6196,-3.6677,-3.706,-3.7194,-3.7359,-3.751,-3.748,-3.751,-3.751,-3.7464,-3.7464,-3.7553,-3.7698,-3.7831,-3.7992,-3.8135,-3.8221,-3.8351,-3.856,-3.8732,-3.8953,-3.9405,-3.9601,-3.9774,-4.007,-4.032,-4.0534,-4.0697,-4.0817,-4.0888,-2.8551,-2.8763,-2.8788,-2.9177,-2.9854,-3.0486,-3.1037,-3.1583,-3.2124,-3.2527,-3.2825,-3.2966,-3.3145,-3.3398,-3.336,-3.3487,-3.3625,-3.3625,-3.3701,-3.3823,-3.3431,-3.3335,-3.3444,-3.3046,-3.286,-3.2846,-3.281,-3.2668,-3.2489,-3.2264,-3.2013,-3.1609,-3.1037,-3.0647,-3.0368,-2.978,-2.9353,-2.9104,-2.8961,-2.8843,-2.8803,-2.9197,-2.9548,-2.9934,-3.0228,-3.0634,-3.1061,-3.141,-3.1669,-3.1904,-3.2109,-3.2205,-3.2241,-3.2322,0.0,0.0,0.0,0.0,0.0,0.0,0.0,0.0,0.0,-3.3276,-3.3276,0.0,-3.3276,0.0,-3.3276,-3.3276,-3.3276,-3.3276,0.0,0.0,-3.3744,-3.3882,-3.404,-3.421,-3.438,-3.4563,-3.475,-3.4983,-3.5326,-3.5701,-3.6085,-3.6538,-3.6831,-3.7106,-3.7375,-3.7464,-3.751,-3.751,-3.751,-3.751,-3.751,-3.7583,-3.77,-3.7831,-3.802,-3.8151,-3.8209,-3.8379,-3.856,-3.8711,-3.8865,-3.9127,-3.9547,-3.9679,-3.9893,-4.0296,-4.0461,-4.0566,-4.0817,-4.0888,-4.0894,-2.9035,-2.9257,-2.9433,-2.9805,-3.0292,-3.0453,-3.0947,-3.1587,-3.1939,-3.234,-3.2698,-3.3027,-3.3263,-3.3457,-3.3457,-3.3535,-3.3651,-3.3715,-3.3831,-3.3919,-3.3769,-3.3782,-3.3843,-3.3349,-3.3118,-3.3068,-3.2734,-3.2489,-3.2286,-3.2059,-3.1743,-3.1336,-3.0798,-3.0419,-3.0113,-2.9664,-2.9263,-2.8973,-2.8764,-2.8724,-2.8791,-2.9028,-2.9314,-2.9611,-2.996,-3.0305,-3.071,-3.1136,-3.1461,-3.1743,-3.1963,-3.2109,-3.2205,-3.2264,-3.23,0.0,0.0,0.0,0.0,0.0,0.0,0.0,0.0,0.0,0.0,0.0,-3.3276,-3.3276,-3.3276,-3.3276,-3.3276,-3.3276,-3.3396,-3.3675,-3.3813,-3.3985,-3.4196,-3.4346,-3.4481,-3.4664,-3.4817,-3.5034,-3.5439,-3.5797,-3.6163,-3.6631,-3.6862,-3.7121,-3.7421,-3.751,-3.751,-3.751,-3.751,-3.7539,-3.7553,-3.7775,-3.7934,-3.802,-3.8164,-3.8294,-3.8294,-3.8464,-3.8644,-3.8794,-3.8985,-3.9245,-3.9625,-3.9765,-3.9961,-4.0353,-4.051,-4.0607,-4.0847,-4.0894,-4.0894,-2.9646,-2.9886,-3.0136,-3.0352,-3.0598,-3.0209,-3.0603,-3.1431,-3.1526,-3.1911,-3.2454,-3.2881,-3.3212,-3.3449,-3.3449,-3.3475,-3.3541,-3.3724,-3.3788,-3.3788,-3.4095,-3.4208,-3.4233,-3.3796,-3.3582,-3.3555,-3.2805,-3.2373,-3.2204,-3.1783,-3.1373,-3.0986,-3.0596,-3.019,-2.9753,-2.9521,-2.9184,-2.8764,-2.8578,-2.8578,-2.8764,-2.8803,-2.8949,-2.9341,-2.965,-2.9972,-3.0368,-3.0798,-3.1174,-3.1485,-3.1757,-3.1963,-3.2146,-3.2169,-3.2205,0.0,-3.2336,0.0,0.0,0.0,0.0,0.0,0.0,0.0,0.0,-3.3276,-3.3276,-3.3276,-3.3276,-3.3276,-3.3276,-3.3276,-3.3466,-3.3848,-3.3896,-3.402,-3.4346,-3.4414,-3.4515,-3.4683,-3.4883,-3.5115,-3.5522,-3.5829,-3.6195,-3.6662,-3.6908,-3.7121,-3.7421,-3.751,-3.751,-3.751,-3.751,-3.7524,-3.77,-3.7963,-3.8151,-3.8209,-3.8323,-3.8408,-3.8408,-3.8532,-3.8672,-3.8805,-3.9094,-3.9405,-3.9651,-3.9817,-4.0036,-4.0419,-4.051,-4.0583,-4.0823,-4.0894,-4.0894,-2.9646,-2.9931,-3.0091,-3.0352,-3.0611,-3.0547,-3.092,-3.1678,-3.2198,-3.2742,-3.3195,-3.346,-3.3768,-3.4166,-3.4194,-3.4413,-3.4753,-3.4793,-3.4834,-3.4807,-3.4393,-3.4285,-3.4389,-3.3875,-3.3592,-3.3551,-3.2985,-3.2589,-3.2337,-3.1684,-3.1248,-3.0986,-3.0596,-3.0088,-2.9509,0.0,0.0,0.0,-2.855,-2.851,-2.855,-2.8724,-2.8922,-2.917,-2.9585,0.0,-3.0152,-3.0685,-3.1024,-3.1149,-3.1633,0.0,0.0,0.0,0.0,0.0,0.0,0.0,0.0,0.0,0.0,0.0,-3.3206,-3.3276,-3.3276,-3.3276,-3.3276,-3.3276,-3.3276,-3.3276,-3.3276,-3.3276,-3.3466,-3.3848,-3.3896,-3.402,-3.4346,-3.4563,-3.4698,-3.4835,-3.518,-3.5522,-3.5829,-3.6053,-3.6352,-3.6831,-3.6969,-3.7121,-3.7466,-3.751,-3.751,-3.751,-3.751,-3.7583,-3.7847,-3.795,-3.8078,-3.8278,-3.8363,-3.8391,-3.8391,-3.86,-3.875,-3.8805,-3.9148,-3.9511,-3.9677,-3.979,-4.0028,-4.0436,-4.051,-4.0583,-4.0823,-4.0894,-4.0894,-2.9451,0.0,-2.9966,-3.0182,0.0,-3.0521,-3.0802,-3.1205,-3.1925,-3.2537,-3.3056,-3.3313,-3.3556,-3.3907,-3.4008,-3.4189,-3.4397,-3.466,-3.4729,-3.4771,-3.4698,-3.4673,-3.4781,-3.4166,-3.3885,-3.3872,-3.3336,-3.2728,-3.2092,-3.1726,-3.1223,-3.0571,-3.0267,-2.9831,-2.9275,-2.8934,-2.8709,-2.851,-2.851,-2.851,-2.851,-2.8578,-2.8697,-2.8816,0.0,0.0,0.0,0.0,0.0,0.0,0.0,0.0,0.0,0.0,0.0,-3.2205,-3.2277,-3.2322,-3.2417,-3.2668,-3.2881,-3.2988,-3.3192,-3.3276,-3.3276,-3.3276,-3.3276,-3.3276,-3.3276,-3.3276,-3.3276,-3.3276,-3.348,-3.3862,-3.3896,-3.402,-3.4346,-3.4597,-3.475,-3.4902,-3.5246,-3.5619,-3.5973,-3.6211,-3.6523,-3.6954,-3.7044,-3.7195,-3.745,-3.751,-3.751,-3.751,-3.7569,-3.7671,-3.7847,-3.7992,-3.8107,-3.8351,-3.8391,-3.8391,-3.8391,-3.8628,-3.8805,-3.8832,-3.9228,-3.9616,-3.9703,-3.9875,-4.0113,-4.0395,-4.05,-4.0597,-4.0847,-4.0894,-4.0894,-2.9266,-2.9531,-2.9794,-3.0011,-3.0216,-3.0442,-3.0566,-3.0656,0.0,0.0,0.0,-3.2853,-3.3068,-3.327,-3.3513,-3.3598,-3.367,-3.4092,-3.4272,-3.4259,-3.466,-3.4867,-3.4881,-3.443,-3.4192,-3.4138,-3.3569,-3.2856,-3.2033,-3.1798,-3.1216,-3.0291,-2.9945,-2.9546,-2.9052,-2.8669,-2.851,-2.851,-2.851,-2.851,-2.851,-2.851,-2.855,-2.859,-2.8934,-2.9236,-2.9548,-3.0088,-3.0596,-3.0986,-3.1373,-3.1706,-3.189,-3.2109,-3.2205,-3.2205,-3.2205,-3.2241,-3.2359,-3.2561,-3.281,-3.3023,-3.3206,-3.3276,-3.3276,-3.3276,-3.3276,-3.3276,-3.3276,-3.3276,-3.3276,-3.3276,-3.3466,-3.3848,-3.3896,-3.402,-3.4346,-3.4582,-3.4783,-3.4935,-3.5311,-3.5683,-3.5973,-3.6336,-3.6647,-3.6938,-3.7105,-3.7284,-3.7435,-3.751,-3.751,-3.751,-3.7599,-3.7716,-3.7847,-3.8008,-3.8193,-3.8307,-3.8379,-3.8391,-3.842,-3.8628,-3.8777,-3.8805,-3.9292,-3.9625,-3.9729,-3.9935,-4.0171,-4.0444,-4.0507,-4.0587,-4.0806,-4.0894,-4.0894,-2.9255,-2.9531,-2.9783,-3.0011,-3.0216,-3.0216,-3.0385,-3.0668,-3.1395,-3.1749,-3.1881,-3.23,-3.2605,-3.2797,-3.3068,-3.327,-3.3428,-3.367,-3.381,0.0,-3.3852,-3.4021,-3.4243,-3.4165,-3.4126,-3.4087,-3.3513,-3.3038,-3.2667,-3.1768,-3.1084,-3.0747,-3.0135,-2.9456,-2.8882,-2.8618,-2.851,-2.851,-2.851,-2.851,-2.851,-2.851,-2.8669,-2.9013,-2.9052,-2.9404,-2.9998,-3.0267,-3.0596,-3.0986,-3.1373,-3.1669,-3.189,-3.2073,-3.2205,-3.2205,-3.2205,-3.2218,-3.2241,-3.2503,-3.2846,-3.3206,-3.3276,-3.3276,-3.3276,-3.3276,-3.3276,-3.3276,-3.3276,-3.3276,-3.3276,-3.3276,-3.3466,-3.3813,-3.3896,-3.402,-3.438,-3.4683,-3.4868,-3.4902,-3.5524,-3.5925,-3.602,-3.6383,-3.677,-3.6969,-3.7135,-3.7284,-3.7435,-3.751,-3.751,-3.751,-3.751,-3.7599,-3.773,-3.7847,-3.802,-3.8209,-3.8307,-3.8363,-3.8391,-3.8628,-3.8777,-3.8805,-3.9292,-3.9651,-3.9703,-3.9918,-4.0171,-4.0419,-4.0507,-4.0604,-4.0847,-4.0894,-4.0894,-2.9082,-2.9312,-2.9542,-2.9829,-3.0045,-3.0182,-3.0261,-3.0442,-3.0892,-3.125,-3.1528,-3.1849,-3.2113,-3.2332,-3.2605,-3.2779,-3.2896,-3.3227,-3.3398,-3.3398,-3.3598,-3.3755,-3.3894,-3.3907,-3.3894,-3.3882,-3.3595,-3.3242,-3.2714,-3.2069,-3.1362,-3.0555,-2.9677,-2.9052,-2.8657,-2.855,-2.851,-2.851,-2.851,-2.851,-2.851,-2.8618,-2.8764,-2.8922,-2.9157,-2.9482,-2.9934,-3.0216,-3.0596,-3.0973,-3.141,-3.1669,-3.189,-3.2073,-3.2205,-3.2205,-3.2205,-3.2205,-3.2205,-3.2503,-3.2895,-3.3227,-3.3276,-3.3276,-3.3276,-3.3276,-3.3276,-3.3276,-3.3276,-3.3276,-3.3276,-3.3276,-3.3466,-3.3862,-3.3896,-3.402,-3.4346,-3.4702,-3.4902,-3.4968,-3.5542,-3.5988,-3.6002,-3.6507,-3.6877,-3.6997,-3.7194,-3.7405,-3.748,-3.751,-3.751,-3.751,-3.751,-3.7569,-3.7671,-3.7759,-3.7905,-3.8151,-3.825,-3.8307,-3.8391,-3.8628,-3.8777,-3.8832,-3.9228,-3.9573,-3.9677,-3.9859,-4.0112,-4.0419,-4.0507,-4.0611,-4.0806,-4.0894,-4.0894,-2.8896,-2.9128,-2.9405,-2.968,-2.9977,-3.0136,-3.0216,-3.0216,-3.0431,-3.0758,-3.116,-3.1496,-3.1717,-3.1849,-3.2169,-3.23,-3.2388,-3.2736,-3.2952,-3.2982,-3.3258,-3.3428,-3.3441,-3.3428,-3.3386,-3.3428,-3.3386,-3.3128,-3.258,-3.2206,-3.1402,-3.0165,-2.9352,-2.8818,-2.851,-2.851,-2.851,-2.851,-2.851,-2.851,-2.851,-2.8697,-2.8803,-2.8882,-2.9275,-2.9638,-2.9934,-3.0267,-3.0685,-3.1099,-3.1447,-3.1706,-3.1977,-3.2109,-3.2205,-3.2205,-3.2205,-3.2255,-3.23,-3.2525,-3.2881,-3.3241,-3.3276,-3.3276,-3.3276,-3.3276,-3.3276,-3.3276,-3.3276,-3.3276,-3.3276,-3.3276,-3.3431,-3.3779,-3.3896,-3.402,-3.4312,-3.4668,-3.4902,-3.4968,-3.5542,-3.6004,-3.6129,-3.6585,-3.7014,-3.7133,-3.7344,-3.751,-3.751,-3.751,-3.751,-3.751,-3.751,-3.7539,-3.7642,-3.77,-3.7817,-3.8094,-3.8151,-3.8221,-3.8363,-3.8572,-3.875,-3.8832,-3.9131,-3.9468,-3.9661,-3.98,-4.0036,-4.0353,-4.0458,-4.0587,-4.0847,-4.0894,-4.0894,-2.8896,-2.9128,-2.9347,-2.976,-3.0125,-3.017,-3.0216,-3.0216,-3.0216,-3.0397,-3.0713,-3.1116,-3.135,-3.1439,-3.1849,-3.2038,-3.2081,-3.2332,-3.2487,-3.2475,-3.2519,-3.2519,-3.2562,-3.2574,-3.2519,-3.2562,-3.2562,-3.2581,-3.2414,-3.1816,-3.0928,-2.9797,-2.9586,-2.9157,-2.8582,-2.8522,-2.851,-2.851,-2.851,-2.851,-2.8498,-2.8685,-2.8882,-2.9052,-2.9507,-2.9921,-3.0292,-3.0546,-3.0975,-3.1498,-3.1572,-3.178,-3.2109,-3.2205,-3.2205,-3.2205,-3.2205,-3.2336,-3.2596,-3.2668,-3.2881,-3.3241,-3.3276,-3.3276,-3.3276,-3.3276,-3.3276,-3.3276,-3.3276,-3.3276,-3.3276,-3.3276,-3.3396,-3.3654,-3.3779,-3.3951,-3.4176,-3.4587,-3.4902,-3.4902,-3.5557,-3.602,-3.6084,-3.6585,-3.7075,-3.7329,-3.7435,-3.751,-3.751,-3.751,-3.751,-3.751,-3.751,-3.751,-3.7539,-3.7628,-3.77,-3.7788,-3.7992,-3.8151,-3.825,-3.8448,-3.8672,-3.875,-3.9067,-3.9362,-3.9609,-3.98,-3.9969,-4.0254,-4.041,-4.0587,-4.0806,-4.0894,-4.0894,-2.885,-2.8954,-2.9174,-2.9542,-3.0011,-3.0136,-3.0216,-3.0216,-3.0216,-3.0261,-3.0397,-3.0713,-3.1038,-3.1306,-3.1528,-3.1673,-3.1849,-3.2038,-3.2169,-3.2169,-3.23,-3.24,-3.24,-3.24,-3.24,-3.24,-3.24,-3.24,-3.2302,-3.1694,-3.0968,-3.035,-2.9782,-2.9265,-2.8955,-2.8667,-2.851,-2.851,-2.8618,-2.8697,-2.8697,-2.8895,-2.9079,-2.9314,-2.9728,-3.0113,-3.0419,-3.0723,-3.1112,-3.1572,-3.1706,-3.1904,-3.2182,-3.2205,-3.2205,-3.2205,-3.2205,-3.2336,-3.2654,-3.269,-3.2895,-3.3276,-3.3276,-3.3276,-3.3276,-3.3276,-3.3276,-3.3276,-3.3276,-3.3276,-3.3276,-3.3276,-3.3396,-3.3585,-3.3793,-3.3951,-3.4094,-3.4553,-3.4902,-3.4968,-3.5557,-3.599,-3.6086,-3.6569,-3.7042,-3.7284,-3.7435,-3.751,-3.751,-3.751,-3.751,-3.751,-3.751,-3.751,-3.751,-3.7539,-3.7612,-3.7716,-3.7833,-3.795,-3.8164,-3.8335,-3.8532,-3.8655,-3.8931,-3.9191,-3.9432,-3.9661,-3.9859,-4.0121,-4.0461,-4.0686,-4.0871,-4.0894,-4.0894,-2.8803,-2.885,-2.9082,-2.9451,-2.9931,-3.0136,-3.0216,-3.0216,-3.0216,-3.0216,-3.0216,-3.0397,-3.0713,-3.1083,-3.1172,-3.135,-3.1584,-3.1749,-3.1849,-3.1937,-3.2125,-3.2201,-3.2213,-3.2201,-3.2213,-3.2213,-3.2213,-3.2201,-3.212,-3.1636,-3.1184,-3.0826,-3.0098,-2.9581,-2.9292,-2.8895,-2.8655,-2.8522,-2.8697,-2.8843,-2.8922,-2.9131,-2.9378,-2.9509,-2.9947,-3.0292,-3.0545,-3.0898,-3.1286,-3.1669,-3.183,-3.2,-3.2169,-3.2205,-3.2205,-3.2205,-3.2205,-3.2336,-3.2654,-3.269,-3.2895,-3.3241,-3.3276,-3.3276,-3.3276,-3.3276,-3.3276,-3.3276,-3.3276,-3.3276,-3.3276,-3.3276,-3.3361,-3.3501,-3.3724,-3.3951,-3.4088,-3.4534,-3.4902,-3.4968,-3.5557,-3.6068,-3.6228,-3.6662,-3.7042,-3.7224,-3.7375,-3.751,-3.751,-3.751,-3.751,-3.751,-3.751,-3.751,-3.751,-3.751,-3.7569,-3.7628,-3.7687,-3.7833,-3.8049,-3.8193,-3.8363,-3.8532,-3.8794,-3.904,-3.9325,-3.9547,-3.979,-4.0113,-4.0412,-4.0673,-4.0793,-4.0847,-4.0894,-2.8803,-2.8896,-2.9301,-2.9646,-2.9943,-3.0091,-3.0216,-3.0216,-3.0216,-3.0216,-3.0216,-3.0204,-3.0397,-3.0668,-3.0871,-3.1095,-3.1306,-3.135,-3.1496,-3.1705,-3.1761,-3.1761,-3.1717,-3.1705,-3.1749,-3.1793,-3.1793,-3.1805,-3.1749,-3.1713,-3.1416,-3.0934,-3.0759,-3.0308,-2.9496,-2.928,-2.9003,-2.8646,-2.8749,-2.8922,-2.9131,-2.9546,-2.9753,-2.9818,-3.0177,-3.0558,-3.0949,-3.1161,-3.1471,-3.1867,-3.189,-3.2,-3.2169,-3.2205,-3.2205,-3.2205,-3.2205,-3.235,-3.2632,-3.269,-3.286,-3.3206,-3.3276,-3.3276,-3.3276,-3.3276,-3.3276,-3.3276,-3.3276,-3.3276,-3.3276,-3.3276,-3.3326,-3.3361,-3.3675,-3.3896,-3.3931,-3.4515,-3.4868,-3.5001,-3.5557,-3.61,-3.6569,-3.6877,-3.7029,-3.718,-3.7359,-3.751,-3.751,-3.751,-3.751,-3.751,-3.751,-3.751,-3.751,-3.751,-3.751,-3.7539,-3.7628,-3.7716,-3.7817,-3.7963,-3.8193,-3.8391,-3.8628,-3.8903,-3.9218,-3.9537,-3.9833,-4.0113,-4.0337,-4.0551,-4.0721,-4.0823,-4.0871,-2.8803,-2.885,-2.9301,-2.9588,-2.968,-3.0034,-3.0216,-3.0216,-3.0216,-3.0216,-3.0216,-3.0216,-3.0261,-3.0352,-3.0454,-3.0769,-3.1261,-3.1306,-3.1439,-3.1705,-3.1705,-3.1705,-3.1705,-3.1705,-3.1705,-3.1705,-3.1705,-3.1705,-3.1705,-3.1705,-3.1621,-3.1404,-3.1079,-3.0706,-3.0254,-2.9629,-2.9265,-2.9181,-2.909,-2.9079,-2.9314,-2.9754,-3.0049,-3.019,-3.047,-3.0723,-3.0986,-3.1323,-3.1633,-3.189,-3.2,-3.2109,-3.2169,-3.2205,-3.2205,-3.2205,-3.2205,-3.235,-3.2632,-3.269,-3.286,-3.3241,-3.3276,-3.3276,-3.3276,-3.3276,-3.3276,-3.3276,-3.3276,-3.3276,-3.3276,-3.3276,-3.3276,-3.3361,-3.364,-3.3896,-3.3985,-3.4395,-3.4817,-3.4968,-3.5557,-3.61,-3.6367,-3.6631,-3.6862,-3.7044,-3.721,-3.7329,-3.748,-3.751,-3.748,-3.751,-3.751,-3.751,-3.751,-3.751,-3.751,-3.751,-3.7569,-3.7628,-3.773,-3.7759,-3.7963,-3.8193,-3.8448,-3.8711,-3.9056,-3.9441,-3.9755,-4.0062,-4.0288,-4.0436,-4.0631,-4.0745,-4.0817,-2.8803,-2.8896,-2.9301,-2.9531,-2.9577,-2.9988,-3.0216,-3.0216,-3.0216,-3.0216,-3.0216,-3.0216,-3.0216,-3.0216,-3.0216,-3.0487,-3.1038,-3.1184,-3.1362,-3.1572,-3.1661,-3.1705,-3.1705,-3.1705,-3.1705,-3.1705,-3.1705,-3.1705,-3.1705,-3.1705,-3.1705,-3.1669,-3.1332,-3.1067,-3.0826,-3.0218,-2.9871,-2.9659,-2.9533,-2.9512,-2.9598,-2.9985,-3.0305,-3.0495,-3.0761,-3.0986,-3.1174,-3.1522,-3.178,-3.2,-3.2146,-3.2205,-3.2205,-3.2205,-3.2205,-3.2205,-3.2205,-3.235,-3.2632,-3.269,-3.286,-3.3241,-3.3276,-3.3276,-3.3276,-3.3276,-3.3276,-3.3276,-3.3276,-3.3276,-3.3276,-3.3276,-3.3276,-3.3326,-3.3605,-3.3827,-3.3882,-3.4327,-3.4716,-3.5115,-3.5621,-3.6037,-3.6211,-3.6492,-3.6723,-3.6908,-3.7029,-3.7195,-3.7301,-3.7331,-3.7345,-3.7329,-3.7315,-3.7315,-3.73,-3.727,-3.7421,-3.745,-3.748,-3.7553,-3.7612,-3.7642,-3.7759,-3.7992,-3.8278,-3.856,-3.8903,-3.9309,-3.9635,-3.9961,-4.0163,-4.0288,-4.0485,-4.0648,-4.0728,-2.8803,-2.885,-2.9301,-2.9531,-2.9577,-2.9988,-3.0216,-3.0216,-3.0216,-3.0216,-3.0216,-3.0216,-3.0216,-3.0216,-3.0216,-3.0352,-3.0623,-3.0916,-3.1139,-3.135,-3.1572,-3.1705,-3.1705,-3.1705,-3.1705,-3.1705,-3.1705,-3.1705,-3.1705,-3.1705,-3.1705,-3.1705,-3.1681,-3.1404,-3.0958,-3.0961,-3.0615,-3.0033,-3.0087,-3.0121,-2.9906,-3.0203,-3.0482,-3.0736,-3.1061,-3.136,-3.1572,-3.1793,-3.1963,-3.2132,-3.2182,-3.2205,-3.2205,-3.2205,-3.2205,-3.2205,-3.2205,-3.2372,-3.2618,-3.269,-3.286,-3.3206,-3.3276,-3.3276,-3.3276,-3.3276,-3.3276,-3.3276,-3.3276,-3.3276,-3.3276,-3.3276,-3.3276,-3.3312,-3.3501,-3.3675,-3.3917,-3.421,-3.465,-3.5279,-3.5733,-3.6037,-3.6211,-3.6414,-3.6631,-3.6723,-3.6862,-3.703,-3.706,-3.709,-3.7029,-3.7012,-3.7074,-3.7135,-3.7043,-3.7028,-3.721,-3.7361,-3.7405,-3.7464,-3.7524,-3.7583,-3.7642,-3.7876,-3.8221,-3.8504,-3.8838,-3.9202,-3.9458,-3.9729,-3.9935,-4.0121,-4.0313,-4.0485,-4.0621,-2.8803,-2.885,-2.9301,-2.9531,-2.9577,-2.9988,-3.0216,-3.0216,-3.0216,-3.0216,-3.0216,-3.0216,-3.0216,-3.0216,-3.0216,-3.0261,-3.0352,-3.0793,-3.1107,-3.1306,-3.1572,-3.1705,-3.1705,-3.1705,-3.1705,-3.1705,-3.1705,-3.1705,-3.1705,-3.1705,-3.1705,-3.1705,-3.1705,-3.1621,-3.1428,-3.1307,-3.1052,-3.0928,-3.0624,-3.0522,-3.0542,-3.0573,-3.0685,-3.0911,-3.1286,-3.1596,-3.1817,-3.1853,-3.2,-3.2169,-3.2205,-3.2205,-3.2205,-3.2205,-3.2205,-3.2205,-3.2205,-3.235,-3.2632,-3.269,-3.2895,-3.3206,-3.3276,-3.3276,-3.3276,-3.3276,-3.3276,-3.3276,-3.3276,-3.3276,-3.3276,-3.3276,-3.3276,-3.3276,-3.3466,-3.3675,-3.3917,-3.438,-3.4802,-3.5067,-3.5509,-3.5831,-3.6022,-3.6274,-3.6461,-3.6662,-3.677,-3.6831,-3.6938,-3.6969,-3.6999,-3.6998,-3.6999,-3.6938,-3.6907,-3.6892,-3.6998,-3.7181,-3.7225,-3.7345,-3.7435,-3.7494,-3.7583,-3.7788,-3.8135,-3.8448,-3.8782,-3.9056,-3.9272,-3.9511,-3.972,-3.991,-4.0138,-4.0296,-4.0451,-2.8803,-2.885,-2.9301,-2.9531,-2.9577,-2.9988,-3.0216,-3.0216,-3.0216,-3.0216,-3.0216,-3.0216,-3.0216,-3.0216,-3.0216,-3.0216,-3.0273,-3.0748,-3.1062,-3.1229,-3.1572,-3.1717,-3.1705,-3.1705,-3.1705,-3.1705,-3.1705,-3.1705,-3.1705,-3.1705,-3.1705,-3.1705,-3.1705,-3.1749,-3.1781,-3.1741,-3.1657,-3.1593,-3.1226,-3.0996,-3.0993,-3.0906,-3.0911,-3.1136,-3.1522,-3.1757,-3.189,-3.1963,-3.2073,-3.2182,-3.2205,-3.2205,-3.2205,-3.2205,-3.2205,-3.2205,-3.2205,-3.235,-3.2632,-3.269,-3.2895,-3.3206,-3.3276,-3.3276,-3.3276,-3.3276,-3.3276,-3.3276,-3.3276,-3.3276,-3.3276,-3.3276,-3.3276,-3.3276,-3.3396,-3.3605,-3.3882,-3.438,-3.4735,-3.4953,-3.5314,-3.5671,-3.5941,-3.6116,-3.6305,-3.6569,-3.6631,-3.6647,-3.6785,-3.68,-3.68,-3.6816,-3.6785,-3.6754,-3.6785,-3.68,-3.68,-3.6923,-3.7044,-3.718,-3.73,-3.7359,-3.7419,-3.7671,-3.7992,-3.8237,-3.8576,-3.8799,-3.9045,-3.9245,-3.9511,-3.9713,-3.9901,-4.0121,-4.0296,-2.8803,-2.885,-2.9301,-2.9531,-2.9577,-2.9977,-3.0216,-3.0216,-3.0216,-3.0216,-3.0216,-3.0216,-3.0216,-3.0216,-3.0216,-3.0216,-3.0318,-3.0748,-3.1029,-3.1151,-3.1451,-3.1705,-3.1705,-3.1705,-3.1705,-3.1705,-3.1705,-3.1705,-3.1705,-3.1705,-3.1705,-3.1705,-3.1761,-3.1805,-3.1969,-3.2245,-3.2235,-3.2045,-3.1833,-3.1614,-3.1316,-3.1175,-3.1138,-3.1336,-3.1656,-3.189,-3.1963,-3.2073,-3.2169,-3.2205,-3.2205,-3.2205,-3.2205,-3.2205,-3.2205,-3.2205,-3.2205,-3.2386,-3.2596,-3.269,-3.2895,-3.3241,-3.3276,-3.3276,-3.3276,-3.3276,-3.3276,-3.3276,-3.3276,-3.3276,-3.3276,-3.3276,-3.3276,-3.3276,-3.3361,-3.3536,-3.3848,-3.421,-3.4534,-3.4868,-3.5246,-3.5587,-3.5925,-3.6085,-3.6242,-3.6414,-3.6476,-3.6554,-3.6569,-3.6585,-3.6523,-3.6554,-3.6616,-3.6616,-3.6647,-3.6647,-3.6677,-3.6739,-3.6831,-3.6984,-3.718,-3.724,-3.7359,-3.7642,-3.7817,-3.8065,-3.8323,-3.8576,-3.8799,-3.9045,-3.9282,-3.9497,-3.9705,-3.9918,-4.0138,-2.8803,-2.885,-2.9301,-2.9531,-2.9577,-2.9988,-3.0216,-3.0216,-3.0216,-3.0216,-3.0216,-3.0216,-3.0216,-3.0216,-3.0216,-3.0216,-3.0363,-3.0748,-3.0984,-3.1074,-3.1496,-3.1717,-3.1705,-3.1705,-3.1705,-3.1705,-3.1705,-3.1705,-3.1705,-3.1705,-3.1717,-3.1705,-3.1849,-3.1937,-3.2038,-3.2419,-3.2661,-3.2762,-3.2637,-3.2406,-3.2108,-3.1888,-3.1708,-3.1548,-3.178,-3.1963,-3.2109,-3.2182,-3.2205,-3.2205,-3.2205,-3.2205,-3.2205,-3.2205,-3.2205,-3.2205,-3.2205,-3.235,-3.2596,-3.269,-3.2881,-3.3241,-3.3276,-3.3276,-3.3276,-3.3276,-3.3276,-3.3276,-3.3276,-3.3276,-3.3276,-3.3276,-3.3276,-3.3312,-3.3396,-3.3605,-3.3882,-3.4191,-3.4515,-3.4883,-3.51,-3.5394,-3.5718,-3.5958,-3.6116,-3.6274,-3.6414,-3.6492,-3.6492,-3.6492,-3.6492,-3.6492,-3.6523,-3.6523,-3.6523,-3.6523,-3.6523,-3.6554,-3.6647,-3.6754,-3.6984,-3.715,-3.7375,-3.7642,-3.773,-3.7905,-3.8135,-3.8391,-3.8616,-3.8854,-3.9067,-3.9276,-3.9478,-3.9694,-3.9935,-2.8803,-2.8839,-2.9301,-2.9531,-2.9577,-2.9988,-3.0216,-3.0216,-3.0216,-3.0216,-3.0216,-3.0216,-3.0216,-3.0216,-3.0216,-3.0216,-3.0261,-3.0736,-3.0984,-3.1074,-3.1496,-3.1661,-3.1705,-3.1705,-3.1705,-3.1705,-3.1705,-3.1705,-3.1705,-3.1705,-3.1761,-3.1849,-3.1937,-3.2081,-3.2332,-3.255,-3.2896,-3.3096,-3.2991,-3.2772,-3.2513,-3.2318,-3.2055,-3.1827,-3.1927,-3.2073,-3.2169,-3.2205,-3.2205,-3.2205,-3.2205,-3.2205,-3.2205,-3.2205,-3.2205,-3.2205,-3.2205,-3.235,-3.2596,-3.269,-3.2895,-3.3206,-3.3276,-3.3276,-3.3276,-3.3276,-3.3276,-3.3276,-3.3276,-3.3276,-3.3276,-3.3276,-3.3276,-3.3312,-3.3396,-3.3619,-3.3848,-3.4054,-3.438,-3.4716,-3.4983,-3.5198,-3.5557,-3.5814,-3.6022,-3.6211,-3.6383,-3.646,-3.6492,-3.6492,-3.6492,-3.6492,-3.6492,-3.6492,-3.6492,-3.6492,-3.6492,-3.6523,-3.6523,-3.6631,-3.68,-3.7029,-3.724,-3.7449,-3.7596,-3.7743,-3.7963,-3.8164,-3.8408,-3.8632,-3.8865,-3.9083,-3.9272,-3.9458,-3.9746,-2.8803,-2.885,-2.9301,-2.9531,-2.9577,-2.9988,-3.0216,-3.0216,-3.0216,-3.0216,-3.0216,-3.0216,-3.0216,-3.0216,-3.0216,-3.0216,-3.0216,-3.0748,-3.1017,-3.1241,-3.1496,-3.1705,-3.1705,-3.1705,-3.1705,-3.1705,-3.1705,-3.1705,-3.1761,-3.1761,-3.1849,-3.2038,-3.2081,-3.2288,-3.2593,-3.2754,-3.3013,-3.3322,-3.3257,-3.3116,-3.2908,-3.2709,-3.2406,-3.2135,-3.2063,-3.2146,-3.2169,-3.2205,-3.2205,-3.2205,-3.2205,-3.2205,-3.2205,-3.2205,-3.2205,-3.2205,-3.2205,-3.235,-3.2632,-3.269,-3.286,-3.3206,-3.3276,-3.3276,-3.3276,-3.3276,-3.3276,-3.3276,-3.3276,-3.3276,-3.3276,-3.3276,-3.3276,-3.3276,-3.3312,-3.3501,-3.3744,-3.3896,-3.4088,-3.4597,-3.4783,-3.5067,-3.5409,-3.5733,-3.6005,-3.6116,-3.6289,-3.6383,-3.646,-3.6492,-3.6492,-3.6492,-3.6492,-3.6492,-3.6492,-3.6492,-3.6492,-3.6492,-3.6492,-3.6554,-3.6677,-3.6877,-3.7074,-3.7254,-3.7419,-3.7567,-3.7759,-3.7979,-3.818,-3.8379,-3.8616,-3.8865,-3.9083,-3.9299,-3.9537,-2.8803,-2.885,-2.9301,-2.9531,-2.9577,-2.9977,-3.0216,-3.0216,-3.0216,-3.0216,-3.0216,-3.0216,-3.0216,-3.0216,-3.0216,-3.0216,-3.0273,-3.0748,-3.1196,-3.1528,-3.1629,-3.1705,-3.1705,-3.1705,-3.1705,-3.1717,-3.1705,-3.1805,-3.1906,-3.1994,-3.2038,-3.23,-3.2419,-3.2581,-3.2723,-3.3056,-3.3343,-3.3615,-3.3711,-3.3749,-3.354,-3.3237,-3.2871,-3.2559,-3.2312,-3.2182,-3.2205,-3.2205,-3.2205,-3.2205,-3.2205,-3.2205,-3.2205,-3.2205,-3.2205,-3.2205,-3.2205,-3.235,-3.2596,-3.2725,-3.2846,-3.3241,-3.3276,-3.3276,-3.3276,-3.3276,-3.3276,-3.3276,-3.3276,-3.3276,-3.3276,-3.3276,-3.3276,-3.3276,-3.3312,-3.3396,-3.3619,-3.3813,-3.4054,-3.438,-3.4702,-3.5001,-3.5261,-3.5557,-3.5799,-3.599,-3.6163,-3.632,-3.6383,-3.646,-3.6492,-3.6492,-3.6492,-3.6492,-3.6492,-3.6492,-3.6492,-3.6492,-3.6492,-3.6492,-3.66,-3.6693,-3.6907,-3.7074,-3.7254,-3.7419,-3.7612,-3.773,-3.7934,-3.8135,-3.8351,-3.856,-3.881,-3.9056,-3.9299,-2.8803,-2.885,-2.9312,-2.9531,-2.9566,-2.9988,-3.0216,-3.0216,-3.0216,-3.0216,-3.0216,-3.0216,-3.0216,-3.0216,-3.0216,-3.0216,-3.0318,-3.0748,-3.1241,-3.1617,-3.1705,-3.1705,-3.1705,-3.1705,-3.1705,-3.1805,-3.1849,-3.1981,-3.2125,-3.2213,-3.2288,-3.2506,-3.268,-3.284,-3.3025,-3.3258,-3.3556,-3.3852,-3.4092,-3.4177,-3.3979,-3.3634,-3.3066,-3.262,-3.2308,-3.2205,-3.2205,-3.2205,-3.2205,-3.2205,-3.2205,-3.2205,-3.2205,-3.2205,-3.2205,-3.2205,-3.2205,-3.2372,-3.2596,-3.2725,-3.286,-3.3276,-3.3276,-3.3276,-3.3276,-3.3276,-3.3276,-3.3276,-3.3276,-3.3276,-3.3276,-3.3276,-3.3276,-3.3276,-3.3276,-3.3347,-3.3466,-3.364,-3.3882,-3.421,-3.4481,-3.4769,-3.5034,-3.5394,-3.5606,-3.5831,-3.6116,-3.6242,-3.632,-3.6383,-3.6492,-3.6492,-3.6492,-3.6492,-3.6492,-3.6492,-3.6492,-3.6492,-3.6492,-3.6492,-3.6554,-3.6647,-3.6739,-3.6938,-3.715,-3.7329,-3.7508,-3.7596,-3.773,-3.7905,-3.8107,-3.8307,-3.8504,-3.8771,-3.9056,-2.8803,-2.885,-2.9301,-2.9531,-2.9577,-2.9988,-3.0216,-3.0216,-3.0216,-3.0216,-3.0216,-3.0216,-3.0216,-3.0216,-3.0216,-3.0216,-3.0454,-3.0826,-3.1318,-3.1673,-3.1705,-3.1705,-3.1717,-3.1761,-3.1893,-3.2025,-3.1981,-3.2169,-3.2388,-3.2475,-3.255,-3.2711,-3.2797,-3.3013,-3.3313,-3.3526,-3.3738,-3.4105,-3.4356,-3.4489,-3.4299,-3.391,-3.3138,-3.2417,-3.2209,-3.2205,-3.2205,-3.2205,-3.2205,-3.2205,-3.2205,-3.2205,-3.2205,-3.2205,-3.2205,-3.2205,-3.2205,-3.2372,-3.2632,-3.2725,-3.2846,-3.3241,-3.3276,-3.3276,-3.3276,-3.3276,-3.3276,-3.3276,-3.3276,-3.3276,-3.3276,-3.3276,-3.3276,-3.3276,-3.3276,-3.3276,-3.3326,-3.3466,-3.3695,-3.404,-3.4346,-3.4616,-3.4883,-3.5213,-3.5427,-3.5671,-3.5958,-3.6164,-3.6211,-3.6274,-3.6383,-3.646,-3.646,-3.6492,-3.6492,-3.6492,-3.6492,-3.6492,-3.6492,-3.6492,-3.6492,-3.6554,-3.6647,-3.6862,-3.7044,-3.724,-3.7389,-3.7524,-3.7628,-3.7746,-3.7876,-3.8078,-3.8278,-3.8464,-3.8755,-2.8803,-2.885,-2.9301,-2.9531,-2.9577,-2.9988,-3.0216,-3.0216,-3.0216,-3.0216,-3.0216,-3.0216,-3.0216,-3.0216,-3.0216,-3.0408,-3.0769,-3.1095,-3.1407,-3.1673,-3.1705,-3.1705,-3.1749,-3.1849,-3.2081,-3.2225,-3.2169,-3.23,-3.2593,-3.2667,-3.281,-3.3025,-3.3185,-3.3356,-3.3526,-3.3738,-3.4076,-3.4356,-3.4618,-3.4856,-3.4848,-3.4109,-3.3149,-3.2331,-3.2205,-3.2205,-3.2205,-3.2205,-3.2205,-3.2205,-3.2205,-3.2205,-3.2205,-3.2205,-3.2205,-3.2205,-3.2205,-3.2336,-3.2632,-3.269,-3.2895,-3.3171,-3.3276,-3.3276,-3.3276,-3.3276,-3.3276,-3.3276,-3.3276,-3.3276,-3.3276,-3.3276,-3.3276,-3.3276,-3.3276,-3.3276,-3.3326,-3.3361,-3.3536,-3.3882,-3.4176,-3.4481,-3.4716,-3.4997,-3.5246,-3.5459,-3.5718,-3.5926,-3.6022,-3.6116,-3.6242,-3.632,-3.6383,-3.646,-3.6492,-3.6492,-3.6492,-3.6492,-3.6492,-3.6492,-3.6492,-3.6492,-3.6616,-3.6739,-3.6923,-3.7075,-3.7255,-3.7435,-3.7569,-3.7642,-3.7759,-3.7876,-3.8078,-3.8278,-3.8476,-2.8803,-2.8861,-2.929,-2.9531,-2.9577,-2.9988,-3.0216,-3.0216,-3.0216,-3.0216,-3.0216,-3.0216,-3.0216,-3.0216,-3.0216,-3.0499,-3.0916,-3.1229,-3.1439,-3.1661,-3.1705,-3.1749,-3.1837,-3.1994,-3.2257,-3.2431,-3.2463,-3.2562,-3.2896,-3.3013,-3.3099,-3.3283,-3.3441,-3.3598,-3.3781,-3.4076,-3.4369,-3.4618,-3.4908,-3.5182,-3.5278,-3.4269,-3.3263,-3.2471,-3.2205,-3.2205,-3.2205,-3.2205,-3.2205,-3.2205,-3.2205,-3.2205,-3.2205,-3.2205,-3.2205,-3.2205,-3.2205,-3.2336,-3.2632,-3.269,-3.2895,-3.3241,-3.3276,-3.3276,-3.3276,-3.3276,-3.3276,-3.3276,-3.3276,-3.3276,-3.3276,-3.3276,-3.3276,-3.3276,-3.3276,-3.3276,-3.3276,-3.3276,-3.3466,-3.3709,-3.3951,-3.4225,-3.4515,-3.4765,-3.503,-3.5261,-3.5474,-3.5653,-3.5799,-3.5926,-3.6053,-3.6179,-3.6258,-3.6367,-3.6414,-3.6445,-3.6492,-3.6492,-3.6492,-3.6492,-3.6492,-3.6492,-3.6523,-3.6585,-3.6754,-3.6907,-3.7134,-3.7328,-3.7433,-3.7583,-3.7671,-3.7788,-3.7934,-3.8107,-3.8278,-2.8574,-2.8754,-2.9157,-2.9442,-2.9623,-3.0034,-3.0216,-3.0216,-3.0216,-3.0216,-3.0216,-3.0216,-3.0216,-3.0261,-3.0363,-3.0646,-3.1017,-3.1273,-3.1528,-3.1661,-3.1705,-3.1805,-3.1937,-3.2113,-3.2288,-3.2636,-3.284,-3.2939,-3.3154,-3.327,-3.3386,-3.3513,-3.367,-3.3852,-3.4076,-3.4327,-3.4618,-3.4867,-3.5195,-3.5345,-3.4928,-3.4317,-3.3338,-3.2318,-3.2205,-3.2205,-3.2205,-3.2205,-3.2205,-3.2205,-3.2205,-3.2205,-3.2205,-3.2205,-3.2205,-3.2228,-3.2241,-3.2408,-3.2596,-3.2761,-3.2966,-3.3241,-3.3276,-3.3276,-3.3276,-3.3276,-3.3276,-3.3276,-3.3276,-3.3276,-3.3276,-3.3276,-3.3276,-3.3276,-3.3276,-3.3276,-3.3276,-3.3312,-3.3361,-3.357,-3.3744,-3.3985,-3.4278,-3.4515,-3.4798,-3.4997,-3.518,-3.5344,-3.5524,-3.5718,-3.5846,-3.6005,-3.6132,-3.6227,-3.6321,-3.6367,-3.6445,-3.6492,-3.6492,-3.6492,-3.6492,-3.6492,-3.6523,-3.6523,-3.6569,-3.6739,-3.6982,-3.7207,-3.7371,-3.7476,-3.7596,-3.77,-3.7817,-3.795,-3.8139,-2.7854,-2.8475,-2.8768,-2.9252,-2.9818,-3.0045,-3.0204,-3.0193,-3.0204,-3.0216,-3.0216,-3.0216,-3.0216,-3.0318,-3.0703,-3.0927,-3.1107,-3.1395,-3.1661,-3.1705,-3.1717,-3.1849,-3.2038,-3.2269,-3.2506,-3.2797,-3.3142,-3.3313,-3.3411,-3.3441,-3.3513,-3.3683,-3.3937,-3.4076,-3.4215,-3.4577,-3.4839,-3.5072,-3.5277,-3.4995,-3.4277,-3.3964,-3.3271,-3.2508,-3.2205,-3.2205,-3.2205,-3.2205,-3.2205,-3.2205,-3.2205,-3.2205,-3.2205,-3.2205,-3.2264,-3.2322,-3.2381,-3.2467,-3.2704,-3.2846,-3.3037,-3.3227,-3.3276,-3.3276,-3.3276,-3.3276,-3.3276,-3.3276,-3.3276,-3.3276,-3.3276,-3.3276,-3.3276,-3.3276,-3.3276,-3.3276,-3.3276,-3.3276,-3.3361,-3.3396,-3.357,-3.3799,-3.4074,-3.4312,-3.4515,-3.4716,-3.4883,-3.5082,-3.5246,-3.5474,-3.5668,-3.5829,-3.5941,-3.607,-3.6211,-3.6274,-3.6352,-3.646,-3.6492,-3.6492,-3.6492,-3.6492,-3.6492,-3.6523,-3.6538,-3.6616,-3.6876,-3.7103,-3.7266,-3.7417,-3.7537,-3.7612,-3.77,-3.7833,-3.8011,-2.7085,-2.8044,-2.8254,-2.861,-2.9069,-2.9598,-2.9814,-2.9871,-3.0101,-3.0216,-3.0216,-3.0216,-3.0216,-3.0306,-3.0748,-3.0984,-3.1107,-3.1484,-3.1705,-3.1761,-3.1805,-3.1994,-3.2257,-3.2475,-3.2711,-3.3043,-3.33,-3.3569,-3.3696,-3.3781,-3.3865,-3.3992,-3.4298,-3.4507,-3.4507,-3.4921,-3.5154,-3.5318,-3.5346,-3.498,-3.4219,-3.3826,-3.3338,-3.23,-3.2218,-3.2205,-3.2205,-3.2205,-3.2205,-3.2205,-3.2205,-3.2205,-3.2228,-3.2259,-3.2349,-3.2381,-3.2632,-3.2775,-3.2881,-3.2952,-3.3108,-3.3241,-3.3276,-3.3276,-3.3276,-3.3276,-3.3276,-3.3276,-3.3276,-3.3276,-3.3276,-3.3276,-3.3276,-3.3276,-3.3276,-3.3276,-3.3276,-3.3276,-3.3312,-3.3312,-3.3396,-3.3626,-3.3833,-3.4074,-3.4278,-3.4481,-3.4683,-3.485,-3.5049,-3.5213,-3.5442,-3.5651,-3.575,-3.5894,-3.6037,-3.6147,-3.6226,-3.6336,-3.646,-3.646,-3.6492,-3.6492,-3.6492,-3.6492,-3.6523,-3.6631,-3.6816,-3.6997,-3.7161,-3.7328,-3.751,-3.7569,-3.7628,-3.77,-3.7892,-2.6491,-2.7411,-2.7707,-2.8068,-2.8498,-2.9049,-2.9297,-2.9355,-2.9814,-3.0032,-3.0078,-3.0147,-3.0216,-3.0318,-3.0691,-3.0984,-3.1029,-3.1496,-3.1661,-3.1761,-3.1893,-3.2125,-3.2344,-3.2593,-3.2927,-3.3386,-3.3428,-3.3696,-3.3992,-3.4202,-3.4285,-3.4298,-3.459,-3.4797,-3.4921,-3.5168,-3.5399,-3.548,-3.5588,-3.5046,-3.4151,-3.3908,-3.324,-3.2548,-3.2205,-3.2205,-3.2205,-3.2205,-3.2205,-3.2205,-3.2205,-3.2205,-3.225,-3.2349,-3.2478,-3.2569,-3.2846,-3.2988,-3.3037,-3.3122,-3.3157,-3.3241,-3.3276,-3.3276,-3.3276,-3.3276,-3.3276,-3.3276,-3.3276,-3.3276,-3.3276,-3.3276,-3.3276,-3.3276,-3.3276,-3.3276,-3.3276,-3.3276,-3.3276,-3.3312,-3.3361,-3.3361,-3.3605,-3.3833,-3.404,-3.4244,-3.4448,-3.4616,-3.4817,-3.5016,-3.5148,-3.5344,-3.5507,-3.5606,-3.5797,-3.5972,-3.6052,-3.6195,-3.6352,-3.646,-3.646,-3.6492,-3.6492,-3.6492,-3.6492,-3.66,-3.6754,-3.6921,-3.7055,-3.7238,-3.7405,-3.748,-3.7569,-3.7628,-3.7759,-2.6221,-2.6737,-2.7166,-2.7838,-2.8611,-2.8723,-2.8758,-2.8804,-2.932,-2.9561,-2.9676,-2.9998,-3.0216,-3.0363,-3.0736,-3.1017,-3.1017,-3.1496,-3.1661,-3.1805,-3.1893,-3.2169,-3.2419,-3.2711,-3.297,-3.3386,-3.3598,-3.3865,-3.4173,-3.4507,-3.4673,-3.4769,-3.488,-3.4962,-3.5072,-3.5318,-3.5521,-3.5588,-3.5669,-3.5113,-3.426,-3.3813,-3.3311,-3.2453,-3.2205,-3.2205,-3.2205,-3.2205,-3.2205,-3.2205,-3.2205,-3.2277,-3.2345,-3.2429,-3.2558,-3.2818,-3.2952,-3.3108,-3.3192,-3.3241,-3.3276,-3.3276,-3.3276,-3.3276,-3.3276,-3.3276,-3.3276,-3.3276,-3.3276,-3.3276,-3.3276,-3.3276,-3.3276,-3.3276,-3.3276,-3.3276,-3.3276,-3.3276,-3.3276,-3.3276,-3.3326,-3.3361,-3.3361,-3.3591,-3.3764,-3.3985,-3.4157,-3.4346,-3.4582,-3.4783,-3.4868,-3.5034,-3.5133,-3.5297,-3.5522,-3.5683,-3.5861,-3.6037,-3.6211,-3.6352,-3.646,-3.646,-3.6492,-3.6492,-3.6492,-3.66,-3.6693,-3.6861,-3.7043,-3.7194,-3.7329,-3.7435,-3.7539,-3.7628,-3.773,-2.6271,-2.6614,-2.6941,-2.733,-2.7828,-2.8126,-2.8264,-2.8344,-2.8792,-2.9217,-2.9515,-2.9975,-3.0306,-3.0532,-3.0793,-3.1062,-3.1229,-3.1528,-3.1717,-3.1937,-3.2125,-3.2388,-3.2636,-3.2927,-3.3313,-3.3598,-3.3865,-3.416,-3.4548,-3.4756,-3.4962,-3.5086,-3.5113,-3.5195,-3.5358,-3.548,-3.5588,-3.5669,-3.5628,-3.5126,-3.4179,-3.3853,-3.3338,-3.2304,-3.2218,-3.2205,-3.2205,-3.2205,-3.2205,-3.2205,-3.2205,-3.23,-3.2439,-3.2544,-3.2735,-3.3009,-3.3108,-3.3192,-3.3276,-3.3276,-3.3276,-3.3276,-3.3276,-3.3276,-3.3276,-3.3276,-3.3276,-3.3276,-3.3276,-3.3276,-3.3276,-3.3276,-3.3276,-3.3276,-3.3276,-3.3276,-3.3276,-3.3276,-3.3276,-3.3276,-3.3276,-3.3326,-3.3326,-3.3382,-3.3536,-3.3675,-3.3882,-3.4088,-3.4312,-3.4515,-3.4601,-3.4735,-3.4868,-3.5049,-3.5261,-3.5442,-3.5668,-3.5846,-3.6053,-3.6211,-3.6352,-3.646,-3.6492,-3.6492,-3.6492,-3.6554,-3.6647,-3.6862,-3.6999,-3.715,-3.73,-3.748,-3.7569,-3.7628,-3.7671,-2.6365,-2.6603,-2.6809,-2.7026,-2.7236,-2.761,-2.7759,-2.7839,-2.8276,-2.8781,-2.9297,-2.9757,-3.0133,-3.038,-3.0836,-3.1107,-3.1318,-3.1572,-3.1793,-3.2025,-3.2257,-3.2562,-3.2853,-3.3197,-3.3513,-3.381,-3.4063,-3.441,-3.4714,-3.4921,-3.5113,-3.5318,-3.544,-3.548,-3.5521,-3.5588,-3.571,-3.571,-3.5628,-3.5087,-3.4097,-3.388,-3.3376,-3.2422,-3.2218,-3.2205,-3.2205,-3.2205,-3.2205,-3.2205,-3.2264,-3.2359,-3.2519,-3.2678,-3.2876,-3.3066,-3.3192,-3.3276,-3.3276,-3.3276,-3.3276,-3.3276,-3.3276,-3.3276,-3.3276,-3.3276,-3.3276,-3.3276,-3.3276,-3.3276,-3.3276,-3.3276,-3.3276,-3.3276,-3.3276,-3.3276,-3.3276,-3.3276,-3.3276,-3.3276,-3.3276,-3.3276,-3.3312,-3.3347,-3.3466,-3.357,-3.3709,-3.3882,-3.404,-3.421,-3.4278,-3.4448,-3.4601,-3.4817,-3.4983,-3.5213,-3.5442,-3.5636,-3.5846,-3.6038,-3.6211,-3.6352,-3.6492,-3.6492,-3.6492,-3.6492,-3.6631,-3.6816,-3.6984,-3.7089,-3.7285,-3.751,-3.751,-3.7569,-3.7583,-2.6354,-2.6603,-2.6809,-2.7015,-2.719,-2.7201,-2.7236,-2.7362,-2.7851,-2.8299,-2.8769,-2.9274,-2.9671,-3.0029,-3.0646,-3.1045,-3.1395,-3.1617,-3.1837,-3.2069,-3.2344,-3.2692,-3.3025,-3.3368,-3.3683,-3.4076,-3.4327,-3.4577,-3.4839,-3.5113,-3.5358,-3.548,-3.5602,-3.5642,-3.5669,-3.5669,-3.571,-3.571,-3.5696,-3.495,-3.4231,-3.3905,-3.3173,-3.2504,-3.2205,-3.2205,-3.2205,-3.2205,-3.2205,-3.2228,-3.2295,-3.2475,-3.269,-3.2869,-3.3073,-3.3262,-3.3276,-3.3276,-3.3276,-3.3276,-3.3276,-3.3276,-3.3276,-3.3276,-3.3276,-3.3276,-3.3276,-3.3276,-3.3276,-3.3276,-3.3276,-3.3276,-3.3276,-3.3276,-3.3276,-3.3276,-3.3276,-3.3276,-3.3276,-3.3276,-3.3276,-3.3276,-3.3276,-3.3312,-3.3431,-3.3501,-3.357,-3.3709,-3.3848,-3.3951,-3.4005,-3.4176,-3.438,-3.4549,-3.475,-3.5016,-3.5246,-3.5457,-3.5636,-3.5831,-3.6038,-3.6211,-3.632,-3.646,-3.6492,-3.6492,-3.6616,-3.677,-3.6984,-3.7195,-3.7345,-3.751,-3.751,-3.751,-3.7524,-2.652,-2.6644,-2.6974,-2.7149,-2.719,-2.719,-2.719,-2.7282,-2.7748,-2.8069,-2.8299,-2.8758,-2.9456,-2.9975,-3.0338,-3.0829,-3.1524,-3.1805,-3.2025,-3.2257,-3.2519,-3.2884,-3.3227,-3.3569,-3.3852,-3.4243,-3.4535,-3.488,-3.5208,-3.5358,-3.548,-3.5588,-3.5669,-3.571,-3.571,-3.571,-3.571,-3.5628,-3.533,-3.4694,-3.3975,-3.358,-3.3061,-3.2259,-3.2205,-3.2205,-3.2205,-3.2205,-3.2241,-3.2286,-3.239,-3.2569,-3.2832,-3.3003,-3.3122,-3.3262,-3.3276,-3.3276,-3.3276,-3.3276,-3.3276,-3.3276,-3.3276,-3.3276,-3.3276,-3.3276,-3.3276,-3.3276,-3.3276,-3.3276,-3.3276,-3.3276,-3.3276,-3.3276,-3.3276,-3.3276,-3.3276,-3.3276,-3.3276,-3.3276,-3.3276,-3.3276,-3.3276,-3.3276,-3.3361,-3.3396,-3.3466,-3.3536,-3.3675,-3.3709,-3.3779,-3.3985,-3.4142,-3.4278,-3.4481,-3.475,-3.5016,-3.5228,-3.5409,-3.5621,-3.5831,-3.6053,-3.6211,-3.632,-3.6414,-3.6492,-3.6647,-3.6801,-3.7091,-3.7317,-3.7421,-3.751,-3.751,-3.751,-3.751,-2.6644,-2.6727,-2.7067,-2.719,-2.719,-2.719,-2.719,-2.7247,-2.7575,-2.7725,-2.7816,-2.8314,-2.8939,-2.9554,-2.9997,-3.0502,-3.1392,-3.1646,-3.2096,-3.2394,-3.2723,-3.3099,-3.3428,-3.3768,-3.4105,-3.4494,-3.4784,-3.5086,-3.5358,-3.548,-3.5562,-3.5683,-3.571,-3.571,-3.571,-3.571,-3.571,-3.556,-3.5154,-3.4558,-3.3935,-3.3417,-3.2843,-3.2381,-3.2205,-3.2205,-3.2205,-3.2205,-3.2264,-3.2381,-3.2511,-3.2676,-3.2925,-3.308,-3.3136,-3.3262,-3.3276,-3.3276,-3.3276,-3.3276,-3.3276,-3.3276,-3.3276,-3.3276,-3.3276,-3.3276,-3.3276,-3.3276,-3.3276,-3.3276,-3.3276,-3.3276,-3.3276,-3.3276,-3.3276,-3.3276,-3.3276,-3.3276,-3.3276,-3.3276,-3.3276,-3.3276,-3.3276,-3.3276,-3.3312,-3.3312,-3.3312,-3.3396,-3.3501,-3.3536,-3.357,-3.3744,-3.3917,-3.404,-3.4244,-3.4481,-3.475,-3.4997,-3.5213,-3.5442,-3.5668,-3.5878,-3.6053,-3.6211,-3.6383,-3.6523,-3.6616,-3.6816,-3.7076,-3.7287,-3.7421,-3.748,-3.751,-3.751,-3.751,-2.6727,-2.6933,-2.7097,-2.719,-2.719,-2.719,-2.719,-2.719,-2.7213,-2.7236,-2.7247,-2.799,-2.8531,-2.8863,-2.9408,-3.0138,-3.0857,-3.1132,-3.1718,-3.234,-3.2721,-3.3212,-3.3658,-3.3979,-3.4369,-3.4701,-3.5003,-3.5236,-3.544,-3.5548,-3.5683,-3.5723,-3.571,-3.5642,-3.5601,-3.5533,-3.5533,-3.5303,-3.4883,-3.4287,-3.3742,-3.3213,-3.2721,-3.2341,-3.2205,-3.2205,-3.2205,-3.2241,-3.23,-3.2453,-3.2632,-3.281,-3.3002,-3.3192,-3.3276,-3.3276,-3.3276,-3.3276,-3.3276,-3.3276,-3.3276,-3.3276,-3.3276,-3.3276,-3.3276,-3.3276,-3.3276,-3.3276,-3.3276,-3.3276,-3.3276,-3.3276,-3.3276,-3.3276,-3.3276,-3.3276,-3.3276,-3.3276,-3.3276,-3.3276,-3.3276,-3.3276,-3.3276,-3.3276,-3.3276,-3.3276,-3.3276,-3.3312,-3.3396,-3.3347,-3.3431,-3.355,-3.3675,-3.3799,-3.4005,-3.4244,-3.4481,-3.4716,-3.5016,-3.5246,-3.5507,-3.5733,-3.5926,-3.6148,-3.6352,-3.6523,-3.6631,-3.6831,-3.7045,-3.7227,-3.7391,-3.748,-3.751,-3.751,-3.751,-2.6727,-2.6933,-2.7149,-2.719,-2.719,-2.719,-2.719,-2.719,-2.719,-2.719,-2.7242,-2.7562,-2.814,-2.8698,-2.9059,-2.9762,-3.0356,-3.0893,-3.1512,-3.2067,-3.2575,-3.3237,-3.3769,-3.4126,-3.4538,-3.4881,-3.5155,-3.5345,-3.5548,-3.571,-3.571,-3.571,-3.5628,-3.5465,-3.5168,-3.5032,-3.5019,-3.4856,-3.4409,-3.3959,-3.339,-3.282,-3.2463,-3.2273,-3.2205,-3.2205,-3.2205,-3.23,-3.2395,-3.2596,-3.281,-3.3002,-3.3206,-3.3276,-3.3276,-3.3276,-3.3276,-3.3276,-3.3276,-3.3276,-3.3276,-3.3276,-3.3276,-3.3276,-3.3276,-3.3276,-3.3276,-3.3276,-3.3276,-3.3276,-3.3276,-3.3276,-3.3276,-3.3276,-3.3276,-3.3276,-3.3276,-3.3276,-3.3276,-3.3276,-3.3276,-3.3276,-3.3276,-3.3276,-3.3276,-3.3276,-3.3276,-3.3276,-3.3276,-3.3276,-3.3326,-3.3431,-3.3501,-3.3626,-3.3799,-3.4005,-3.4244,-3.4481,-3.4783,-3.5049,-3.5279,-3.5524,-3.5799,-3.6053,-3.632,-3.6523,-3.6647,-3.6847,-3.6969,-3.7211,-3.7345,-3.745,-3.751,-3.751,-3.751,-2.685,-2.7015,-2.7138,-2.719,-2.719,-2.719,-2.719,-2.719,-2.719,-2.7231,-2.733,-2.7586,-2.7964,-2.8473,-2.8829,-2.9338,-3.0068,-3.047,-3.1058,-3.1718,-3.2244,-3.2821,-3.3394,-3.3837,-3.419,-3.4646,-3.5023,-3.5197,-3.5534,-3.5669,-3.5669,-3.529,-3.5331,-3.4965,-3.4612,-3.4409,-3.4273,-3.4082,-3.3756,-3.3403,-3.2969,-3.2531,-3.23,-3.2205,-3.2205,-3.2205,-3.2205,-3.2322,-3.2489,-3.2704,-3.2881,-3.3108,-3.3241,-3.3276,-3.3276,-3.3276,-3.3276,-3.3276,-3.3276,-3.3276,-3.3276,-3.3276,-3.3276,-3.3276,-3.3276,-3.3276,-3.3276,-3.3276,-3.3276,-3.3276,-3.3276,-3.3276,-3.3276,-3.3276,-3.3276,-3.3276,-3.3276,-3.3276,-3.3276,-3.3276,-3.3276,-3.3276,-3.3276,-3.3276,-3.3276,-3.3276,-3.3276,-3.3276,-3.3276,-3.3276,-3.3276,-3.3361,-3.3431,-3.3501,-3.366,-3.3799,-3.404,-3.4312,-3.4631,-3.4883,-3.5082,-3.5409,-3.5718,-3.6037,-3.6336,-3.6492,-3.6616,-3.6739,-3.6908,-3.7105,-3.7285,-3.7375,-3.7435,-3.751,-3.751,-2.7015,-2.719,-2.719,-2.719,-2.719,-2.719,-2.719,-2.7231,-2.7219,-2.733,-2.7522,-2.7788,-2.8054,-2.835,-2.8671,-2.9052,-2.9662,-3.0066,-3.0713,-3.1389,-3.1847,-3.2405,-3.2868,-3.2988,-3.3741,-3.4192,-3.4524,-3.4765,-3.5317,-3.533,-3.4992,-3.4734,-3.4721,-3.4423,-3.3935,-3.384,-3.3647,-3.32,-3.3129,-3.2952,-3.2857,-3.2517,-3.2205,-3.2205,-3.2205,-3.2205,-3.2277,-3.2359,-3.2525,-3.2704,-3.2931,-3.3157,-3.3241,-3.3276,-3.3276,-3.3276,-3.3276,-3.3276,-3.3276,-3.3276,-3.3276,-3.3276,-3.3276,-3.3276,-3.3276,-3.3276,-3.3276,-3.3276,-3.3276,-3.3276,-3.3276,-3.3276,-3.3276,-3.3276,-3.3276,-3.3276,-3.3276,-3.3276,-3.3276,-3.3276,-3.3276,-3.3276,-3.3276,-3.3276,-3.3276,-3.3276,-3.3276,-3.3276,-3.3276,-3.3276,-3.3276,-3.3276,-3.3347,-3.3431,-3.3536,-3.3709,-3.3882,-3.4157,-3.4462,-3.475,-3.4968,-3.5311,-3.5683,-3.5988,-3.6258,-3.6398,-3.6523,-3.6677,-3.6831,-3.6984,-3.7165,-3.73,-3.7375,-3.748,-3.751,-2.7015,-2.719,-2.719,-2.719,-2.719,-2.719,-2.7301,-2.74,-2.7441,-2.7441,-2.7563,-2.7926,-2.8139,-2.8299,-2.8645,-2.9029,-2.9327,-2.9882,-3.0462,-3.1069,-3.1537,-3.2058,-3.2738,-3.2946,-3.3419,-3.3733,-3.3997,-3.4196,-3.4477,-3.4436,-3.4328,-3.4138,-3.4111,-3.3865,-3.3322,-3.3268,-3.2996,-3.2585,-3.2544,-3.2531,-3.2463,-3.2395,-3.2205,-3.2205,-3.2205,-3.2264,-3.2359,-3.2525,-3.2704,-3.2917,-3.3122,-3.3241,-3.3276,-3.3276,-3.3276,-3.3276,-3.3276,-3.3276,-3.3276,-3.3276,-3.3276,-3.3276,-3.3276,-3.3276,-3.3276,-3.3276,-3.3276,-3.3276,-3.3276,-3.3276,-3.3276,-3.3276,-3.3276,-3.3276,-3.3276,-3.3276,-3.3276,-3.3276,-3.3276,-3.3276,-3.3276,-3.3276,-3.3276,-3.3276,-3.3276,-3.3276,-3.3276,-3.3276,-3.3276,-3.3276,-3.3276,-3.3276,-3.3276,-3.3361,-3.3431,-3.357,-3.3779,-3.3971,-3.4278,-3.4549,-3.4868,-3.5264,-3.5668,-3.591,-3.6148,-3.6289,-3.6445,-3.6631,-3.6754,-3.6923,-3.7075,-3.721,-3.7375,-3.748,-3.751,-2.7108,-2.719,-2.719,-2.719,-2.7231,-2.7301,-2.7412,-2.7522,-2.7725,-2.7805,-2.7857,-2.8087,-2.8299,-2.8447,-2.8803,-2.9131,-2.9417,-2.9779,-3.0329,-3.0894,-3.1292,-3.169,-3.2233,-3.2686,-3.3022,-3.3282,-3.3723,-3.3935,-3.3826,-3.3908,-3.3921,-3.362,-3.3512,-3.3281,-3.2816,-3.268,-3.2572,-3.2259,-3.2218,-3.2205,-3.2205,-3.2205,-3.2205,-3.2205,-3.2277,-3.2322,-3.2453,-3.2668,-3.2846,-3.3037,-3.3157,-3.3276,-3.3276,-3.3276,-3.3276,-3.3276,-3.3276,-3.3276,-3.3276,-3.3276,-3.3276,-3.3276,-3.3276,-3.3276,-3.3276,-3.3276,-3.3276,-3.3276,-3.3276,-3.3276,-3.3276,-3.3276,-3.3276,-3.3276,-3.3276,-3.3276,-3.3276,-3.3276,-3.3276,-3.3276,-3.3276,-3.3276,-3.3276,-3.3276,-3.3276,-3.3276,-3.3276,-3.3276,-3.3276,-3.3276,-3.3276,-3.3276,-3.3276,-3.3276,-3.3347,-3.3501,-3.3709,-3.3917,-3.4108,-3.4433,-3.4802,-3.5264,-3.5653,-3.5831,-3.6022,-3.6196,-3.6352,-3.6523,-3.6662,-3.6785,-3.6984,-3.7165,-3.7331,-3.745,-3.748,-2.719,-2.719,-2.719,-2.7231,-2.726,-2.74,-2.7522,-2.7684,-2.8007,-2.8219,-2.8287,-2.8299,-2.8526,-2.8764,-2.9131,-2.9468,-2.9792,-3.0088,-3.0471,-3.0737,-3.1014,-3.151,-3.1758,-3.1927,-3.2422,-3.2857,-3.3271,-3.3433,-3.346,-3.3433,-3.3268,-3.3047,-3.2884,-3.2721,-3.2354,-3.2218,-3.2218,-3.2218,-3.2205,-3.2205,-3.2205,-3.2205,-3.2205,-3.2264,-3.2322,-3.2403,-3.2583,-3.2775,-3.2988,-3.3108,-3.3206,-3.3276,-3.3276,-3.3276,-3.3276,-3.3276,-3.3276,-3.3276,-3.3276,-3.3276,-3.3276,-3.3276,-3.3276,-3.3276,-3.3276,-3.3276,-3.3276,-3.3276,-3.3276,-3.3276,-3.3276,-3.3276,-3.3276,-3.3276,-3.3276,-3.3276,-3.3276,-3.3276,-3.3276,-3.3276,-3.3276,-3.3276,-3.3276,-3.3276,-3.3276,-3.3276,-3.3276,-3.3276,-3.3276,-3.3276,-3.3276,-3.3276,-3.3276,-3.3276,-3.3276,-3.3396,-3.357,-3.3779,-3.3985,-3.4366,-3.4735,-3.5166,-3.5459,-3.5686,-3.5863,-3.6101,-3.6274,-3.6414,-3.6538,-3.6693,-3.6816,-3.7014,-3.7225,-3.7345,-3.7435,-2.719,-2.719,-2.719,-2.7301,-2.7441,-2.7522,-2.7725,-2.8047,-2.8179,-2.8367,-2.8605,-2.8685,-2.8764,-2.8843,-2.9468,-2.9792,-2.9985,-3.0356,-3.0685,-3.0962,-3.1161,-3.1508,-3.1743,-3.189,-3.2067,-3.238,-3.2616,-3.2535,-3.2847,-3.2711,-3.2521,-3.2449,-3.2422,-3.2354,-3.23,-3.2205,-3.2205,-3.2205,-3.2241,-3.2277,-3.23,-3.23,-3.2286,-3.2322,-3.2381,-3.2632,-3.281,-3.2952,-3.3072,-3.3206,-3.3276,-3.3276,-3.3276,-3.3276,-3.3276,-3.3276,-3.3276,-3.3276,-3.3276,-3.3276,-3.3276,-3.3276,-3.3276,-3.3276,-3.3276,-3.3276,-3.3276,-3.3276,-3.3276,-3.3276,-3.3276,-3.3276,-3.3276,-3.3276,-3.3276,-3.3276,-3.3276,-3.3276,-3.3276,-3.3276,-3.3276,-3.3276,-3.3276,-3.3276,-3.3276,-3.3276,-3.3276,-3.3276,-3.3276,-3.3276,-3.3276,-3.3276,-3.3276,-3.3276,-3.3276,-3.3276,-3.3431,-3.364,-3.3882,-3.4278,-3.465,-3.4997,-3.5279,-3.5507,-3.5782,-3.6022,-3.6179,-3.632,-3.6476,-3.6631,-3.6693,-3.6846,-3.7059,-3.724,-3.7329]}]]